﻿<?xml version="1.0" encoding="utf-8"?><gpx creator="Garmin Desktop App" version="1.1" xsi:schemaLocation="http://www.topografix.com/GPX/1/1 http://www.topografix.com/GPX/1/1/gpx.xsd http://www.garmin.com/xmlschemas/WaypointExtension/v1 http://www8.garmin.com/xmlschemas/WaypointExtensionv1.xsd http://www.garmin.com/xmlschemas/TrackPointExtension/v1 http://www.garmin.com/xmlschemas/TrackPointExtensionv1.xsd http://www.garmin.com/xmlschemas/GpxExtensions/v3 http://www8.garmin.com/xmlschemas/GpxExtensionsv3.xsd http://www.garmin.com/xmlschemas/ActivityExtension/v1 http://www8.garmin.com/xmlschemas/ActivityExtensionv1.xsd http://www.garmin.com/xmlschemas/AdventuresExtensions/v1 http://www8.garmin.com/xmlschemas/AdventuresExtensionv1.xsd http://www.garmin.com/xmlschemas/PressureExtension/v1 http://www.garmin.com/xmlschemas/PressureExtensionv1.xsd http://www.garmin.com/xmlschemas/TripExtensions/v1 http://www.garmin.com/xmlschemas/TripExtensionsv1.xsd http://www.garmin.com/xmlschemas/TripMetaDataExtensions/v1 http://www.garmin.com/xmlschemas/TripMetaDataExtensionsv1.xsd http://www.garmin.com/xmlschemas/ViaPointTransportationModeExtensions/v1 http://www.garmin.com/xmlschemas/ViaPointTransportationModeExtensionsv1.xsd http://www.garmin.com/xmlschemas/CreationTimeExtension/v1 http://www.garmin.com/xmlschemas/CreationTimeExtensionsv1.xsd http://www.garmin.com/xmlschemas/AccelerationExtension/v1 http://www.garmin.com/xmlschemas/AccelerationExtensionv1.xsd http://www.garmin.com/xmlschemas/PowerExtension/v1 http://www.garmin.com/xmlschemas/PowerExtensionv1.xsd http://www.garmin.com/xmlschemas/VideoExtension/v1 http://www.garmin.com/xmlschemas/VideoExtensionv1.xsd" xmlns="http://www.topografix.com/GPX/1/1" xmlns:xsi="http://www.w3.org/2001/XMLSchema-instance" xmlns:wptx1="http://www.garmin.com/xmlschemas/WaypointExtension/v1" xmlns:gpxtrx="http://www.garmin.com/xmlschemas/GpxExtensions/v3" xmlns:gpxtpx="http://www.garmin.com/xmlschemas/TrackPointExtension/v1" xmlns:gpxx="http://www.garmin.com/xmlschemas/GpxExtensions/v3" xmlns:trp="http://www.garmin.com/xmlschemas/TripExtensions/v1" xmlns:adv="http://www.garmin.com/xmlschemas/AdventuresExtensions/v1" xmlns:prs="http://www.garmin.com/xmlschemas/PressureExtension/v1" xmlns:tmd="http://www.garmin.com/xmlschemas/TripMetaDataExtensions/v1" xmlns:vptm="http://www.garmin.com/xmlschemas/ViaPointTransportationModeExtensions/v1" xmlns:ctx="http://www.garmin.com/xmlschemas/CreationTimeExtension/v1" xmlns:gpxacc="http://www.garmin.com/xmlschemas/AccelerationExtension/v1" xmlns:gpxpx="http://www.garmin.com/xmlschemas/PowerExtension/v1" xmlns:vidx1="http://www.garmin.com/xmlschemas/VideoExtension/v1">

  <metadata>
    <link href="http://www.garmin.com">
      <text>Garmin International</text>
    </link>
    <time>2024-02-22T09:27:00Z</time>
    <bounds maxlat="50.688819475471973" maxlon="6.201081750914455" minlat="50.523460367694497" minlon="6.106187710538507" />
  </metadata>

  <trk>
    <name>Res eur1 ruitzhof rattenhaus 32km</name>
    <extensions>
      <gpxx:TrackExtension>
        <gpxx:DisplayColor>Red</gpxx:DisplayColor>
      </gpxx:TrackExtension>
    </extensions>
    <trkseg>
      <trkpt lat="50.688592661172152" lon="6.106448723003268">
        <ele>250.56</ele>
        <time>2013-07-16T08:35:04Z</time>
      </trkpt>
      <trkpt lat="50.68860380910337" lon="6.106463558971882">
        <ele>250.56</ele>
        <time>2013-07-16T08:35:06Z</time>
      </trkpt>
      <trkpt lat="50.688602467998862" lon="6.106494823470712">
        <ele>250.08000000000001</ele>
        <time>2013-07-16T08:35:25Z</time>
      </trkpt>
      <trkpt lat="50.688561396673322" lon="6.106359455734491">
        <ele>250.08000000000001</ele>
        <time>2013-07-16T08:35:42Z</time>
      </trkpt>
      <trkpt lat="50.688669607043266" lon="6.10637211240828">
        <ele>251.52000000000001</ele>
        <time>2013-07-16T08:35:58Z</time>
      </trkpt>
      <trkpt lat="50.688672624528408" lon="6.106394995003939">
        <ele>251.52000000000001</ele>
        <time>2013-07-16T08:36:11Z</time>
      </trkpt>
      <trkpt lat="50.688689472153783" lon="6.106432797387242">
        <ele>252.96000000000001</ele>
        <time>2013-07-16T08:36:20Z</time>
      </trkpt>
      <trkpt lat="50.688709421083331" lon="6.106508150696755">
        <ele>253.44</ele>
        <time>2013-07-16T08:36:30Z</time>
      </trkpt>
      <trkpt lat="50.688719898462296" lon="6.106458781287074">
        <ele>254.41</ele>
        <time>2013-07-16T08:36:39Z</time>
      </trkpt>
      <trkpt lat="50.688719227910042" lon="6.1064781434834">
        <ele>254.88999999999999</ele>
        <time>2013-07-16T08:36:49Z</time>
      </trkpt>
      <trkpt lat="50.688744457438588" lon="6.106475796550512">
        <ele>255.37</ele>
        <time>2013-07-16T08:37:06Z</time>
      </trkpt>
      <trkpt lat="50.688747391104698" lon="6.106495494022965">
        <ele>255.37</ele>
        <time>2013-07-16T08:37:20Z</time>
      </trkpt>
      <trkpt lat="50.688762394711375" lon="6.106492476537824">
        <ele>255.37</ele>
        <time>2013-07-16T08:37:27Z</time>
      </trkpt>
      <trkpt lat="50.688772369176149" lon="6.106468504294753">
        <ele>255.37</ele>
        <time>2013-07-16T08:37:38Z</time>
      </trkpt>
      <trkpt lat="50.688776057213545" lon="6.106464648619294">
        <ele>255.84999999999999</ele>
        <time>2013-07-16T08:37:41Z</time>
      </trkpt>
      <trkpt lat="50.688797598704696" lon="6.106455679982901">
        <ele>255.84999999999999</ele>
        <time>2013-07-16T08:37:44Z</time>
      </trkpt>
      <trkpt lat="50.688812350854278" lon="6.10641460865736">
        <ele>255.84999999999999</ele>
        <time>2013-07-16T08:37:50Z</time>
      </trkpt>
      <trkpt lat="50.688819475471973" lon="6.106377057731152">
        <ele>255.84999999999999</ele>
        <time>2013-07-16T08:37:53Z</time>
      </trkpt>
      <trkpt lat="50.688800197094679" lon="6.106239343062043">
        <ele>255.84999999999999</ele>
        <time>2013-07-16T08:38:04Z</time>
      </trkpt>
      <trkpt lat="50.688770189881325" lon="6.106250239536166">
        <ele>256.32999999999998</ele>
        <time>2013-07-16T08:38:14Z</time>
      </trkpt>
      <trkpt lat="50.688769100233912" lon="6.106254095211625">
        <ele>256.32999999999998</ele>
        <time>2013-07-16T08:38:29Z</time>
      </trkpt>
      <trkpt lat="50.68877094425261" lon="6.106263315305114">
        <ele>256.32999999999998</ele>
        <time>2013-07-16T08:38:39Z</time>
      </trkpt>
      <trkpt lat="50.688752420246601" lon="6.106213694438338">
        <ele>256.81</ele>
        <time>2013-07-16T08:38:51Z</time>
      </trkpt>
      <trkpt lat="50.688746552914381" lon="6.106195170432329">
        <ele>256.81</ele>
        <time>2013-07-16T08:38:58Z</time>
      </trkpt>
      <trkpt lat="50.688770525157452" lon="6.106187710538507">
        <ele>256.81</ele>
        <time>2013-07-16T08:39:08Z</time>
      </trkpt>
      <trkpt lat="50.688754767179489" lon="6.106230206787586">
        <ele>257.29000000000002</ele>
        <time>2013-07-16T08:39:21Z</time>
      </trkpt>
      <trkpt lat="50.688593499362469" lon="6.106255268678069">
        <ele>257.29000000000002</ele>
        <time>2013-07-16T08:39:34Z</time>
      </trkpt>
      <trkpt lat="50.688467854633927" lon="6.106254933401942">
        <ele>257.76999999999998</ele>
        <time>2013-07-16T08:39:46Z</time>
      </trkpt>
      <trkpt lat="50.688430974259973" lon="6.106222160160542">
        <ele>257.76999999999998</ele>
        <time>2013-07-16T08:39:54Z</time>
      </trkpt>
      <trkpt lat="50.688408007845283" lon="6.106243198737502">
        <ele>257.76999999999998</ele>
        <time>2013-07-16T08:39:58Z</time>
      </trkpt>
      <trkpt lat="50.68838051520288" lon="6.1062001157552">
        <ele>257.76999999999998</ele>
        <time>2013-07-16T08:40:04Z</time>
      </trkpt>
      <trkpt lat="50.688391998410225" lon="6.10621863976121">
        <ele>258.25</ele>
        <time>2013-07-16T08:40:11Z</time>
      </trkpt>
      <trkpt lat="50.688322009518743" lon="6.106218053027988">
        <ele>258.25</ele>
        <time>2013-07-16T08:40:19Z</time>
      </trkpt>
      <trkpt lat="50.688300970941782" lon="6.106230039149523">
        <ele>258.25</ele>
        <time>2013-07-16T08:40:23Z</time>
      </trkpt>
      <trkpt lat="50.688219331204891" lon="6.106252167373896">
        <ele>258.73000000000002</ele>
        <time>2013-07-16T08:40:33Z</time>
      </trkpt>
      <trkpt lat="50.688189659267664" lon="6.106259794905782">
        <ele>258.73000000000002</ele>
        <time>2013-07-16T08:40:36Z</time>
      </trkpt>
      <trkpt lat="50.68798815831542" lon="6.106256525963545">
        <ele>258.73000000000002</ele>
        <time>2013-07-16T08:40:54Z</time>
      </trkpt>
      <trkpt lat="50.687751621007919" lon="6.106276642531157">
        <ele>258.25</ele>
        <time>2013-07-16T08:41:11Z</time>
      </trkpt>
      <trkpt lat="50.687615498900414" lon="6.106255017220974">
        <ele>258.25</ele>
        <time>2013-07-16T08:41:21Z</time>
      </trkpt>
      <trkpt lat="50.687582809478045" lon="6.106303129345179">
        <ele>258.25</ele>
        <time>2013-07-16T08:41:33Z</time>
      </trkpt>
      <trkpt lat="50.687544420361519" lon="6.10632810741663">
        <ele>258.73000000000002</ele>
        <time>2013-07-16T08:41:44Z</time>
      </trkpt>
      <trkpt lat="50.68751223385334" lon="6.106358030810952">
        <ele>258.73000000000002</ele>
        <time>2013-07-16T08:41:54Z</time>
      </trkpt>
      <trkpt lat="50.687504019588232" lon="6.106340931728482">
        <ele>258.73000000000002</ele>
        <time>2013-07-16T08:42:06Z</time>
      </trkpt>
      <trkpt lat="50.6874037720263" lon="6.106500187888742">
        <ele>259.20999999999998</ele>
        <time>2013-07-16T08:42:20Z</time>
      </trkpt>
      <trkpt lat="50.687352139502764" lon="6.106582833454013">
        <ele>259.20999999999998</ele>
        <time>2013-07-16T08:42:32Z</time>
      </trkpt>
      <trkpt lat="50.68719070404768" lon="6.106764720752835">
        <ele>259.20999999999998</ele>
        <time>2013-07-16T08:42:46Z</time>
      </trkpt>
      <trkpt lat="50.687056677415967" lon="6.106950296089053">
        <ele>259.20999999999998</ele>
        <time>2013-07-16T08:42:59Z</time>
      </trkpt>
      <trkpt lat="50.686947712674737" lon="6.107095638290048">
        <ele>293.81999999999999</ele>
        <time>2013-07-16T08:43:10Z</time>
      </trkpt>
      <trkpt lat="50.686937738209963" lon="6.107110725715756">
        <ele>293.81999999999999</ele>
        <time>2013-07-16T08:43:11Z</time>
      </trkpt>
      <trkpt lat="50.686901193112135" lon="6.107165543362498">
        <ele>287.08999999999997</ele>
        <time>2013-07-16T08:43:15Z</time>
      </trkpt>
      <trkpt lat="50.686892978847027" lon="6.107178200036287">
        <ele>287.08999999999997</ele>
        <time>2013-07-16T08:43:16Z</time>
      </trkpt>
      <trkpt lat="50.686755431815982" lon="6.107412222772837">
        <ele>287.08999999999997</ele>
        <time>2013-07-16T08:43:33Z</time>
      </trkpt>
      <trkpt lat="50.686610341072083" lon="6.107574831694365">
        <ele>287.08999999999997</ele>
        <time>2013-07-16T08:43:46Z</time>
      </trkpt>
      <trkpt lat="50.686533311381936" lon="6.107612466439605">
        <ele>286.13</ele>
        <time>2013-07-16T08:43:52Z</time>
      </trkpt>
      <trkpt lat="50.686308927834034" lon="6.107628140598536">
        <ele>286.13</ele>
        <time>2013-07-16T08:44:11Z</time>
      </trkpt>
      <trkpt lat="50.686169033870101" lon="6.107636941596866">
        <ele>285.64999999999998</ele>
        <time>2013-07-16T08:44:22Z</time>
      </trkpt>
      <trkpt lat="50.686002401635051" lon="6.107648843899369">
        <ele>284.69</ele>
        <time>2013-07-16T08:44:37Z</time>
      </trkpt>
      <trkpt lat="50.685956301167607" lon="6.107674660161138">
        <ele>284.69</ele>
        <time>2013-07-16T08:44:41Z</time>
      </trkpt>
      <trkpt lat="50.685890838503838" lon="6.107690501958132">
        <ele>283.73000000000002</ele>
        <time>2013-07-16T08:44:45Z</time>
      </trkpt>
      <trkpt lat="50.685689505189657" lon="6.107763592153788">
        <ele>283.73000000000002</ele>
        <time>2013-07-16T08:44:59Z</time>
      </trkpt>
      <trkpt lat="50.685590682551265" lon="6.107794689014554">
        <ele>283.73000000000002</ele>
        <time>2013-07-16T08:45:06Z</time>
      </trkpt>
      <trkpt lat="50.685399239882827" lon="6.107808351516724">
        <ele>283.25</ele>
        <time>2013-07-16T08:45:21Z</time>
      </trkpt>
      <trkpt lat="50.68521467037499" lon="6.107821678742766">
        <ele>282.27999999999997</ele>
        <time>2013-07-16T08:45:35Z</time>
      </trkpt>
      <trkpt lat="50.685115596279502" lon="6.107842633500695">
        <ele>281.80000000000001</ele>
        <time>2013-07-16T08:45:43Z</time>
      </trkpt>
      <trkpt lat="50.685052648186684" lon="6.108016893267632">
        <ele>281.31999999999999</ele>
        <time>2013-07-16T08:45:57Z</time>
      </trkpt>
      <trkpt lat="50.685154320672154" lon="6.108323503285646">
        <ele>280.36000000000001</ele>
        <time>2013-07-16T08:46:15Z</time>
      </trkpt>
      <trkpt lat="50.685187764465809" lon="6.1085245013237">
        <ele>279.39999999999998</ele>
        <time>2013-07-16T08:46:27Z</time>
      </trkpt>
      <trkpt lat="50.685290526598692" lon="6.108832703903318">
        <ele>278.92000000000002</ele>
        <time>2013-07-16T08:46:44Z</time>
      </trkpt>
      <trkpt lat="50.685416338965297" lon="6.109084412455559">
        <ele>278.44</ele>
        <time>2013-07-16T08:46:58Z</time>
      </trkpt>
      <trkpt lat="50.685439808294177" lon="6.109116934239864">
        <ele>278.44</ele>
        <time>2013-07-16T08:47:00Z</time>
      </trkpt>
      <trkpt lat="50.685609709471464" lon="6.109374007210136">
        <ele>278.44</ele>
        <time>2013-07-16T08:47:15Z</time>
      </trkpt>
      <trkpt lat="50.685744155198336" lon="6.10968254506588">
        <ele>277.95999999999998</ele>
        <time>2013-07-16T08:47:32Z</time>
      </trkpt>
      <trkpt lat="50.685861669480801" lon="6.1100216768682">
        <ele>277.95999999999998</ele>
        <time>2013-07-16T08:47:50Z</time>
      </trkpt>
      <trkpt lat="50.685899639502168" lon="6.110250921919942">
        <ele>277.48000000000002</ele>
        <time>2013-07-16T08:48:01Z</time>
      </trkpt>
      <trkpt lat="50.685919420793653" lon="6.110384026542306">
        <ele>277.48000000000002</ele>
        <time>2013-07-16T08:48:07Z</time>
      </trkpt>
      <trkpt lat="50.686028050258756" lon="6.110777305439115">
        <ele>277.48000000000002</ele>
        <time>2013-07-16T08:48:28Z</time>
      </trkpt>
      <trkpt lat="50.68615822121501" lon="6.111090620979667">
        <ele>277.48000000000002</ele>
        <time>2013-07-16T08:48:46Z</time>
      </trkpt>
      <trkpt lat="50.686244973912835" lon="6.111499406397343">
        <ele>277.48000000000002</ele>
        <time>2013-07-16T08:49:06Z</time>
      </trkpt>
      <trkpt lat="50.686313454061747" lon="6.111750109121203">
        <ele>277.48000000000002</ele>
        <time>2013-07-16T08:49:20Z</time>
      </trkpt>
      <trkpt lat="50.686324266716838" lon="6.111980192363262">
        <ele>277.48000000000002</ele>
        <time>2013-07-16T08:49:30Z</time>
      </trkpt>
      <trkpt lat="50.686377072706819" lon="6.112350504845381">
        <ele>278.44</ele>
        <time>2013-07-16T08:49:49Z</time>
      </trkpt>
      <trkpt lat="50.686470530927181" lon="6.112667759880424">
        <ele>278.92000000000002</ele>
        <time>2013-07-16T08:50:06Z</time>
      </trkpt>
      <trkpt lat="50.686521744355559" lon="6.112872026860714">
        <ele>279.39999999999998</ele>
        <time>2013-07-16T08:50:18Z</time>
      </trkpt>
      <trkpt lat="50.686504812911153" lon="6.112965736538172">
        <ele>279.39999999999998</ele>
        <time>2013-07-16T08:50:23Z</time>
      </trkpt>
      <trkpt lat="50.68632191978395" lon="6.113221971318126">
        <ele>279.88</ele>
        <time>2013-07-16T08:50:41Z</time>
      </trkpt>
      <trkpt lat="50.686061661690474" lon="6.113431518897414">
        <ele>279.88</ele>
        <time>2013-07-16T08:51:02Z</time>
      </trkpt>
      <trkpt lat="50.685906428843737" lon="6.113535622134805">
        <ele>279.88</ele>
        <time>2013-07-16T08:51:15Z</time>
      </trkpt>
      <trkpt lat="50.685713645070791" lon="6.113683646544814">
        <ele>279.88</ele>
        <time>2013-07-16T08:51:32Z</time>
      </trkpt>
      <trkpt lat="50.68559437058866" lon="6.113831419497728">
        <ele>277.95999999999998</ele>
        <time>2013-07-16T08:51:44Z</time>
      </trkpt>
      <trkpt lat="50.685474593192339" lon="6.114040296524763">
        <ele>277</ele>
        <time>2013-07-16T08:51:57Z</time>
      </trkpt>
      <trkpt lat="50.685406867414713" lon="6.11432746052742">
        <ele>275.06999999999999</ele>
        <time>2013-07-16T08:52:13Z</time>
      </trkpt>
      <trkpt lat="50.685349451377988" lon="6.114639854058623">
        <ele>273.14999999999998</ele>
        <time>2013-07-16T08:52:29Z</time>
      </trkpt>
      <trkpt lat="50.685158763080835" lon="6.11490991897881">
        <ele>272.67000000000002</ele>
        <time>2013-07-16T08:52:48Z</time>
      </trkpt>
      <trkpt lat="50.684955753386021" lon="6.114943446591497">
        <ele>272.67000000000002</ele>
        <time>2013-07-16T08:53:03Z</time>
      </trkpt>
      <trkpt lat="50.684741847217083" lon="6.114921569824219">
        <ele>272.19</ele>
        <time>2013-07-16T08:53:18Z</time>
      </trkpt>
      <trkpt lat="50.68452475592494" lon="6.11491285264492">
        <ele>272.19</ele>
        <time>2013-07-16T08:53:34Z</time>
      </trkpt>
      <trkpt lat="50.684242956340313" lon="6.114972280338407">
        <ele>271.70999999999998</ele>
        <time>2013-07-16T08:53:55Z</time>
      </trkpt>
      <trkpt lat="50.684074983000755" lon="6.115054758265615">
        <ele>271.70999999999998</ele>
        <time>2013-07-16T08:54:09Z</time>
      </trkpt>
      <trkpt lat="50.683998120948672" lon="6.11509214155376">
        <ele>271.70999999999998</ele>
        <time>2013-07-16T08:54:15Z</time>
      </trkpt>
      <trkpt lat="50.683887228369713" lon="6.115151150152087">
        <ele>271.70999999999998</ele>
        <time>2013-07-16T08:54:24Z</time>
      </trkpt>
      <trkpt lat="50.683649266138673" lon="6.115276040509343">
        <ele>272.67000000000002</ele>
        <time>2013-07-16T08:54:43Z</time>
      </trkpt>
      <trkpt lat="50.683389091864228" lon="6.115399086847901">
        <ele>273.14999999999998</ele>
        <time>2013-07-16T08:55:05Z</time>
      </trkpt>
      <trkpt lat="50.683311894536018" lon="6.115439487621188">
        <ele>273.63</ele>
        <time>2013-07-16T08:55:12Z</time>
      </trkpt>
      <trkpt lat="50.683268308639526" lon="6.115467147901654">
        <ele>273.63</ele>
        <time>2013-07-16T08:55:16Z</time>
      </trkpt>
      <trkpt lat="50.683113411068916" lon="6.115537974983454">
        <ele>275.06999999999999</ele>
        <time>2013-07-16T08:55:30Z</time>
      </trkpt>
      <trkpt lat="50.682981563732028" lon="6.115607880055904">
        <ele>276.04000000000002</ele>
        <time>2013-07-16T08:55:42Z</time>
      </trkpt>
      <trkpt lat="50.682881735265255" lon="6.11569463275373">
        <ele>277</ele>
        <time>2013-07-16T08:55:52Z</time>
      </trkpt>
      <trkpt lat="50.682831360027194" lon="6.115699242800474">
        <ele>277.48000000000002</ele>
        <time>2013-07-16T08:55:56Z</time>
      </trkpt>
      <trkpt lat="50.682603120803833" lon="6.115734949707985">
        <ele>279.39999999999998</ele>
        <time>2013-07-16T08:56:14Z</time>
      </trkpt>
      <trkpt lat="50.682436237111688" lon="6.1157635319978">
        <ele>280.36000000000001</ele>
        <time>2013-07-16T08:56:29Z</time>
      </trkpt>
      <trkpt lat="50.682267090305686" lon="6.115757329389453">
        <ele>282.76999999999998</ele>
        <time>2013-07-16T08:56:44Z</time>
      </trkpt>
      <trkpt lat="50.682051340118051" lon="6.115798149257898">
        <ele>284.20999999999998</ele>
        <time>2013-07-16T08:57:02Z</time>
      </trkpt>
      <trkpt lat="50.681869452819228" lon="6.115921698510647">
        <ele>286.61000000000001</ele>
        <time>2013-07-16T08:57:19Z</time>
      </trkpt>
      <trkpt lat="50.681847827509046" lon="6.115936450660229">
        <ele>286.61000000000001</ele>
        <time>2013-07-16T08:57:21Z</time>
      </trkpt>
      <trkpt lat="50.681663258001208" lon="6.116046672686935">
        <ele>288.52999999999997</ele>
        <time>2013-07-16T08:57:38Z</time>
      </trkpt>
      <trkpt lat="50.68148304708302" lon="6.116146668791771">
        <ele>290.45999999999998</ele>
        <time>2013-07-16T08:57:55Z</time>
      </trkpt>
      <trkpt lat="50.681247431784868" lon="6.116319168359041">
        <ele>292.86000000000001</ele>
        <time>2013-07-16T08:58:17Z</time>
      </trkpt>
      <trkpt lat="50.681062443181872" lon="6.116488398984075">
        <ele>294.77999999999997</ele>
        <time>2013-07-16T08:58:36Z</time>
      </trkpt>
      <trkpt lat="50.681046349927783" lon="6.116499546915293">
        <ele>294.77999999999997</ele>
        <time>2013-07-16T08:58:38Z</time>
      </trkpt>
      <trkpt lat="50.680872006341815" lon="6.116607757285237">
        <ele>295.25999999999999</ele>
        <time>2013-07-16T08:58:54Z</time>
      </trkpt>
      <trkpt lat="50.680662458762527" lon="6.116737676784396">
        <ele>294.30000000000001</ele>
        <time>2013-07-16T08:59:12Z</time>
      </trkpt>
      <trkpt lat="50.680466322228312" lon="6.116799954324961">
        <ele>292.86000000000001</ele>
        <time>2013-07-16T08:59:28Z</time>
      </trkpt>
      <trkpt lat="50.680253002792597" lon="6.116888802498579">
        <ele>290.45999999999998</ele>
        <time>2013-07-16T08:59:47Z</time>
      </trkpt>
      <trkpt lat="50.680187288671732" lon="6.116910930722952">
        <ele>289.97000000000003</ele>
        <time>2013-07-16T09:00:00Z</time>
      </trkpt>
      <trkpt lat="50.680167507380247" lon="6.116923838853836">
        <ele>289.49000000000001</ele>
        <time>2013-07-16T09:00:02Z</time>
      </trkpt>
      <trkpt lat="50.68012610077858" lon="6.116915289312601">
        <ele>289.00999999999999</ele>
        <time>2013-07-16T09:00:13Z</time>
      </trkpt>
      <trkpt lat="50.680114952847362" lon="6.116911014541984">
        <ele>289.00999999999999</ele>
        <time>2013-07-16T09:00:41Z</time>
      </trkpt>
      <trkpt lat="50.680096931755543" lon="6.116933394223452">
        <ele>289.00999999999999</ele>
        <time>2013-07-16T09:00:45Z</time>
      </trkpt>
      <trkpt lat="50.679924264550209" lon="6.117109498009086">
        <ele>287.08999999999997</ele>
        <time>2013-07-16T09:01:02Z</time>
      </trkpt>
      <trkpt lat="50.679755872115493" lon="6.117250230163336">
        <ele>285.17000000000002</ele>
        <time>2013-07-16T09:01:18Z</time>
      </trkpt>
      <trkpt lat="50.679707759991288" lon="6.117262970656157">
        <ele>285.17000000000002</ele>
        <time>2013-07-16T09:01:22Z</time>
      </trkpt>
      <trkpt lat="50.679597705602646" lon="6.117530269548297">
        <ele>283.73000000000002</ele>
        <time>2013-07-16T09:01:39Z</time>
      </trkpt>
      <trkpt lat="50.679517406970263" lon="6.117752976715565">
        <ele>282.76999999999998</ele>
        <time>2013-07-16T09:01:51Z</time>
      </trkpt>
      <trkpt lat="50.679501313716173" lon="6.117805782705545">
        <ele>282.27999999999997</ele>
        <time>2013-07-16T09:01:54Z</time>
      </trkpt>
      <trkpt lat="50.679442221298814" lon="6.118005691096187">
        <ele>280.83999999999997</ele>
        <time>2013-07-16T09:02:06Z</time>
      </trkpt>
      <trkpt lat="50.679413974285126" lon="6.118305260315538">
        <ele>279.88</ele>
        <time>2013-07-16T09:02:21Z</time>
      </trkpt>
      <trkpt lat="50.679376758635044" lon="6.118590915575624">
        <ele>278.44</ele>
        <time>2013-07-16T09:02:35Z</time>
      </trkpt>
      <trkpt lat="50.679305177181959" lon="6.118871793150902">
        <ele>277.95999999999998</ele>
        <time>2013-07-16T09:02:49Z</time>
      </trkpt>
      <trkpt lat="50.679202331230044" lon="6.119127022102475">
        <ele>277.48000000000002</ele>
        <time>2013-07-16T09:03:03Z</time>
      </trkpt>
      <trkpt lat="50.679123373702168" lon="6.119349813088775">
        <ele>277.48000000000002</ele>
        <time>2013-07-16T09:03:15Z</time>
      </trkpt>
      <trkpt lat="50.67908632569015" lon="6.119414269924164">
        <ele>277.48000000000002</ele>
        <time>2013-07-16T09:03:19Z</time>
      </trkpt>
      <trkpt lat="50.67897979170084" lon="6.119765136390925">
        <ele>277.48000000000002</ele>
        <time>2013-07-16T09:03:38Z</time>
      </trkpt>
      <trkpt lat="50.678963698446751" lon="6.11983135342598">
        <ele>277.48000000000002</ele>
        <time>2013-07-16T09:03:42Z</time>
      </trkpt>
      <trkpt lat="50.678945174440742" lon="6.120102424174547">
        <ele>277.48000000000002</ele>
        <time>2013-07-16T09:03:57Z</time>
      </trkpt>
      <trkpt lat="50.67893092520535" lon="6.12037617713213">
        <ele>277.48000000000002</ele>
        <time>2013-07-16T09:04:12Z</time>
      </trkpt>
      <trkpt lat="50.678920112550259" lon="6.120618330314755">
        <ele>277.48000000000002</ele>
        <time>2013-07-16T09:04:25Z</time>
      </trkpt>
      <trkpt lat="50.678895385935903" lon="6.120713045820594">
        <ele>277.48000000000002</ele>
        <time>2013-07-16T09:04:30Z</time>
      </trkpt>
      <trkpt lat="50.678825816139579" lon="6.121041951701045">
        <ele>277.48000000000002</ele>
        <time>2013-07-16T09:04:49Z</time>
      </trkpt>
      <trkpt lat="50.678740069270134" lon="6.121311681345105">
        <ele>277.48000000000002</ele>
        <time>2013-07-16T09:05:06Z</time>
      </trkpt>
      <trkpt lat="50.67866806872189" lon="6.121514774858952">
        <ele>277.48000000000002</ele>
        <time>2013-07-16T09:05:18Z</time>
      </trkpt>
      <trkpt lat="50.678515937179327" lon="6.122051132842898">
        <ele>278.44</ele>
        <time>2013-07-16T09:32:29Z</time>
      </trkpt>
      <trkpt lat="50.678439158946276" lon="6.122417505830526">
        <ele>278.44</ele>
        <time>2013-07-16T09:32:47Z</time>
      </trkpt>
      <trkpt lat="50.678337402641773" lon="6.12276560626924">
        <ele>278.44</ele>
        <time>2013-07-16T09:33:04Z</time>
      </trkpt>
      <trkpt lat="50.678221900016069" lon="6.123176654800773">
        <ele>277.95999999999998</ele>
        <time>2013-07-16T09:33:24Z</time>
      </trkpt>
      <trkpt lat="50.678121400997043" lon="6.123639671131969">
        <ele>280.36000000000001</ele>
        <time>2013-07-16T09:33:47Z</time>
      </trkpt>
      <trkpt lat="50.678040683269501" lon="6.123920632526279">
        <ele>282.27999999999997</ele>
        <time>2013-07-16T09:34:02Z</time>
      </trkpt>
      <trkpt lat="50.67793121561408" lon="6.124225817620754">
        <ele>284.20999999999998</ele>
        <time>2013-07-16T09:34:22Z</time>
      </trkpt>
      <trkpt lat="50.677765756845474" lon="6.124339979141951">
        <ele>286.61000000000001</ele>
        <time>2013-07-16T09:34:38Z</time>
      </trkpt>
      <trkpt lat="50.677570793777704" lon="6.124337296932936">
        <ele>289.00999999999999</ele>
        <time>2013-07-16T09:34:55Z</time>
      </trkpt>
      <trkpt lat="50.677509941160679" lon="6.124346936121583">
        <ele>289.97000000000003</ele>
        <time>2013-07-16T09:35:00Z</time>
      </trkpt>
      <trkpt lat="50.677366862073541" lon="6.124535780400038">
        <ele>293.33999999999997</ele>
        <time>2013-07-16T09:35:17Z</time>
      </trkpt>
      <trkpt lat="50.677340794354677" lon="6.124587077647448">
        <ele>293.81999999999999</ele>
        <time>2013-07-16T09:35:21Z</time>
      </trkpt>
      <trkpt lat="50.677337106317282" lon="6.124617671594024">
        <ele>293.81999999999999</ele>
        <time>2013-07-16T09:35:23Z</time>
      </trkpt>
      <trkpt lat="50.677384044975042" lon="6.124779358506203">
        <ele>294.77999999999997</ele>
        <time>2013-07-16T09:35:33Z</time>
      </trkpt>
      <trkpt lat="50.67750072106719" lon="6.124953953549266">
        <ele>294.77999999999997</ele>
        <time>2013-07-16T09:35:46Z</time>
      </trkpt>
      <trkpt lat="50.677691493183374" lon="6.125188730657101">
        <ele>296.22000000000003</ele>
        <time>2013-07-16T09:36:04Z</time>
      </trkpt>
      <trkpt lat="50.677728708833456" lon="6.125263748690486">
        <ele>296.22000000000003</ele>
        <time>2013-07-16T09:36:09Z</time>
      </trkpt>
      <trkpt lat="50.677731307223439" lon="6.125300629064441">
        <ele>296.69999999999999</ele>
        <time>2013-07-16T09:36:11Z</time>
      </trkpt>
      <trkpt lat="50.677884696051478" lon="6.125556025654078">
        <ele>298.14999999999998</ele>
        <time>2013-07-16T09:36:30Z</time>
      </trkpt>
      <trkpt lat="50.677977064624429" lon="6.125897755846381">
        <ele>298.14999999999998</ele>
        <time>2013-07-16T09:36:48Z</time>
      </trkpt>
      <trkpt lat="50.677979998290539" lon="6.125917453318834">
        <ele>298.14999999999998</ele>
        <time>2013-07-16T09:36:49Z</time>
      </trkpt>
      <trkpt lat="50.677996594458818" lon="6.12598953768611">
        <ele>298.14999999999998</ele>
        <time>2013-07-16T09:36:53Z</time>
      </trkpt>
      <trkpt lat="50.677978321909904" lon="6.126058604568243">
        <ele>298.14999999999998</ele>
        <time>2013-07-16T09:36:57Z</time>
      </trkpt>
      <trkpt lat="50.677976896986365" lon="6.126423552632332">
        <ele>298.14999999999998</ele>
        <time>2013-07-16T09:37:15Z</time>
      </trkpt>
      <trkpt lat="50.677895592525601" lon="6.126657826825976">
        <ele>298.14999999999998</ele>
        <time>2013-07-16T09:37:29Z</time>
      </trkpt>
      <trkpt lat="50.677890731021762" lon="6.126676518470049">
        <ele>298.14999999999998</ele>
        <time>2013-07-16T09:37:30Z</time>
      </trkpt>
      <trkpt lat="50.677775479853153" lon="6.126958318054676">
        <ele>298.14999999999998</ele>
        <time>2013-07-16T09:37:47Z</time>
      </trkpt>
      <trkpt lat="50.677711861208081" lon="6.127277668565512">
        <ele>298.63</ele>
        <time>2013-07-16T09:38:04Z</time>
      </trkpt>
      <trkpt lat="50.67771035246551" lon="6.127309435978532">
        <ele>299.11000000000001</ele>
        <time>2013-07-16T09:38:06Z</time>
      </trkpt>
      <trkpt lat="50.677757291123271" lon="6.12751261331141">
        <ele>299.11000000000001</ele>
        <time>2013-07-16T09:38:20Z</time>
      </trkpt>
      <trkpt lat="50.677851671352983" lon="6.127852415665984">
        <ele>299.58999999999997</ele>
        <time>2013-07-16T09:38:38Z</time>
      </trkpt>
      <trkpt lat="50.677928701043129" lon="6.128248544409871">
        <ele>300.06999999999999</ele>
        <time>2013-07-16T09:38:59Z</time>
      </trkpt>
      <trkpt lat="50.677952505648136" lon="6.128596225753427">
        <ele>300.06999999999999</ele>
        <time>2013-07-16T09:39:17Z</time>
      </trkpt>
      <trkpt lat="50.677969940006733" lon="6.129025211557746">
        <ele>300.06999999999999</ele>
        <time>2013-07-16T09:39:38Z</time>
      </trkpt>
      <trkpt lat="50.677997851744294" lon="6.129435505717993">
        <ele>300.06999999999999</ele>
        <time>2013-07-16T09:39:58Z</time>
      </trkpt>
      <trkpt lat="50.678022326901555" lon="6.129777235910296">
        <ele>300.06999999999999</ele>
        <time>2013-07-16T09:40:14Z</time>
      </trkpt>
      <trkpt lat="50.678038420155644" lon="6.130051827058196">
        <ele>299.11000000000001</ele>
        <time>2013-07-16T09:40:27Z</time>
      </trkpt>
      <trkpt lat="50.678041018545628" lon="6.130498750135303">
        <ele>298.63</ele>
        <time>2013-07-16T09:40:48Z</time>
      </trkpt>
      <trkpt lat="50.678051915019751" lon="6.130905020982027">
        <ele>298.63</ele>
        <time>2013-07-16T09:41:06Z</time>
      </trkpt>
      <trkpt lat="50.678044036030769" lon="6.131294947117567">
        <ele>298.14999999999998</ele>
        <time>2013-07-16T09:41:24Z</time>
      </trkpt>
      <trkpt lat="50.67805384285748" lon="6.13172653131187">
        <ele>298.14999999999998</ele>
        <time>2013-07-16T09:41:45Z</time>
      </trkpt>
      <trkpt lat="50.678075216710567" lon="6.13210572861135">
        <ele>298.14999999999998</ele>
        <time>2013-07-16T09:42:03Z</time>
      </trkpt>
      <trkpt lat="50.678063482046127" lon="6.132548293098807">
        <ele>299.58999999999997</ele>
        <time>2013-07-16T09:42:24Z</time>
      </trkpt>
      <trkpt lat="50.677964743226767" lon="6.132916426286101">
        <ele>300.06999999999999</ele>
        <time>2013-07-16T09:42:45Z</time>
      </trkpt>
      <trkpt lat="50.677723763510585" lon="6.133032850921154">
        <ele>300.06999999999999</ele>
        <time>2013-07-16T09:43:03Z</time>
      </trkpt>
      <trkpt lat="50.677539194002748" lon="6.133100157603622">
        <ele>300.55000000000001</ele>
        <time>2013-07-16T09:43:17Z</time>
      </trkpt>
      <trkpt lat="50.677298801019788" lon="6.133297383785248">
        <ele>300.55000000000001</ele>
        <time>2013-07-16T09:43:36Z</time>
      </trkpt>
      <trkpt lat="50.677014235407114" lon="6.133549259975553">
        <ele>300.55000000000001</ele>
        <time>2013-07-16T09:43:59Z</time>
      </trkpt>
      <trkpt lat="50.676785912364721" lon="6.133707091212273">
        <ele>301.50999999999999</ele>
        <time>2013-07-16T09:44:17Z</time>
      </trkpt>
      <trkpt lat="50.676586590707302" lon="6.133809182792902">
        <ele>301.99000000000001</ele>
        <time>2013-07-16T09:44:34Z</time>
      </trkpt>
      <trkpt lat="50.676432531327009" lon="6.133866934105754">
        <ele>303.43000000000001</ele>
        <time>2013-07-16T09:44:47Z</time>
      </trkpt>
      <trkpt lat="50.676162550225854" lon="6.133917644619942">
        <ele>304.88</ele>
        <time>2013-07-16T09:45:08Z</time>
      </trkpt>
      <trkpt lat="50.675917379558086" lon="6.133961314335465">
        <ele>307.27999999999997</ele>
        <time>2013-07-16T09:45:27Z</time>
      </trkpt>
      <trkpt lat="50.675893826410174" lon="6.133952848613262">
        <ele>307.27999999999997</ele>
        <time>2013-07-16T09:45:29Z</time>
      </trkpt>
      <trkpt lat="50.675818808376789" lon="6.133961398154497">
        <ele>307.75999999999999</ele>
        <time>2013-07-16T09:45:35Z</time>
      </trkpt>
      <trkpt lat="50.675626862794161" lon="6.133950082585216">
        <ele>309.19999999999999</ele>
        <time>2013-07-16T09:45:50Z</time>
      </trkpt>
      <trkpt lat="50.675389152020216" lon="6.133874310180545">
        <ele>310.16000000000003</ele>
        <time>2013-07-16T09:46:10Z</time>
      </trkpt>
      <trkpt lat="50.675154291093349" lon="6.13377490080893">
        <ele>311.60000000000002</ele>
        <time>2013-07-16T09:46:29Z</time>
      </trkpt>
      <trkpt lat="50.674942312762141" lon="6.13371916115284">
        <ele>313.52999999999997</ele>
        <time>2013-07-16T09:46:46Z</time>
      </trkpt>
      <trkpt lat="50.674733016639948" lon="6.133634420111775">
        <ele>314.49000000000001</ele>
        <time>2013-07-16T09:47:03Z</time>
      </trkpt>
      <trkpt lat="50.67454794421792" lon="6.133381621912122">
        <ele>314.97000000000003</ele>
        <time>2013-07-16T09:47:22Z</time>
      </trkpt>
      <trkpt lat="50.674345269799232" lon="6.133288750424981">
        <ele>314.97000000000003</ele>
        <time>2013-07-16T09:47:40Z</time>
      </trkpt>
      <trkpt lat="50.674137063324451" lon="6.133412467315793">
        <ele>315.44999999999999</ele>
        <time>2013-07-16T09:47:56Z</time>
      </trkpt>
      <trkpt lat="50.673906393349171" lon="6.133564431220293">
        <ele>315.44999999999999</ele>
        <time>2013-07-16T09:48:15Z</time>
      </trkpt>
      <trkpt lat="50.673685781657696" lon="6.133767189458013">
        <ele>315.93000000000001</ele>
        <time>2013-07-16T09:48:35Z</time>
      </trkpt>
      <trkpt lat="50.673484532162547" lon="6.133947903290391">
        <ele>315.93000000000001</ele>
        <time>2013-07-16T09:48:53Z</time>
      </trkpt>
      <trkpt lat="50.673302309587598" lon="6.134121492505074">
        <ele>316.88999999999999</ele>
        <time>2013-07-16T09:49:11Z</time>
      </trkpt>
      <trkpt lat="50.673129726201296" lon="6.134354593232274">
        <ele>317.85000000000002</ele>
        <time>2013-07-16T09:49:30Z</time>
      </trkpt>
      <trkpt lat="50.672919591888785" lon="6.134517537429929">
        <ele>319.30000000000001</ele>
        <time>2013-07-16T09:49:48Z</time>
      </trkpt>
      <trkpt lat="50.672826888039708" lon="6.134541006758809">
        <ele>319.30000000000001</ele>
        <time>2013-07-16T09:49:55Z</time>
      </trkpt>
      <trkpt lat="50.672652209177613" lon="6.134641589596868">
        <ele>320.25999999999999</ele>
        <time>2013-07-16T09:50:10Z</time>
      </trkpt>
      <trkpt lat="50.672455402091146" lon="6.134733036160469">
        <ele>320.74000000000001</ele>
        <time>2013-07-16T09:50:26Z</time>
      </trkpt>
      <trkpt lat="50.672262785956264" lon="6.134811323136091">
        <ele>321.69999999999999</ele>
        <time>2013-07-16T09:50:42Z</time>
      </trkpt>
      <trkpt lat="50.672024069353938" lon="6.134944427758455">
        <ele>322.18000000000001</ele>
        <time>2013-07-16T09:51:02Z</time>
      </trkpt>
      <trkpt lat="50.671837655827403" lon="6.13501307554543">
        <ele>323.13999999999999</ele>
        <time>2013-07-16T09:51:18Z</time>
      </trkpt>
      <trkpt lat="50.671612350270152" lon="6.135092116892338">
        <ele>324.10000000000002</ele>
        <time>2013-07-16T09:51:37Z</time>
      </trkpt>
      <trkpt lat="50.6712696980685" lon="6.135208709165454">
        <ele>325.06</ele>
        <time>2013-07-16T09:51:50Z</time>
      </trkpt>
      <trkpt lat="50.670829815790057" lon="6.135451449081302">
        <ele>326.99000000000001</ele>
        <time>2013-07-16T09:52:06Z</time>
      </trkpt>
      <trkpt lat="50.670456318184733" lon="6.135700475424528">
        <ele>328.43000000000001</ele>
        <time>2013-07-16T09:52:20Z</time>
      </trkpt>
      <trkpt lat="50.670088017359376" lon="6.136048827320337">
        <ele>331.31</ele>
        <time>2013-07-16T09:52:35Z</time>
      </trkpt>
      <trkpt lat="50.669769924134016" lon="6.13636801019311">
        <ele>333.23000000000002</ele>
        <time>2013-07-16T09:52:48Z</time>
      </trkpt>
      <trkpt lat="50.669349655508995" lon="6.13670714199543">
        <ele>336.60000000000002</ele>
        <time>2013-07-16T09:53:04Z</time>
      </trkpt>
      <trkpt lat="50.669167432934046" lon="6.136849382892251">
        <ele>337.56</ele>
        <time>2013-07-16T09:53:20Z</time>
      </trkpt>
      <trkpt lat="50.668997447937727" lon="6.136947283521295">
        <ele>338.04000000000002</ele>
        <time>2013-07-16T09:53:36Z</time>
      </trkpt>
      <trkpt lat="50.668902564793825" lon="6.137066725641489">
        <ele>338.51999999999998</ele>
        <time>2013-07-16T09:53:53Z</time>
      </trkpt>
      <trkpt lat="50.668715229257941" lon="6.137284571304917">
        <ele>340.44</ele>
        <time>2013-07-16T09:54:10Z</time>
      </trkpt>
      <trkpt lat="50.668556811287999" lon="6.13738875836134">
        <ele>341.41000000000003</ele>
        <time>2013-07-16T09:54:20Z</time>
      </trkpt>
      <trkpt lat="50.668376181274652" lon="6.137277027592063">
        <ele>342.85000000000002</ele>
        <time>2013-07-16T09:54:34Z</time>
      </trkpt>
      <trkpt lat="50.6682407297194" lon="6.137111904099584">
        <ele>343.32999999999998</ele>
        <time>2013-07-16T09:54:47Z</time>
      </trkpt>
      <trkpt lat="50.668055154383183" lon="6.136960526928306">
        <ele>344.29000000000002</ele>
        <time>2013-07-16T09:55:02Z</time>
      </trkpt>
      <trkpt lat="50.667987931519747" lon="6.136903613805771">
        <ele>344.29000000000002</ele>
        <time>2013-07-16T09:55:07Z</time>
      </trkpt>
      <trkpt lat="50.667845522984862" lon="6.136734215542674">
        <ele>345.25</ele>
        <time>2013-07-16T09:55:20Z</time>
      </trkpt>
      <trkpt lat="50.667590545490384" lon="6.136496253311634">
        <ele>346.69</ele>
        <time>2013-07-16T09:55:42Z</time>
      </trkpt>
      <trkpt lat="50.667343949899077" lon="6.136352336034179">
        <ele>348.13</ele>
        <time>2013-07-16T09:56:02Z</time>
      </trkpt>
      <trkpt lat="50.667116800323129" lon="6.136328782886267">
        <ele>350.06</ele>
        <time>2013-07-16T09:56:20Z</time>
      </trkpt>
      <trkpt lat="50.667053936049342" lon="6.136327106505632">
        <ele>350.54000000000002</ele>
        <time>2013-07-16T09:56:25Z</time>
      </trkpt>
      <trkpt lat="50.666806837543845" lon="6.136357113718987">
        <ele>351.5</ele>
        <time>2013-07-16T09:56:44Z</time>
      </trkpt>
      <trkpt lat="50.666557140648365" lon="6.136399609968066">
        <ele>352.94</ele>
        <time>2013-07-16T09:57:04Z</time>
      </trkpt>
      <trkpt lat="50.666356645524502" lon="6.136536151170731">
        <ele>353.42000000000002</ele>
        <time>2013-07-16T09:57:22Z</time>
      </trkpt>
      <trkpt lat="50.666162017732859" lon="6.136698089540005">
        <ele>354.86000000000001</ele>
        <time>2013-07-16T09:57:40Z</time>
      </trkpt>
      <trkpt lat="50.665979878976941" lon="6.136878049001098">
        <ele>355.82999999999998</ele>
        <time>2013-07-16T09:57:56Z</time>
      </trkpt>
      <trkpt lat="50.665816431865096" lon="6.137035628780723">
        <ele>356.79000000000002</ele>
        <time>2013-07-16T09:58:11Z</time>
      </trkpt>
      <trkpt lat="50.665618870407343" lon="6.137208631262183">
        <ele>357.75</ele>
        <time>2013-07-16T09:58:30Z</time>
      </trkpt>
      <trkpt lat="50.665424577891827" lon="6.137375514954329">
        <ele>359.19</ele>
        <time>2013-07-16T09:58:48Z</time>
      </trkpt>
      <trkpt lat="50.665223160758615" lon="6.13756762817502">
        <ele>360.14999999999998</ele>
        <time>2013-07-16T09:59:06Z</time>
      </trkpt>
      <trkpt lat="50.66504655405879" lon="6.137717580422759">
        <ele>361.58999999999997</ele>
        <time>2013-07-16T09:59:22Z</time>
      </trkpt>
      <trkpt lat="50.665003219619393" lon="6.137775667011738">
        <ele>361.58999999999997</ele>
        <time>2013-07-16T09:59:26Z</time>
      </trkpt>
      <trkpt lat="50.664780763909221" lon="6.138004409149289">
        <ele>362.55000000000001</ele>
        <time>2013-07-16T09:59:45Z</time>
      </trkpt>
      <trkpt lat="50.664537353441119" lon="6.138215633109212">
        <ele>362.55000000000001</ele>
        <time>2013-07-16T10:00:06Z</time>
      </trkpt>
      <trkpt lat="50.664320765063167" lon="6.13841931335628">
        <ele>363.04000000000002</ele>
        <time>2013-07-16T10:00:25Z</time>
      </trkpt>
      <trkpt lat="50.664120521396399" lon="6.138426270335913">
        <ele>363.51999999999998</ele>
        <time>2013-07-16T10:00:41Z</time>
      </trkpt>
      <trkpt lat="50.663982219994068" lon="6.138381091877818">
        <ele>363.51999999999998</ele>
        <time>2013-07-16T10:00:53Z</time>
      </trkpt>
      <trkpt lat="50.663956655189395" lon="6.138359634205699">
        <ele>363.51999999999998</ele>
        <time>2013-07-16T10:00:56Z</time>
      </trkpt>
      <trkpt lat="50.663743000477552" lon="6.138375392183662">
        <ele>364</ele>
        <time>2013-07-16T10:01:12Z</time>
      </trkpt>
      <trkpt lat="50.66317462362349" lon="6.138240192085505">
        <ele>362.55000000000001</ele>
        <time>2013-07-16T10:01:30Z</time>
      </trkpt>
      <trkpt lat="50.662643713876605" lon="6.138120666146278">
        <ele>362.06999999999999</ele>
        <time>2013-07-16T10:01:46Z</time>
      </trkpt>
      <trkpt lat="50.662339450791478" lon="6.138060567900538">
        <ele>361.58999999999997</ele>
        <time>2013-07-16T10:01:55Z</time>
      </trkpt>
      <trkpt lat="50.661919433623552" lon="6.137964176014066">
        <ele>361.11000000000001</ele>
        <time>2013-07-16T10:02:07Z</time>
      </trkpt>
      <trkpt lat="50.661429679021239" lon="6.137846410274506">
        <ele>360.14999999999998</ele>
        <time>2013-07-16T10:02:20Z</time>
      </trkpt>
      <trkpt lat="50.660866750404239" lon="6.137730404734612">
        <ele>358.70999999999998</ele>
        <time>2013-07-16T10:02:35Z</time>
      </trkpt>
      <trkpt lat="50.66033030860126" lon="6.137614902108908">
        <ele>358.23000000000002</ele>
        <time>2013-07-16T10:02:50Z</time>
      </trkpt>
      <trkpt lat="50.659875757992268" lon="6.137409042567015">
        <ele>357.75</ele>
        <time>2013-07-16T10:03:04Z</time>
      </trkpt>
      <trkpt lat="50.65967408940196" lon="6.137349279597402">
        <ele>357.75</ele>
        <time>2013-07-16T10:03:16Z</time>
      </trkpt>
      <trkpt lat="50.659456411376595" lon="6.137127662077546">
        <ele>357.75</ele>
        <time>2013-07-16T10:03:34Z</time>
      </trkpt>
      <trkpt lat="50.659284666180611" lon="6.136870421469212">
        <ele>357.75</ele>
        <time>2013-07-16T10:03:52Z</time>
      </trkpt>
      <trkpt lat="50.659162625670433" lon="6.136742765083909">
        <ele>357.75</ele>
        <time>2013-07-16T10:04:06Z</time>
      </trkpt>
      <trkpt lat="50.659154076129198" lon="6.136768832802773">
        <ele>357.26999999999998</ele>
        <time>2013-07-16T10:04:17Z</time>
      </trkpt>
      <trkpt lat="50.659140832722187" lon="6.136768748983741">
        <ele>357.26999999999998</ele>
        <time>2013-07-16T10:04:29Z</time>
      </trkpt>
      <trkpt lat="50.659130271524191" lon="6.136774532496929">
        <ele>357.26999999999998</ele>
        <time>2013-07-16T10:04:46Z</time>
      </trkpt>
      <trkpt lat="50.65912239253521" lon="6.136769084259868">
        <ele>357.26999999999998</ele>
        <time>2013-07-16T10:04:57Z</time>
      </trkpt>
      <trkpt lat="50.659106718376279" lon="6.136789871379733">
        <ele>357.75</ele>
        <time>2013-07-16T10:05:26Z</time>
      </trkpt>
      <trkpt lat="50.659117614850402" lon="6.136865727603436">
        <ele>357.75</ele>
        <time>2013-07-16T10:05:52Z</time>
      </trkpt>
      <trkpt lat="50.659168660640717" lon="6.136848293244839">
        <ele>357.75</ele>
        <time>2013-07-16T10:06:21Z</time>
      </trkpt>
      <trkpt lat="50.659219706431031" lon="6.136771431192756">
        <ele>357.75</ele>
        <time>2013-07-16T10:06:47Z</time>
      </trkpt>
      <trkpt lat="50.659052906557918" lon="6.136624831706286">
        <ele>357.75</ele>
        <time>2013-07-16T10:06:57Z</time>
      </trkpt>
      <trkpt lat="50.658750906586647" lon="6.136328279972076">
        <ele>358.23000000000002</ele>
        <time>2013-07-16T10:07:08Z</time>
      </trkpt>
      <trkpt lat="50.658351425081491" lon="6.135868532583118">
        <ele>358.23000000000002</ele>
        <time>2013-07-16T10:07:21Z</time>
      </trkpt>
      <trkpt lat="50.657905675470829" lon="6.13540006801486">
        <ele>359.19</ele>
        <time>2013-07-16T10:07:36Z</time>
      </trkpt>
      <trkpt lat="50.657429834827781" lon="6.135077951475978">
        <ele>359.67000000000002</ele>
        <time>2013-07-16T10:07:52Z</time>
      </trkpt>
      <trkpt lat="50.656951144337654" lon="6.134923053905368">
        <ele>362.06999999999999</ele>
        <time>2013-07-16T10:08:08Z</time>
      </trkpt>
      <trkpt lat="50.656509753316641" lon="6.134935040026903">
        <ele>363.04000000000002</ele>
        <time>2013-07-16T10:08:24Z</time>
      </trkpt>
      <trkpt lat="50.656139021739364" lon="6.134763043373823">
        <ele>364.48000000000002</ele>
        <time>2013-07-16T10:08:37Z</time>
      </trkpt>
      <trkpt lat="50.655751693993807" lon="6.134476885199547">
        <ele>365.44</ele>
        <time>2013-07-16T10:08:51Z</time>
      </trkpt>
      <trkpt lat="50.655495291575789" lon="6.134049072861671">
        <ele>365.44</ele>
        <time>2013-07-16T10:09:03Z</time>
      </trkpt>
      <trkpt lat="50.655266381800175" lon="6.133494526147842">
        <ele>365.44</ele>
        <time>2013-07-16T10:09:16Z</time>
      </trkpt>
      <trkpt lat="50.655054152011871" lon="6.133086746558547">
        <ele>365.44</ele>
        <time>2013-07-16T10:09:26Z</time>
      </trkpt>
      <trkpt lat="50.654806718230247" lon="6.132581904530525">
        <ele>365.44</ele>
        <time>2013-07-16T10:09:37Z</time>
      </trkpt>
      <trkpt lat="50.654548220336437" lon="6.131988801062107">
        <ele>364</ele>
        <time>2013-07-16T10:09:52Z</time>
      </trkpt>
      <trkpt lat="50.654385443776846" lon="6.131779253482819">
        <ele>364.48000000000002</ele>
        <time>2013-07-16T10:10:08Z</time>
      </trkpt>
      <trkpt lat="50.654291482642293" lon="6.13168747164309">
        <ele>364.48000000000002</ele>
        <time>2013-07-16T10:10:17Z</time>
      </trkpt>
      <trkpt lat="50.65257822163403" lon="6.131325708702207">
        <ele>367.83999999999997</ele>
        <time>2013-07-16T10:11:15Z</time>
      </trkpt>
      <trkpt lat="50.652315532788634" lon="6.131623769178987">
        <ele>369.27999999999997</ele>
        <time>2013-07-16T10:11:25Z</time>
      </trkpt>
      <trkpt lat="50.652015125378966" lon="6.131990812718868">
        <ele>370.73000000000002</ele>
        <time>2013-07-16T10:11:37Z</time>
      </trkpt>
      <trkpt lat="50.651841787621379" lon="6.132128778845072">
        <ele>371.69</ele>
        <time>2013-07-16T10:11:49Z</time>
      </trkpt>
      <trkpt lat="50.6517094373703" lon="6.132274372503161">
        <ele>372.64999999999998</ele>
        <time>2013-07-16T10:12:03Z</time>
      </trkpt>
      <trkpt lat="50.651526292786002" lon="6.132462294772267">
        <ele>373.13</ele>
        <time>2013-07-16T10:12:21Z</time>
      </trkpt>
      <trkpt lat="50.651404419913888" lon="6.132591878995299">
        <ele>374.08999999999997</ele>
        <time>2013-07-16T10:12:32Z</time>
      </trkpt>
      <trkpt lat="50.651385644450784" lon="6.132622137665749">
        <ele>374.08999999999997</ele>
        <time>2013-07-16T10:12:34Z</time>
      </trkpt>
      <trkpt lat="50.651338957250118" lon="6.13261928781867">
        <ele>374.56999999999999</ele>
        <time>2013-07-16T10:13:53Z</time>
      </trkpt>
      <trkpt lat="50.651390170678496" lon="6.132544437423348">
        <ele>374.08999999999997</ele>
        <time>2013-07-16T10:13:59Z</time>
      </trkpt>
      <trkpt lat="50.651477929204702" lon="6.132421558722854">
        <ele>373.61000000000001</ele>
        <time>2013-07-16T10:14:10Z</time>
      </trkpt>
      <trkpt lat="50.651474324986339" lon="6.132386270910502">
        <ele>373.13</ele>
        <time>2013-07-16T10:14:12Z</time>
      </trkpt>
      <trkpt lat="50.651374747976661" lon="6.13212475553155">
        <ele>373.13</ele>
        <time>2013-07-16T10:14:24Z</time>
      </trkpt>
      <trkpt lat="50.651254300028086" lon="6.131893750280142">
        <ele>373.13</ele>
        <time>2013-07-16T10:14:35Z</time>
      </trkpt>
      <trkpt lat="50.651209959760308" lon="6.131732314825058">
        <ele>373.13</ele>
        <time>2013-07-16T10:14:45Z</time>
      </trkpt>
      <trkpt lat="50.6511240452528" lon="6.131574232131243">
        <ele>373.13</ele>
        <time>2013-07-16T10:14:57Z</time>
      </trkpt>
      <trkpt lat="50.65106151625514" lon="6.131444564089179">
        <ele>373.13</ele>
        <time>2013-07-16T10:15:10Z</time>
      </trkpt>
      <trkpt lat="50.651046261191368" lon="6.131422016769648">
        <ele>373.13</ele>
        <time>2013-07-16T10:15:12Z</time>
      </trkpt>
      <trkpt lat="50.650925813242793" lon="6.131200063973665">
        <ele>373.13</ele>
        <time>2013-07-16T10:15:26Z</time>
      </trkpt>
      <trkpt lat="50.650809220969677" lon="6.130877695977688">
        <ele>373.13</ele>
        <time>2013-07-16T10:15:42Z</time>
      </trkpt>
      <trkpt lat="50.650751469656825" lon="6.130718439817429">
        <ele>373.13</ele>
        <time>2013-07-16T10:15:53Z</time>
      </trkpt>
      <trkpt lat="50.65070872195065" lon="6.130648115649819">
        <ele>373.13</ele>
        <time>2013-07-16T10:15:58Z</time>
      </trkpt>
      <trkpt lat="50.650599673390388" lon="6.130398670211434">
        <ele>373.61000000000001</ele>
        <time>2013-07-16T10:16:15Z</time>
      </trkpt>
      <trkpt lat="50.650585005059838" lon="6.130375536158681">
        <ele>373.61000000000001</ele>
        <time>2013-07-16T10:16:17Z</time>
      </trkpt>
      <trkpt lat="50.650439914315939" lon="6.130119636654854">
        <ele>373.61000000000001</ele>
        <time>2013-07-16T10:16:36Z</time>
      </trkpt>
      <trkpt lat="50.65042532980442" lon="6.130113936960697">
        <ele>373.61000000000001</ele>
        <time>2013-07-16T10:16:38Z</time>
      </trkpt>
      <trkpt lat="50.650399178266525" lon="6.130077643319964">
        <ele>373.61000000000001</ele>
        <time>2013-07-16T10:16:41Z</time>
      </trkpt>
      <trkpt lat="50.65035785548389" lon="6.129969349130988">
        <ele>373.61000000000001</ele>
        <time>2013-07-16T10:16:47Z</time>
      </trkpt>
      <trkpt lat="50.650329943746328" lon="6.129910927265883">
        <ele>373.61000000000001</ele>
        <time>2013-07-16T10:16:51Z</time>
      </trkpt>
      <trkpt lat="50.650303037837148" lon="6.129853762686253">
        <ele>373.61000000000001</ele>
        <time>2013-07-16T10:16:56Z</time>
      </trkpt>
      <trkpt lat="50.650224918499589" lon="6.129688136279583">
        <ele>373.61000000000001</ele>
        <time>2013-07-16T10:17:07Z</time>
      </trkpt>
      <trkpt lat="50.650205304846168" lon="6.129597276449204">
        <ele>373.61000000000001</ele>
        <time>2013-07-16T10:17:11Z</time>
      </trkpt>
      <trkpt lat="50.650133974850178" lon="6.129475403577089">
        <ele>373.61000000000001</ele>
        <time>2013-07-16T10:17:18Z</time>
      </trkpt>
      <trkpt lat="50.650006318464875" lon="6.129104252904654">
        <ele>374.08999999999997</ele>
        <time>2013-07-16T10:17:36Z</time>
      </trkpt>
      <trkpt lat="50.649909256026149" lon="6.128852879628539">
        <ele>375.05000000000001</ele>
        <time>2013-07-16T10:17:51Z</time>
      </trkpt>
      <trkpt lat="50.649792412295938" lon="6.128586083650589">
        <ele>375.05000000000001</ele>
        <time>2013-07-16T10:18:08Z</time>
      </trkpt>
      <trkpt lat="50.649674981832504" lon="6.128354743123055">
        <ele>375.52999999999997</ele>
        <time>2013-07-16T10:18:23Z</time>
      </trkpt>
      <trkpt lat="50.649553025141358" lon="6.128110913559794">
        <ele>375.52999999999997</ele>
        <time>2013-07-16T10:18:38Z</time>
      </trkpt>
      <trkpt lat="50.649511199444532" lon="6.128046540543437">
        <ele>375.52999999999997</ele>
        <time>2013-07-16T10:18:49Z</time>
      </trkpt>
      <trkpt lat="50.64948077313602" lon="6.127943024039269">
        <ele>376.00999999999999</ele>
        <time>2013-07-16T10:19:04Z</time>
      </trkpt>
      <trkpt lat="50.649508684873581" lon="6.128010498359799">
        <ele>376.00999999999999</ele>
        <time>2013-07-16T10:19:16Z</time>
      </trkpt>
      <trkpt lat="50.649522682651877" lon="6.128041343763471">
        <ele>376.00999999999999</ele>
        <time>2013-07-16T10:19:29Z</time>
      </trkpt>
      <trkpt lat="50.649451687932014" lon="6.127968756482005">
        <ele>376.00999999999999</ele>
        <time>2013-07-16T10:19:42Z</time>
      </trkpt>
      <trkpt lat="50.649442970752716" lon="6.127964230254293">
        <ele>376.00999999999999</ele>
        <time>2013-07-16T10:19:43Z</time>
      </trkpt>
      <trkpt lat="50.649285893887281" lon="6.128104543313384">
        <ele>376.97000000000003</ele>
        <time>2013-07-16T10:19:55Z</time>
      </trkpt>
      <trkpt lat="50.649003842845559" lon="6.128411656245589">
        <ele>378.89999999999998</ele>
        <time>2013-07-16T10:20:09Z</time>
      </trkpt>
      <trkpt lat="50.648674098774791" lon="6.128778448328376">
        <ele>380.33999999999997</ele>
        <time>2013-07-16T10:20:24Z</time>
      </trkpt>
      <trkpt lat="50.648342510685325" lon="6.129172733053565">
        <ele>382.74000000000001</ele>
        <time>2013-07-16T10:20:38Z</time>
      </trkpt>
      <trkpt lat="50.648116953670979" lon="6.129426956176758">
        <ele>383.69999999999999</ele>
        <time>2013-07-16T10:20:51Z</time>
      </trkpt>
      <trkpt lat="50.647948309779167" lon="6.129610352218151">
        <ele>384.66000000000003</ele>
        <time>2013-07-16T10:21:09Z</time>
      </trkpt>
      <trkpt lat="50.647961050271988" lon="6.129573974758387">
        <ele>385.14999999999998</ele>
        <time>2013-07-16T10:21:12Z</time>
      </trkpt>
      <trkpt lat="50.647973036393523" lon="6.129485042765737">
        <ele>385.14999999999998</ele>
        <time>2013-07-16T10:21:17Z</time>
      </trkpt>
      <trkpt lat="50.647944370284677" lon="6.129359565675259">
        <ele>385.14999999999998</ele>
        <time>2013-07-16T10:21:33Z</time>
      </trkpt>
      <trkpt lat="50.64792450517416" lon="6.129304245114327">
        <ele>385.14999999999998</ele>
        <time>2013-07-16T10:21:52Z</time>
      </trkpt>
      <trkpt lat="50.647867592051625" lon="6.129128644242883">
        <ele>385.14999999999998</ele>
        <time>2013-07-16T10:22:02Z</time>
      </trkpt>
      <trkpt lat="50.647769020870328" lon="6.128747351467609">
        <ele>385.14999999999998</ele>
        <time>2013-07-16T10:22:23Z</time>
      </trkpt>
      <trkpt lat="50.647688051685691" lon="6.128410398960114">
        <ele>385.14999999999998</ele>
        <time>2013-07-16T10:22:40Z</time>
      </trkpt>
      <trkpt lat="50.647646309807897" lon="6.128260362893343">
        <ele>385.14999999999998</ele>
        <time>2013-07-16T10:22:48Z</time>
      </trkpt>
      <trkpt lat="50.647577410563827" lon="6.127984514459968">
        <ele>385.14999999999998</ele>
        <time>2013-07-16T10:23:02Z</time>
      </trkpt>
      <trkpt lat="50.647492753341794" lon="6.127676060423255">
        <ele>385.14999999999998</ele>
        <time>2013-07-16T10:23:19Z</time>
      </trkpt>
      <trkpt lat="50.647422261536121" lon="6.127398870885372">
        <ele>385.14999999999998</ele>
        <time>2013-07-16T10:23:35Z</time>
      </trkpt>
      <trkpt lat="50.64741781912744" lon="6.127383196726441">
        <ele>385.14999999999998</ele>
        <time>2013-07-16T10:23:36Z</time>
      </trkpt>
      <trkpt lat="50.647407090291381" lon="6.127340281382203">
        <ele>385.14999999999998</ele>
        <time>2013-07-16T10:23:39Z</time>
      </trkpt>
      <trkpt lat="50.647317655384541" lon="6.127021936699748">
        <ele>383.69999999999999</ele>
        <time>2013-07-16T10:23:57Z</time>
      </trkpt>
      <trkpt lat="50.647257473319769" lon="6.126732090488076">
        <ele>383.22000000000003</ele>
        <time>2013-07-16T10:24:12Z</time>
      </trkpt>
      <trkpt lat="50.647172732278705" lon="6.1264234688133">
        <ele>383.22000000000003</ele>
        <time>2013-07-16T10:24:29Z</time>
      </trkpt>
      <trkpt lat="50.647107101976871" lon="6.126116942614317">
        <ele>383.22000000000003</ele>
        <time>2013-07-16T10:24:45Z</time>
      </trkpt>
      <trkpt lat="50.647035017609596" lon="6.125788036733866">
        <ele>382.74000000000001</ele>
        <time>2013-07-16T10:25:02Z</time>
      </trkpt>
      <trkpt lat="50.646964944899082" lon="6.125450078397989">
        <ele>381.77999999999997</ele>
        <time>2013-07-16T10:25:19Z</time>
      </trkpt>
      <trkpt lat="50.64690132625401" lon="6.125278333202004">
        <ele>381.77999999999997</ele>
        <time>2013-07-16T10:25:33Z</time>
      </trkpt>
      <trkpt lat="50.646868050098419" lon="6.12529325298965">
        <ele>381.77999999999997</ele>
        <time>2013-07-16T10:25:37Z</time>
      </trkpt>
      <trkpt lat="50.646835444495082" lon="6.12531621940434">
        <ele>381.77999999999997</ele>
        <time>2013-07-16T10:25:40Z</time>
      </trkpt>
      <trkpt lat="50.646701082587242" lon="6.125522330403328">
        <ele>381.77999999999997</ele>
        <time>2013-07-16T10:25:55Z</time>
      </trkpt>
      <trkpt lat="50.646551717072725" lon="6.125679910182953">
        <ele>381.77999999999997</ele>
        <time>2013-07-16T10:26:10Z</time>
      </trkpt>
      <trkpt lat="50.646459851413965" lon="6.125807818025351">
        <ele>381.77999999999997</ele>
        <time>2013-07-16T10:26:22Z</time>
      </trkpt>
      <trkpt lat="50.64632230438292" lon="6.12597830593586">
        <ele>383.22000000000003</ele>
        <time>2013-07-16T10:26:38Z</time>
      </trkpt>
      <trkpt lat="50.646158186718822" lon="6.126094982028008">
        <ele>383.69999999999999</ele>
        <time>2013-07-16T10:26:52Z</time>
      </trkpt>
      <trkpt lat="50.646011251956224" lon="6.126252897083759">
        <ele>383.69999999999999</ele>
        <time>2013-07-16T10:27:07Z</time>
      </trkpt>
      <trkpt lat="50.64588543958962" lon="6.126367226243019">
        <ele>384.18000000000001</ele>
        <time>2013-07-16T10:27:20Z</time>
      </trkpt>
      <trkpt lat="50.645691733807325" lon="6.126536540687084">
        <ele>384.66000000000003</ele>
        <time>2013-07-16T10:27:35Z</time>
      </trkpt>
      <trkpt lat="50.645632976666093" lon="6.126540899276733">
        <ele>385.63</ele>
        <time>2013-07-16T10:27:39Z</time>
      </trkpt>
      <trkpt lat="50.645570447668433" lon="6.126583814620972">
        <ele>386.11000000000001</ele>
        <time>2013-07-16T10:27:45Z</time>
      </trkpt>
      <trkpt lat="50.645496770739555" lon="6.12664139829576">
        <ele>386.11000000000001</ele>
        <time>2013-07-16T10:27:52Z</time>
      </trkpt>
      <trkpt lat="50.645361822098494" lon="6.126769809052348">
        <ele>386.58999999999997</ele>
        <time>2013-07-16T10:28:06Z</time>
      </trkpt>
      <trkpt lat="50.645247492939234" lon="6.126947421580553">
        <ele>388.02999999999997</ele>
        <time>2013-07-16T10:28:22Z</time>
      </trkpt>
      <trkpt lat="50.645069545134902" lon="6.127094523981214">
        <ele>388.99000000000001</ele>
        <time>2013-07-16T10:28:37Z</time>
      </trkpt>
      <trkpt lat="50.644926968961954" lon="6.127214217558503">
        <ele>390.43000000000001</ele>
        <time>2013-07-16T10:28:51Z</time>
      </trkpt>
      <trkpt lat="50.64480802975595" lon="6.1273577157408">
        <ele>391.38999999999999</ele>
        <time>2013-07-16T10:29:06Z</time>
      </trkpt>
      <trkpt lat="50.644693616777658" lon="6.12743248231709">
        <ele>391.87</ele>
        <time>2013-07-16T10:29:19Z</time>
      </trkpt>
      <trkpt lat="50.644504353404045" lon="6.127592409029603">
        <ele>393.31999999999999</ele>
        <time>2013-07-16T10:29:28Z</time>
      </trkpt>
      <trkpt lat="50.644302014261484" lon="6.127827689051628">
        <ele>394.27999999999997</ele>
        <time>2013-07-16T10:29:39Z</time>
      </trkpt>
      <trkpt lat="50.644064638763666" lon="6.128075877204537">
        <ele>395.24000000000001</ele>
        <time>2013-07-16T10:29:51Z</time>
      </trkpt>
      <trkpt lat="50.643776217475533" lon="6.12839606590569">
        <ele>396.68000000000001</ele>
        <time>2013-07-16T10:30:03Z</time>
      </trkpt>
      <trkpt lat="50.643605059012771" lon="6.128517603501678">
        <ele>397.63999999999999</ele>
        <time>2013-07-16T10:30:10Z</time>
      </trkpt>
      <trkpt lat="50.643551163375378" lon="6.128599243238568">
        <ele>398.12</ele>
        <time>2013-07-16T10:30:13Z</time>
      </trkpt>
      <trkpt lat="50.643449909985065" lon="6.128699574619532">
        <ele>399.56999999999999</ele>
        <time>2013-07-16T10:30:17Z</time>
      </trkpt>
      <trkpt lat="50.643226029351354" lon="6.128944242373109">
        <ele>402.93000000000001</ele>
        <time>2013-07-16T10:30:29Z</time>
      </trkpt>
      <trkpt lat="50.643061408773065" lon="6.129116909578443">
        <ele>405.81</ele>
        <time>2013-07-16T10:30:45Z</time>
      </trkpt>
      <trkpt lat="50.643004328012466" lon="6.129156975075603">
        <ele>406.29000000000002</ele>
        <time>2013-07-16T10:30:49Z</time>
      </trkpt>
      <trkpt lat="50.642851609736681" lon="6.12928781658411">
        <ele>407.74000000000001</ele>
        <time>2013-07-16T10:31:03Z</time>
      </trkpt>
      <trkpt lat="50.642841216176748" lon="6.129296449944377">
        <ele>407.74000000000001</ele>
        <time>2013-07-16T10:31:04Z</time>
      </trkpt>
      <trkpt lat="50.642727054655552" lon="6.129415975883603">
        <ele>409.66000000000003</ele>
        <time>2013-07-16T10:31:20Z</time>
      </trkpt>
      <trkpt lat="50.642593279480934" lon="6.129523012787104">
        <ele>411.10000000000002</ele>
        <time>2013-07-16T10:31:32Z</time>
      </trkpt>
      <trkpt lat="50.642588250339031" lon="6.129532316699624">
        <ele>411.10000000000002</ele>
        <time>2013-07-16T10:31:33Z</time>
      </trkpt>
      <trkpt lat="50.64257400110364" lon="6.129558803513646">
        <ele>411.57999999999998</ele>
        <time>2013-07-16T10:31:35Z</time>
      </trkpt>
      <trkpt lat="50.642545837908983" lon="6.129591325297952">
        <ele>412.06</ele>
        <time>2013-07-16T10:31:38Z</time>
      </trkpt>
      <trkpt lat="50.642462689429522" lon="6.129635665565729">
        <ele>412.06</ele>
        <time>2013-07-16T10:31:44Z</time>
      </trkpt>
      <trkpt lat="50.642434861510992" lon="6.12965720705688">
        <ele>412.54000000000002</ele>
        <time>2013-07-16T10:31:46Z</time>
      </trkpt>
      <trkpt lat="50.64223688095808" lon="6.129784444347024">
        <ele>413.5</ele>
        <time>2013-07-16T10:32:00Z</time>
      </trkpt>
      <trkpt lat="50.642071589827538" lon="6.129907490685582">
        <ele>414.94999999999999</ele>
        <time>2013-07-16T10:32:17Z</time>
      </trkpt>
      <trkpt lat="50.641901521012187" lon="6.130021065473557">
        <ele>415.43000000000001</ele>
        <time>2013-07-16T10:32:33Z</time>
      </trkpt>
      <trkpt lat="50.641760202124715" lon="6.130200354382396">
        <ele>415.91000000000003</ele>
        <time>2013-07-16T10:32:47Z</time>
      </trkpt>
      <trkpt lat="50.641722483560443" lon="6.130266906693578">
        <ele>416.87</ele>
        <time>2013-07-16T10:32:52Z</time>
      </trkpt>
      <trkpt lat="50.641692476347089" lon="6.130308397114277">
        <ele>416.87</ele>
        <time>2013-07-16T10:32:55Z</time>
      </trkpt>
      <trkpt lat="50.641521569341421" lon="6.130441082641482">
        <ele>418.31</ele>
        <time>2013-07-16T10:33:10Z</time>
      </trkpt>
      <trkpt lat="50.641436241567135" lon="6.130540575832129">
        <ele>418.31</ele>
        <time>2013-07-16T10:33:19Z</time>
      </trkpt>
      <trkpt lat="50.641281679272652" lon="6.130709806457162">
        <ele>418.31</ele>
        <time>2013-07-16T10:33:35Z</time>
      </trkpt>
      <trkpt lat="50.641089314594865" lon="6.130876690149307">
        <ele>419.75</ele>
        <time>2013-07-16T10:33:53Z</time>
      </trkpt>
      <trkpt lat="50.64095419831574" lon="6.131047010421753">
        <ele>420.23000000000002</ele>
        <time>2013-07-16T10:34:06Z</time>
      </trkpt>
      <trkpt lat="50.640776501968503" lon="6.131184473633766">
        <ele>420.70999999999998</ele>
        <time>2013-07-16T10:34:21Z</time>
      </trkpt>
      <trkpt lat="50.640622358769178" lon="6.131324032321572">
        <ele>421.19</ele>
        <time>2013-07-16T10:34:35Z</time>
      </trkpt>
      <trkpt lat="50.640458576381207" lon="6.131391674280167">
        <ele>421.19</ele>
        <time>2013-07-16T10:34:50Z</time>
      </trkpt>
      <trkpt lat="50.640340810641646" lon="6.131429560482502">
        <ele>421.19</ele>
        <time>2013-07-16T10:35:05Z</time>
      </trkpt>
      <trkpt lat="50.640168897807598" lon="6.131472140550613">
        <ele>421.19</ele>
        <time>2013-07-16T10:35:21Z</time>
      </trkpt>
      <trkpt lat="50.640031518414617" lon="6.131598204374313">
        <ele>421.19</ele>
        <time>2013-07-16T10:35:35Z</time>
      </trkpt>
      <trkpt lat="50.639972174540162" lon="6.131639527156949">
        <ele>421.68000000000001</ele>
        <time>2013-07-16T10:35:51Z</time>
      </trkpt>
      <trkpt lat="50.639932528138161" lon="6.131721083074808">
        <ele>421.68000000000001</ele>
        <time>2013-07-16T10:36:05Z</time>
      </trkpt>
      <trkpt lat="50.639962200075388" lon="6.131722927093506">
        <ele>420.70999999999998</ele>
        <time>2013-07-16T10:36:31Z</time>
      </trkpt>
      <trkpt lat="50.639942502602935" lon="6.131728878244758">
        <ele>420.23000000000002</ele>
        <time>2013-07-16T10:36:52Z</time>
      </trkpt>
      <trkpt lat="50.639949711039662" lon="6.131697110831738">
        <ele>420.23000000000002</ele>
        <time>2013-07-16T10:37:04Z</time>
      </trkpt>
      <trkpt lat="50.63993495889008" lon="6.131544979289174">
        <ele>420.23000000000002</ele>
        <time>2013-07-16T10:37:16Z</time>
      </trkpt>
      <trkpt lat="50.639913585036993" lon="6.131503488868475">
        <ele>420.23000000000002</ele>
        <time>2013-07-16T10:37:19Z</time>
      </trkpt>
      <trkpt lat="50.639808559790254" lon="6.13126527518034">
        <ele>419.75</ele>
        <time>2013-07-16T10:37:34Z</time>
      </trkpt>
      <trkpt lat="50.639688782393932" lon="6.131077436730266">
        <ele>419.75</ele>
        <time>2013-07-16T10:37:47Z</time>
      </trkpt>
      <trkpt lat="50.63955819234252" lon="6.130869816988707">
        <ele>419.26999999999998</ele>
        <time>2013-07-16T10:38:02Z</time>
      </trkpt>
      <trkpt lat="50.639499351382256" lon="6.130692875012755">
        <ele>419.26999999999998</ele>
        <time>2013-07-16T10:38:13Z</time>
      </trkpt>
      <trkpt lat="50.639520389959216" lon="6.130511574447155">
        <ele>419.26999999999998</ele>
        <time>2013-07-16T10:38:25Z</time>
      </trkpt>
      <trkpt lat="50.639404049143195" lon="6.130368243902922">
        <ele>418.79000000000002</ele>
        <time>2013-07-16T10:38:39Z</time>
      </trkpt>
      <trkpt lat="50.639397008344531" lon="6.130359945818782">
        <ele>418.79000000000002</ele>
        <time>2013-07-16T10:38:40Z</time>
      </trkpt>
      <trkpt lat="50.639293324202299" lon="6.130224410444498">
        <ele>418.31</ele>
        <time>2013-07-16T10:38:53Z</time>
      </trkpt>
      <trkpt lat="50.639256862923503" lon="6.130173280835152">
        <ele>418.31</ele>
        <time>2013-07-16T10:38:58Z</time>
      </trkpt>
      <trkpt lat="50.639193076640368" lon="6.130031375214458">
        <ele>417.82999999999998</ele>
        <time>2013-07-16T10:39:12Z</time>
      </trkpt>
      <trkpt lat="50.639145886525512" lon="6.130026346072555">
        <ele>417.82999999999998</ele>
        <time>2013-07-16T10:39:17Z</time>
      </trkpt>
      <trkpt lat="50.639014123007655" lon="6.130171269178391">
        <ele>417.35000000000002</ele>
        <time>2013-07-16T10:39:32Z</time>
      </trkpt>
      <trkpt lat="50.638973722234368" lon="6.130207311362028">
        <ele>417.35000000000002</ele>
        <time>2013-07-16T10:39:36Z</time>
      </trkpt>
      <trkpt lat="50.6389254424721" lon="6.130212089046836">
        <ele>417.35000000000002</ele>
        <time>2013-07-16T10:39:40Z</time>
      </trkpt>
      <trkpt lat="50.6388443056494" lon="6.130273444578052">
        <ele>417.35000000000002</ele>
        <time>2013-07-16T10:39:49Z</time>
      </trkpt>
      <trkpt lat="50.638763001188636" lon="6.130411243066192">
        <ele>417.35000000000002</ele>
        <time>2013-07-16T10:40:00Z</time>
      </trkpt>
      <trkpt lat="50.638608103618026" lon="6.130496235564351">
        <ele>417.35000000000002</ele>
        <time>2013-07-16T10:40:14Z</time>
      </trkpt>
      <trkpt lat="50.638490002602339" lon="6.130586341023445">
        <ele>417.35000000000002</ele>
        <time>2013-07-16T10:40:25Z</time>
      </trkpt>
      <trkpt lat="50.638347594067454" lon="6.130693964660168">
        <ele>416.87</ele>
        <time>2013-07-16T10:40:40Z</time>
      </trkpt>
      <trkpt lat="50.638208370655775" lon="6.130804186686873">
        <ele>416.38999999999999</ele>
        <time>2013-07-16T10:40:54Z</time>
      </trkpt>
      <trkpt lat="50.638080295175314" lon="6.13087928853929">
        <ele>415.91000000000003</ele>
        <time>2013-07-16T10:41:09Z</time>
      </trkpt>
      <trkpt lat="50.637993877753615" lon="6.13092957995832">
        <ele>415.43000000000001</ele>
        <time>2013-07-16T10:41:20Z</time>
      </trkpt>
      <trkpt lat="50.637950794771314" lon="6.130937626585364">
        <ele>415.43000000000001</ele>
        <time>2013-07-16T10:41:25Z</time>
      </trkpt>
      <trkpt lat="50.637851553037763" lon="6.131021613255143">
        <ele>414.94999999999999</ele>
        <time>2013-07-16T10:41:38Z</time>
      </trkpt>
      <trkpt lat="50.637812493368983" lon="6.131078191101551">
        <ele>414.94999999999999</ele>
        <time>2013-07-16T10:41:44Z</time>
      </trkpt>
      <trkpt lat="50.637724231928587" lon="6.131234178319573">
        <ele>414.94999999999999</ele>
        <time>2013-07-16T10:41:58Z</time>
      </trkpt>
      <trkpt lat="50.637684669345617" lon="6.131263179704547">
        <ele>414.94999999999999</ele>
        <time>2013-07-16T10:42:02Z</time>
      </trkpt>
      <trkpt lat="50.637559192255139" lon="6.131394188851118">
        <ele>414.47000000000003</ele>
        <time>2013-07-16T10:42:17Z</time>
      </trkpt>
      <trkpt lat="50.637495322152972" lon="6.131453029811382">
        <ele>413.98000000000002</ele>
        <time>2013-07-16T10:42:24Z</time>
      </trkpt>
      <trkpt lat="50.637429105117917" lon="6.131504410877824">
        <ele>413.98000000000002</ele>
        <time>2013-07-16T10:42:31Z</time>
      </trkpt>
      <trkpt lat="50.637401361018419" lon="6.13153207115829">
        <ele>413.5</ele>
        <time>2013-07-16T10:42:34Z</time>
      </trkpt>
      <trkpt lat="50.637260125949979" lon="6.131622176617384">
        <ele>413.5</ele>
        <time>2013-07-16T10:42:50Z</time>
      </trkpt>
      <trkpt lat="50.637233639135957" lon="6.131661906838417">
        <ele>413.01999999999998</ele>
        <time>2013-07-16T10:43:02Z</time>
      </trkpt>
      <trkpt lat="50.637237662449479" lon="6.131642041727901">
        <ele>413.01999999999998</ele>
        <time>2013-07-16T10:43:23Z</time>
      </trkpt>
      <trkpt lat="50.637244284152985" lon="6.131649166345596">
        <ele>413.01999999999998</ele>
        <time>2013-07-16T10:43:44Z</time>
      </trkpt>
      <trkpt lat="50.637237997725606" lon="6.131675569340587">
        <ele>413.01999999999998</ele>
        <time>2013-07-16T10:44:06Z</time>
      </trkpt>
      <trkpt lat="50.637228526175022" lon="6.131679257377982">
        <ele>412.54000000000002</ele>
        <time>2013-07-16T10:44:15Z</time>
      </trkpt>
      <trkpt lat="50.637206062674522" lon="6.131711024791002">
        <ele>412.06</ele>
        <time>2013-07-16T10:44:22Z</time>
      </trkpt>
      <trkpt lat="50.637162895873189" lon="6.131704151630402">
        <ele>412.06</ele>
        <time>2013-07-16T10:44:31Z</time>
      </trkpt>
      <trkpt lat="50.637091062963009" lon="6.131765423342586">
        <ele>412.06</ele>
        <time>2013-07-16T10:44:39Z</time>
      </trkpt>
      <trkpt lat="50.637060720473528" lon="6.131815547123551">
        <ele>412.06</ele>
        <time>2013-07-16T10:44:44Z</time>
      </trkpt>
      <trkpt lat="50.637041023001075" lon="6.131828119978309">
        <ele>412.06</ele>
        <time>2013-07-16T10:44:48Z</time>
      </trkpt>
      <trkpt lat="50.637019565328956" lon="6.131851505488157">
        <ele>412.06</ele>
        <time>2013-07-16T10:44:51Z</time>
      </trkpt>
      <trkpt lat="50.636990396305919" lon="6.131859552115202">
        <ele>412.06</ele>
        <time>2013-07-16T10:44:54Z</time>
      </trkpt>
      <trkpt lat="50.636953767389059" lon="6.131882183253765">
        <ele>412.06</ele>
        <time>2013-07-16T10:44:59Z</time>
      </trkpt>
      <trkpt lat="50.636855950579047" lon="6.13194152712822">
        <ele>412.06</ele>
        <time>2013-07-16T10:45:08Z</time>
      </trkpt>
      <trkpt lat="50.636840527877212" lon="6.131948567926884">
        <ele>412.06</ele>
        <time>2013-07-16T10:45:10Z</time>
      </trkpt>
      <trkpt lat="50.636786967515945" lon="6.132012689486146">
        <ele>412.06</ele>
        <time>2013-07-16T10:45:16Z</time>
      </trkpt>
      <trkpt lat="50.636769365519285" lon="6.132048731669784">
        <ele>412.06</ele>
        <time>2013-07-16T10:45:19Z</time>
      </trkpt>
      <trkpt lat="50.636679176241159" lon="6.13210036419332">
        <ele>412.54000000000002</ele>
        <time>2013-07-16T10:45:28Z</time>
      </trkpt>
      <trkpt lat="50.636669201776385" lon="6.132115535438061">
        <ele>412.54000000000002</ele>
        <time>2013-07-16T10:45:30Z</time>
      </trkpt>
      <trkpt lat="50.636639781296253" lon="6.132120229303837">
        <ele>412.54000000000002</ele>
        <time>2013-07-16T10:45:33Z</time>
      </trkpt>
      <trkpt lat="50.636579263955355" lon="6.132140178233385">
        <ele>412.54000000000002</ele>
        <time>2013-07-16T10:45:42Z</time>
      </trkpt>
      <trkpt lat="50.636523189023137" lon="6.132201030850411">
        <ele>412.54000000000002</ele>
        <time>2013-07-16T10:45:50Z</time>
      </trkpt>
      <trkpt lat="50.636506676673889" lon="6.132212346419692">
        <ele>412.54000000000002</ele>
        <time>2013-07-16T10:45:53Z</time>
      </trkpt>
      <trkpt lat="50.636485638096929" lon="6.132228607311845">
        <ele>412.54000000000002</ele>
        <time>2013-07-16T10:45:55Z</time>
      </trkpt>
      <trkpt lat="50.636467533186078" lon="6.132259955629706">
        <ele>412.54000000000002</ele>
        <time>2013-07-16T10:46:00Z</time>
      </trkpt>
      <trkpt lat="50.63641045242548" lon="6.132320892065764">
        <ele>412.54000000000002</ele>
        <time>2013-07-16T10:46:08Z</time>
      </trkpt>
      <trkpt lat="50.636349935084581" lon="6.132325083017349">
        <ele>412.54000000000002</ele>
        <time>2013-07-16T10:46:16Z</time>
      </trkpt>
      <trkpt lat="50.636312048882246" lon="6.132419630885124">
        <ele>412.54000000000002</ele>
        <time>2013-07-16T10:46:24Z</time>
      </trkpt>
      <trkpt lat="50.636228984221816" lon="6.132492050528526">
        <ele>412.54000000000002</ele>
        <time>2013-07-16T10:46:34Z</time>
      </trkpt>
      <trkpt lat="50.636193612590432" lon="6.132524739950895">
        <ele>412.54000000000002</ele>
        <time>2013-07-16T10:46:38Z</time>
      </trkpt>
      <trkpt lat="50.636138711124659" lon="6.132555669173598">
        <ele>412.54000000000002</ele>
        <time>2013-07-16T10:46:44Z</time>
      </trkpt>
      <trkpt lat="50.636096633970737" lon="6.132544437423348">
        <ele>412.54000000000002</ele>
        <time>2013-07-16T10:46:49Z</time>
      </trkpt>
      <trkpt lat="50.636076098307967" lon="6.132612498477101">
        <ele>412.54000000000002</ele>
        <time>2013-07-16T10:46:58Z</time>
      </trkpt>
      <trkpt lat="50.636068554595113" lon="6.132606966421008">
        <ele>412.54000000000002</ele>
        <time>2013-07-16T10:47:06Z</time>
      </trkpt>
      <trkpt lat="50.6359828915447" lon="6.132666310295463">
        <ele>412.54000000000002</ele>
        <time>2013-07-16T10:47:15Z</time>
      </trkpt>
      <trkpt lat="50.635960092768073" lon="6.132677542045713">
        <ele>412.54000000000002</ele>
        <time>2013-07-16T10:47:18Z</time>
      </trkpt>
      <trkpt lat="50.635924888774753" lon="6.132749039679766">
        <ele>412.54000000000002</ele>
        <time>2013-07-16T10:47:24Z</time>
      </trkpt>
      <trkpt lat="50.635899743065238" lon="6.132766557857394">
        <ele>412.54000000000002</ele>
        <time>2013-07-16T10:47:27Z</time>
      </trkpt>
      <trkpt lat="50.635872920975089" lon="6.132800839841366">
        <ele>412.54000000000002</ele>
        <time>2013-07-16T10:47:30Z</time>
      </trkpt>
      <trkpt lat="50.635860683396459" lon="6.132827745750547">
        <ele>412.54000000000002</ele>
        <time>2013-07-16T10:47:32Z</time>
      </trkpt>
      <trkpt lat="50.635743169113994" lon="6.132904440164566">
        <ele>412.54000000000002</ele>
        <time>2013-07-16T10:47:46Z</time>
      </trkpt>
      <trkpt lat="50.635733865201473" lon="6.132915588095784">
        <ele>412.54000000000002</ele>
        <time>2013-07-16T10:47:48Z</time>
      </trkpt>
      <trkpt lat="50.635701175779104" lon="6.132982475683093">
        <ele>412.54000000000002</ele>
        <time>2013-07-16T10:47:54Z</time>
      </trkpt>
      <trkpt lat="50.635554743930697" lon="6.133094457909465">
        <ele>412.54000000000002</ele>
        <time>2013-07-16T10:48:08Z</time>
      </trkpt>
      <trkpt lat="50.63552507199347" lon="6.133062019944191">
        <ele>412.54000000000002</ele>
        <time>2013-07-16T10:48:19Z</time>
      </trkpt>
      <trkpt lat="50.635522725060582" lon="6.133066629990935">
        <ele>412.54000000000002</ele>
        <time>2013-07-16T10:48:20Z</time>
      </trkpt>
      <trkpt lat="50.635378807783127" lon="6.133182467892766">
        <ele>412.54000000000002</ele>
        <time>2013-07-16T10:48:39Z</time>
      </trkpt>
      <trkpt lat="50.635279314592481" lon="6.133273830637336">
        <ele>412.54000000000002</ele>
        <time>2013-07-16T10:48:53Z</time>
      </trkpt>
      <trkpt lat="50.635225251317024" lon="6.133323200047016">
        <ele>412.54000000000002</ele>
        <time>2013-07-16T10:49:01Z</time>
      </trkpt>
      <trkpt lat="50.635188035666943" lon="6.133306520059705">
        <ele>412.54000000000002</ele>
        <time>2013-07-16T10:49:06Z</time>
      </trkpt>
      <trkpt lat="50.63517521135509" lon="6.133323954418302">
        <ele>413.5</ele>
        <time>2013-07-16T10:49:32Z</time>
      </trkpt>
      <trkpt lat="50.635148389264941" lon="6.13335806876421">
        <ele>413.5</ele>
        <time>2013-07-16T10:49:49Z</time>
      </trkpt>
      <trkpt lat="50.635151658207178" lon="6.133393859490752">
        <ele>413.5</ele>
        <time>2013-07-16T10:51:19Z</time>
      </trkpt>
      <trkpt lat="50.635132882744074" lon="6.133408024907112">
        <ele>413.5</ele>
        <time>2013-07-16T10:51:21Z</time>
      </trkpt>
      <trkpt lat="50.635049231350422" lon="6.133472733199596">
        <ele>413.98000000000002</ele>
        <time>2013-07-16T10:51:32Z</time>
      </trkpt>
      <trkpt lat="50.63496214337647" lon="6.133568119257689">
        <ele>413.98000000000002</ele>
        <time>2013-07-16T10:51:46Z</time>
      </trkpt>
      <trkpt lat="50.634910678490996" lon="6.133590331301093">
        <ele>413.98000000000002</ele>
        <time>2013-07-16T10:51:51Z</time>
      </trkpt>
      <trkpt lat="50.634883772581816" lon="6.133639868348837">
        <ele>413.98000000000002</ele>
        <time>2013-07-16T10:51:55Z</time>
      </trkpt>
      <trkpt lat="50.634832978248596" lon="6.133716311305761">
        <ele>413.98000000000002</ele>
        <time>2013-07-16T10:52:03Z</time>
      </trkpt>
      <trkpt lat="50.634723007678986" lon="6.13374556414783">
        <ele>413.98000000000002</ele>
        <time>2013-07-16T10:52:16Z</time>
      </trkpt>
      <trkpt lat="50.634622676298022" lon="6.133895767852664">
        <ele>414.47000000000003</ele>
        <time>2013-07-16T10:52:31Z</time>
      </trkpt>
      <trkpt lat="50.634614881128073" lon="6.133902305737138">
        <ele>413.98000000000002</ele>
        <time>2013-07-16T10:52:32Z</time>
      </trkpt>
      <trkpt lat="50.634544724598527" lon="6.133921416476369">
        <ele>413.01999999999998</ele>
        <time>2013-07-16T10:52:40Z</time>
      </trkpt>
      <trkpt lat="50.634498121216893" lon="6.133996769785881">
        <ele>413.01999999999998</ele>
        <time>2013-07-16T10:52:57Z</time>
      </trkpt>
      <trkpt lat="50.634486805647612" lon="6.134028118103743">
        <ele>413.01999999999998</ele>
        <time>2013-07-16T10:53:03Z</time>
      </trkpt>
      <trkpt lat="50.63435286283493" lon="6.134106572717428">
        <ele>412.54000000000002</ele>
        <time>2013-07-16T10:53:17Z</time>
      </trkpt>
      <trkpt lat="50.634233923628926" lon="6.134230121970177">
        <ele>412.06</ele>
        <time>2013-07-16T10:53:32Z</time>
      </trkpt>
      <trkpt lat="50.634236186742783" lon="6.134262559935451">
        <ele>412.06</ele>
        <time>2013-07-16T10:53:34Z</time>
      </trkpt>
      <trkpt lat="50.634263511747122" lon="6.134355012327433">
        <ele>412.54000000000002</ele>
        <time>2013-07-16T10:53:47Z</time>
      </trkpt>
      <trkpt lat="50.634282622486353" lon="6.134336069226265">
        <ele>412.54000000000002</ele>
        <time>2013-07-16T10:53:58Z</time>
      </trkpt>
      <trkpt lat="50.634301146492362" lon="6.134527008980513">
        <ele>414.47000000000003</ele>
        <time>2013-07-16T10:55:25Z</time>
      </trkpt>
      <trkpt lat="50.634287651628256" lon="6.134500270709395">
        <ele>413.5</ele>
        <time>2013-07-16T10:55:27Z</time>
      </trkpt>
      <trkpt lat="50.634165359660983" lon="6.134354509413242">
        <ele>413.01999999999998</ele>
        <time>2013-07-16T10:55:42Z</time>
      </trkpt>
      <trkpt lat="50.634078942239285" lon="6.134182764217258">
        <ele>413.01999999999998</ele>
        <time>2013-07-16T10:55:55Z</time>
      </trkpt>
      <trkpt lat="50.634021693840623" lon="6.134002888575196">
        <ele>412.54000000000002</ele>
        <time>2013-07-16T10:56:07Z</time>
      </trkpt>
      <trkpt lat="50.633886829018593" lon="6.133727207779884">
        <ele>412.06</ele>
        <time>2013-07-16T10:56:25Z</time>
      </trkpt>
      <trkpt lat="50.633783731609583" lon="6.133544985204935">
        <ele>411.57999999999998</ele>
        <time>2013-07-16T10:56:39Z</time>
      </trkpt>
      <trkpt lat="50.633638221770525" lon="6.133316662162542">
        <ele>411.10000000000002</ele>
        <time>2013-07-16T10:56:54Z</time>
      </trkpt>
      <trkpt lat="50.633535543456674" lon="6.133164698258042">
        <ele>410.62</ele>
        <time>2013-07-16T10:57:10Z</time>
      </trkpt>
      <trkpt lat="50.633412832394242" lon="6.132948026061058">
        <ele>410.13999999999999</ele>
        <time>2013-07-16T10:57:24Z</time>
      </trkpt>
      <trkpt lat="50.633310908451676" lon="6.132753482088447">
        <ele>409.18000000000001</ele>
        <time>2013-07-16T10:57:39Z</time>
      </trkpt>
      <trkpt lat="50.633197752758861" lon="6.132496073842049">
        <ele>408.69999999999999</ele>
        <time>2013-07-16T10:57:53Z</time>
      </trkpt>
      <trkpt lat="50.633117286488414" lon="6.132095837965608">
        <ele>407.25999999999999</ele>
        <time>2013-07-16T10:58:09Z</time>
      </trkpt>
      <trkpt lat="50.633090129122138" lon="6.131783947348595">
        <ele>405.81</ele>
        <time>2013-07-16T10:58:23Z</time>
      </trkpt>
      <trkpt lat="50.633079735562205" lon="6.131589487195015">
        <ele>404.85000000000002</ele>
        <time>2013-07-16T10:58:35Z</time>
      </trkpt>
      <trkpt lat="50.633042100816965" lon="6.131583284586668">
        <ele>404.37</ele>
        <time>2013-07-16T10:58:40Z</time>
      </trkpt>
      <trkpt lat="50.633002119138837" lon="6.131691914051771">
        <ele>403.41000000000003</ele>
        <time>2013-07-16T10:58:52Z</time>
      </trkpt>
      <trkpt lat="50.632925508543849" lon="6.131811356171966">
        <ele>402.44999999999999</ele>
        <time>2013-07-16T10:59:03Z</time>
      </trkpt>
      <trkpt lat="50.632820818573236" lon="6.131928954273462">
        <ele>401.97000000000003</ele>
        <time>2013-07-16T10:59:15Z</time>
      </trkpt>
      <trkpt lat="50.632802378386259" lon="6.131962230429053">
        <ele>401.49000000000001</ele>
        <time>2013-07-16T10:59:19Z</time>
      </trkpt>
      <trkpt lat="50.63267782330513" lon="6.132164150476456">
        <ele>400.05000000000001</ele>
        <time>2013-07-16T10:59:36Z</time>
      </trkpt>
      <trkpt lat="50.632569780573249" lon="6.13231142051518">
        <ele>399.07999999999998</ele>
        <time>2013-07-16T10:59:49Z</time>
      </trkpt>
      <trkpt lat="50.632535917684436" lon="6.132349474355578">
        <ele>398.60000000000002</ele>
        <time>2013-07-16T10:59:53Z</time>
      </trkpt>
      <trkpt lat="50.632454194128513" lon="6.132425498217344">
        <ele>398.60000000000002</ele>
        <time>2013-07-16T10:59:58Z</time>
      </trkpt>
      <trkpt lat="50.632415385916829" lon="6.132467156276107">
        <ele>398.60000000000002</ele>
        <time>2013-07-16T11:00:00Z</time>
      </trkpt>
      <trkpt lat="50.632293010130525" lon="6.13258995115757">
        <ele>398.12</ele>
        <time>2013-07-16T11:00:10Z</time>
      </trkpt>
      <trkpt lat="50.632110787555575" lon="6.132682571187615">
        <ele>397.16000000000003</ele>
        <time>2013-07-16T11:00:23Z</time>
      </trkpt>
      <trkpt lat="50.632035518065095" lon="6.13276831805706">
        <ele>396.68000000000001</ele>
        <time>2013-07-16T11:00:32Z</time>
      </trkpt>
      <trkpt lat="50.631934683769941" lon="6.132925394922495">
        <ele>395.72000000000003</ele>
        <time>2013-07-16T11:00:45Z</time>
      </trkpt>
      <trkpt lat="50.63184566795826" lon="6.133112814277411">
        <ele>394.75999999999999</ele>
        <time>2013-07-16T11:00:58Z</time>
      </trkpt>
      <trkpt lat="50.631825467571616" lon="6.133159333840013">
        <ele>394.27999999999997</ele>
        <time>2013-07-16T11:01:02Z</time>
      </trkpt>
      <trkpt lat="50.631740726530552" lon="6.133327893912792">
        <ele>393.80000000000001</ele>
        <time>2013-07-16T11:01:11Z</time>
      </trkpt>
      <trkpt lat="50.63165757805109" lon="6.133543979376555">
        <ele>392.83999999999997</ele>
        <time>2013-07-16T11:01:25Z</time>
      </trkpt>
      <trkpt lat="50.631612483412027" lon="6.133632324635983">
        <ele>392.36000000000001</ele>
        <time>2013-07-16T11:01:32Z</time>
      </trkpt>
      <trkpt lat="50.631598904728889" lon="6.133663421496749">
        <ele>391.87</ele>
        <time>2013-07-16T11:01:35Z</time>
      </trkpt>
      <trkpt lat="50.63152807764709" lon="6.133855367079377">
        <ele>390.91000000000003</ele>
        <time>2013-07-16T11:01:48Z</time>
      </trkpt>
      <trkpt lat="50.631435289978981" lon="6.134132640436292">
        <ele>389.94999999999999</ele>
        <time>2013-07-16T11:02:05Z</time>
      </trkpt>
      <trkpt lat="50.631411150097847" lon="6.13424495793879">
        <ele>388.50999999999999</ele>
        <time>2013-07-16T11:02:16Z</time>
      </trkpt>
      <trkpt lat="50.631403438746929" lon="6.134382421150804">
        <ele>388.02999999999997</ele>
        <time>2013-07-16T11:02:27Z</time>
      </trkpt>
      <trkpt lat="50.631411904469132" lon="6.134444111958146">
        <ele>387.55000000000001</ele>
        <time>2013-07-16T11:02:30Z</time>
      </trkpt>
      <trkpt lat="50.631425734609365" lon="6.134518710896373">
        <ele>387.06999999999999</ele>
        <time>2013-07-16T11:02:37Z</time>
      </trkpt>
      <trkpt lat="50.631485497578979" lon="6.134708980098367">
        <ele>386.11000000000001</ele>
        <time>2013-07-16T11:02:49Z</time>
      </trkpt>
      <trkpt lat="50.631516007706523" lon="6.134847449138761">
        <ele>385.63</ele>
        <time>2013-07-16T11:02:59Z</time>
      </trkpt>
      <trkpt lat="50.631549870595336" lon="6.134939230978489">
        <ele>384.66000000000003</ele>
        <time>2013-07-16T11:03:08Z</time>
      </trkpt>
      <trkpt lat="50.631635785102844" lon="6.135115250945091">
        <ele>383.69999999999999</ele>
        <time>2013-07-16T11:03:21Z</time>
      </trkpt>
      <trkpt lat="50.631720777601004" lon="6.135297808796167">
        <ele>382.74000000000001</ele>
        <time>2013-07-16T11:03:34Z</time>
      </trkpt>
      <trkpt lat="50.631824126467109" lon="6.135451700538397">
        <ele>382.25999999999999</ele>
        <time>2013-07-16T11:03:45Z</time>
      </trkpt>
      <trkpt lat="50.631888164207339" lon="6.135668624192476">
        <ele>381.77999999999997</ele>
        <time>2013-07-16T11:03:57Z</time>
      </trkpt>
      <trkpt lat="50.631974749267101" lon="6.135921254754067">
        <ele>380.33999999999997</ele>
        <time>2013-07-16T11:04:11Z</time>
      </trkpt>
      <trkpt lat="50.632026297971606" lon="6.136022759601474">
        <ele>379.86000000000001</ele>
        <time>2013-07-16T11:04:18Z</time>
      </trkpt>
      <trkpt lat="50.632076170295477" lon="6.136174472048879">
        <ele>379.38</ele>
        <time>2013-07-16T11:04:24Z</time>
      </trkpt>
      <trkpt lat="50.632172729820013" lon="6.136375973001123">
        <ele>378.89999999999998</ele>
        <time>2013-07-16T11:04:38Z</time>
      </trkpt>
      <trkpt lat="50.632157810032368" lon="6.136563727632165">
        <ele>377.94</ele>
        <time>2013-07-16T11:04:50Z</time>
      </trkpt>
      <trkpt lat="50.632207011803985" lon="6.136735305190086">
        <ele>377.94</ele>
        <time>2013-07-16T11:04:57Z</time>
      </trkpt>
      <trkpt lat="50.632181949913502" lon="6.136958096176386">
        <ele>376.97000000000003</ele>
        <time>2013-07-16T11:05:08Z</time>
      </trkpt>
      <trkpt lat="50.632097544148564" lon="6.137041579931974">
        <ele>376.49000000000001</ele>
        <time>2013-07-16T11:05:13Z</time>
      </trkpt>
      <trkpt lat="50.631974497810006" lon="6.137161273509264">
        <ele>376.97000000000003</ele>
        <time>2013-07-16T11:05:26Z</time>
      </trkpt>
      <trkpt lat="50.631795292720199" lon="6.137230256572366">
        <ele>376.97000000000003</ele>
        <time>2013-07-16T11:05:41Z</time>
      </trkpt>
      <trkpt lat="50.631721699610353" lon="6.137260934337974">
        <ele>376.97000000000003</ele>
        <time>2013-07-16T11:05:54Z</time>
      </trkpt>
      <trkpt lat="50.631671659648418" lon="6.137304687872529">
        <ele>376.97000000000003</ele>
        <time>2013-07-16T11:06:07Z</time>
      </trkpt>
      <trkpt lat="50.631585409864783" lon="6.137309381738305">
        <ele>376.97000000000003</ele>
        <time>2013-07-16T11:06:13Z</time>
      </trkpt>
      <trkpt lat="50.631525395438075" lon="6.137251630425453">
        <ele>376.97000000000003</ele>
        <time>2013-07-16T11:06:24Z</time>
      </trkpt>
      <trkpt lat="50.631510727107525" lon="6.137203853577375">
        <ele>375.52999999999997</ele>
        <time>2013-07-16T11:06:38Z</time>
      </trkpt>
      <trkpt lat="50.631517767906189" lon="6.137161776423454">
        <ele>375.52999999999997</ele>
        <time>2013-07-16T11:06:42Z</time>
      </trkpt>
      <trkpt lat="50.631214007735252" lon="6.136720385402441">
        <ele>379.38</ele>
        <time>2013-07-16T11:09:12Z</time>
      </trkpt>
      <trkpt lat="50.631125997751951" lon="6.136591220274568">
        <ele>379.86000000000001</ele>
        <time>2013-07-16T11:09:24Z</time>
      </trkpt>
      <trkpt lat="50.6309974193573" lon="6.136426348239183">
        <ele>380.33999999999997</ele>
        <time>2013-07-16T11:09:40Z</time>
      </trkpt>
      <trkpt lat="50.630856435745955" lon="6.136292153969407">
        <ele>380.81999999999999</ele>
        <time>2013-07-16T11:09:52Z</time>
      </trkpt>
      <trkpt lat="50.630637668073177" lon="6.136206658557057">
        <ele>381.30000000000001</ele>
        <time>2013-07-16T11:10:10Z</time>
      </trkpt>
      <trkpt lat="50.630475394427776" lon="6.136134741827846">
        <ele>381.77999999999997</ele>
        <time>2013-07-16T11:10:24Z</time>
      </trkpt>
      <trkpt lat="50.630295518785715" lon="6.136023849248886">
        <ele>381.77999999999997</ele>
        <time>2013-07-16T11:10:41Z</time>
      </trkpt>
      <trkpt lat="50.630125198513269" lon="6.135942377150059">
        <ele>381.77999999999997</ele>
        <time>2013-07-16T11:10:55Z</time>
      </trkpt>
      <trkpt lat="50.629998045042157" lon="6.135875154286623">
        <ele>381.77999999999997</ele>
        <time>2013-07-16T11:11:11Z</time>
      </trkpt>
      <trkpt lat="50.629896707832813" lon="6.135840369388461">
        <ele>381.77999999999997</ele>
        <time>2013-07-16T11:11:19Z</time>
      </trkpt>
      <trkpt lat="50.629782043397427" lon="6.13580315373838">
        <ele>381.77999999999997</ele>
        <time>2013-07-16T11:11:26Z</time>
      </trkpt>
      <trkpt lat="50.629571657627821" lon="6.135731907561421">
        <ele>382.74000000000001</ele>
        <time>2013-07-16T11:11:41Z</time>
      </trkpt>
      <trkpt lat="50.629380466416478" lon="6.135665690526366">
        <ele>383.22000000000003</ele>
        <time>2013-07-16T11:11:55Z</time>
      </trkpt>
      <trkpt lat="50.629195058718324" lon="6.135598048567772">
        <ele>384.18000000000001</ele>
        <time>2013-07-16T11:12:10Z</time>
      </trkpt>
      <trkpt lat="50.629032365977764" lon="6.135524874553084">
        <ele>385.14999999999998</ele>
        <time>2013-07-16T11:12:23Z</time>
      </trkpt>
      <trkpt lat="50.628892052918673" lon="6.135497130453587">
        <ele>385.14999999999998</ele>
        <time>2013-07-16T11:12:36Z</time>
      </trkpt>
      <trkpt lat="50.628785854205489" lon="6.135498806834221">
        <ele>385.63</ele>
        <time>2013-07-16T11:12:53Z</time>
      </trkpt>
      <trkpt lat="50.628687785938382" lon="6.135462680831552">
        <ele>386.11000000000001</ele>
        <time>2013-07-16T11:13:07Z</time>
      </trkpt>
      <trkpt lat="50.628541857004166" lon="6.135333767160773">
        <ele>387.06999999999999</ele>
        <time>2013-07-16T11:13:20Z</time>
      </trkpt>
      <trkpt lat="50.628395257517695" lon="6.135233519598842">
        <ele>387.55000000000001</ele>
        <time>2013-07-16T11:13:33Z</time>
      </trkpt>
      <trkpt lat="50.628230134025216" lon="6.135134613141418">
        <ele>388.02999999999997</ele>
        <time>2013-07-16T11:13:48Z</time>
      </trkpt>
      <trkpt lat="50.628193253651261" lon="6.135104605928063">
        <ele>388.50999999999999</ele>
        <time>2013-07-16T11:13:52Z</time>
      </trkpt>
      <trkpt lat="50.627995105460286" lon="6.134848287329078">
        <ele>388.50999999999999</ele>
        <time>2013-07-16T11:14:11Z</time>
      </trkpt>
      <trkpt lat="50.627859905362129" lon="6.134665561839938">
        <ele>388.50999999999999</ele>
        <time>2013-07-16T11:14:24Z</time>
      </trkpt>
      <trkpt lat="50.627651531249285" lon="6.134413937106729">
        <ele>388.99000000000001</ele>
        <time>2013-07-16T11:14:44Z</time>
      </trkpt>
      <trkpt lat="50.627515073865652" lon="6.134148230776191">
        <ele>388.99000000000001</ele>
        <time>2013-07-16T11:15:01Z</time>
      </trkpt>
      <trkpt lat="50.6273761857301" lon="6.133894678205252">
        <ele>389.47000000000003</ele>
        <time>2013-07-16T11:15:18Z</time>
      </trkpt>
      <trkpt lat="50.627217851579189" lon="6.133697787299752">
        <ele>389.47000000000003</ele>
        <time>2013-07-16T11:15:34Z</time>
      </trkpt>
      <trkpt lat="50.627070749178529" lon="6.133566023781896">
        <ele>389.47000000000003</ele>
        <time>2013-07-16T11:15:48Z</time>
      </trkpt>
      <trkpt lat="50.62692423351109" lon="6.133455382660031">
        <ele>389.94999999999999</ele>
        <time>2013-07-16T11:16:02Z</time>
      </trkpt>
      <trkpt lat="50.626723235473037" lon="6.133283553645015">
        <ele>389.94999999999999</ele>
        <time>2013-07-16T11:16:20Z</time>
      </trkpt>
      <trkpt lat="50.626566577702761" lon="6.133212056010962">
        <ele>390.43000000000001</ele>
        <time>2013-07-16T11:16:34Z</time>
      </trkpt>
      <trkpt lat="50.626377984881401" lon="6.133140055462718">
        <ele>390.43000000000001</ele>
        <time>2013-07-16T11:16:50Z</time>
      </trkpt>
      <trkpt lat="50.626146225258708" lon="6.133301658555865">
        <ele>390.91000000000003</ele>
        <time>2013-07-16T11:17:08Z</time>
      </trkpt>
      <trkpt lat="50.625987472012639" lon="6.133465608581901">
        <ele>390.91000000000003</ele>
        <time>2013-07-16T11:17:22Z</time>
      </trkpt>
      <trkpt lat="50.625795274972916" lon="6.133558312430978">
        <ele>391.38999999999999</ele>
        <time>2013-07-16T11:17:38Z</time>
      </trkpt>
      <trkpt lat="50.625575333833694" lon="6.133471475914121">
        <ele>391.87</ele>
        <time>2013-07-16T11:17:56Z</time>
      </trkpt>
      <trkpt lat="50.62535815872252" lon="6.133258575573564">
        <ele>391.38999999999999</ele>
        <time>2013-07-16T11:18:15Z</time>
      </trkpt>
      <trkpt lat="50.625105611979961" lon="6.133090350776911">
        <ele>391.87</ele>
        <time>2013-07-16T11:18:34Z</time>
      </trkpt>
      <trkpt lat="50.624879552051425" lon="6.132925562560558">
        <ele>392.36000000000001</ele>
        <time>2013-07-16T11:18:53Z</time>
      </trkpt>
      <trkpt lat="50.624775281175971" lon="6.132682906463742">
        <ele>392.36000000000001</ele>
        <time>2013-07-16T11:19:09Z</time>
      </trkpt>
      <trkpt lat="50.624688696116209" lon="6.132324580103159">
        <ele>392.83999999999997</ele>
        <time>2013-07-16T11:19:27Z</time>
      </trkpt>
      <trkpt lat="50.624567912891507" lon="6.13198846578598">
        <ele>392.83999999999997</ele>
        <time>2013-07-16T11:19:47Z</time>
      </trkpt>
      <trkpt lat="50.624382337555289" lon="6.131565179675818">
        <ele>393.31999999999999</ele>
        <time>2013-07-16T11:20:12Z</time>
      </trkpt>
      <trkpt lat="50.624193996191025" lon="6.131230071187019">
        <ele>393.31999999999999</ele>
        <time>2013-07-16T11:20:32Z</time>
      </trkpt>
      <trkpt lat="50.624034320935607" lon="6.130912899971008">
        <ele>393.31999999999999</ele>
        <time>2013-07-16T11:20:51Z</time>
      </trkpt>
      <trkpt lat="50.623885542154312" lon="6.130648115649819">
        <ele>393.31999999999999</ele>
        <time>2013-07-16T11:21:08Z</time>
      </trkpt>
      <trkpt lat="50.623716143891215" lon="6.130433455109596">
        <ele>393.80000000000001</ele>
        <time>2013-07-16T11:21:25Z</time>
      </trkpt>
      <trkpt lat="50.623582536354661" lon="6.130215441808105">
        <ele>393.80000000000001</ele>
        <time>2013-07-16T11:21:41Z</time>
      </trkpt>
      <trkpt lat="50.623448844999075" lon="6.129965493455529">
        <ele>394.27999999999997</ele>
        <time>2013-07-16T11:21:57Z</time>
      </trkpt>
      <trkpt lat="50.623342813923955" lon="6.129703475162387">
        <ele>394.75999999999999</ele>
        <time>2013-07-16T11:22:12Z</time>
      </trkpt>
      <trkpt lat="50.62324239872396" lon="6.129397368058562">
        <ele>394.75999999999999</ele>
        <time>2013-07-16T11:22:28Z</time>
      </trkpt>
      <trkpt lat="50.623130919411778" lon="6.129125962033868">
        <ele>395.24000000000001</ele>
        <time>2013-07-16T11:22:44Z</time>
      </trkpt>
      <trkpt lat="50.623032180592418" lon="6.12892622128129">
        <ele>395.24000000000001</ele>
        <time>2013-07-16T11:22:57Z</time>
      </trkpt>
      <trkpt lat="50.622928831726313" lon="6.128742573782802">
        <ele>395.72000000000003</ele>
        <time>2013-07-16T11:23:11Z</time>
      </trkpt>
      <trkpt lat="50.62281240709126" lon="6.128517352044582">
        <ele>396.19999999999999</ele>
        <time>2013-07-16T11:23:26Z</time>
      </trkpt>
      <trkpt lat="50.622700592502952" lon="6.128293639048934">
        <ele>396.19999999999999</ele>
        <time>2013-07-16T11:23:41Z</time>
      </trkpt>
      <trkpt lat="50.622554076835513" lon="6.128161791712046">
        <ele>396.68000000000001</ele>
        <time>2013-07-16T11:23:55Z</time>
      </trkpt>
      <trkpt lat="50.622412590309978" lon="6.128060705959797">
        <ele>396.19999999999999</ele>
        <time>2013-07-16T11:24:09Z</time>
      </trkpt>
      <trkpt lat="50.622222237288952" lon="6.128056347370148">
        <ele>396.68000000000001</ele>
        <time>2013-07-16T11:24:26Z</time>
      </trkpt>
      <trkpt lat="50.622050492092967" lon="6.128033045679331">
        <ele>396.68000000000001</ele>
        <time>2013-07-16T11:24:39Z</time>
      </trkpt>
      <trkpt lat="50.621825689449906" lon="6.127888206392527">
        <ele>397.16000000000003</ele>
        <time>2013-07-16T11:24:56Z</time>
      </trkpt>
      <trkpt lat="50.621569538488984" lon="6.127700200304389">
        <ele>397.63999999999999</ele>
        <time>2013-07-16T11:25:15Z</time>
      </trkpt>
      <trkpt lat="50.62137826345861" lon="6.127575561404228">
        <ele>397.63999999999999</ele>
        <time>2013-07-16T11:25:29Z</time>
      </trkpt>
      <trkpt lat="50.62135336920619" lon="6.12755561247468">
        <ele>397.63999999999999</ele>
        <time>2013-07-16T11:25:31Z</time>
      </trkpt>
      <trkpt lat="50.621297797188163" lon="6.12746031023562">
        <ele>398.12</ele>
        <time>2013-07-16T11:25:36Z</time>
      </trkpt>
      <trkpt lat="50.621162010356784" lon="6.127146743237972">
        <ele>398.12</ele>
        <time>2013-07-16T11:25:52Z</time>
      </trkpt>
      <trkpt lat="50.621159076690674" lon="6.126811383292079">
        <ele>398.12</ele>
        <time>2013-07-16T11:26:08Z</time>
      </trkpt>
      <trkpt lat="50.621165111660957" lon="6.126795541495085">
        <ele>398.12</ele>
        <time>2013-07-16T11:26:09Z</time>
      </trkpt>
      <trkpt lat="50.621263179928064" lon="6.126603428274393">
        <ele>398.60000000000002</ele>
        <time>2013-07-16T11:26:25Z</time>
      </trkpt>
      <trkpt lat="50.621311124414206" lon="6.126576773822308">
        <ele>398.60000000000002</ele>
        <time>2013-07-16T11:26:30Z</time>
      </trkpt>
      <trkpt lat="50.621360661461949" lon="6.126555232331157">
        <ele>399.07999999999998</ele>
        <time>2013-07-16T11:26:35Z</time>
      </trkpt>
      <trkpt lat="50.621410114690661" lon="6.12656319513917">
        <ele>399.07999999999998</ele>
        <time>2013-07-16T11:26:38Z</time>
      </trkpt>
      <trkpt lat="50.621580434963107" lon="6.126481723040342">
        <ele>399.56999999999999</ele>
        <time>2013-07-16T11:26:53Z</time>
      </trkpt>
      <trkpt lat="50.621652603149414" lon="6.126431515440345">
        <ele>399.56999999999999</ele>
        <time>2013-07-16T11:26:59Z</time>
      </trkpt>
      <trkpt lat="50.621856115758419" lon="6.126191793009639">
        <ele>399.07999999999998</ele>
        <time>2013-07-16T11:27:17Z</time>
      </trkpt>
      <trkpt lat="50.621905820444226" lon="6.126046869903803">
        <ele>399.07999999999998</ele>
        <time>2013-07-16T11:27:25Z</time>
      </trkpt>
      <trkpt lat="50.621915627270937" lon="6.125877136364579">
        <ele>399.07999999999998</ele>
        <time>2013-07-16T11:27:33Z</time>
      </trkpt>
      <trkpt lat="50.621863240376115" lon="6.125754928216338">
        <ele>399.56999999999999</ele>
        <time>2013-07-16T11:27:41Z</time>
      </trkpt>
      <trkpt lat="50.621670205146074" lon="6.125726597383618">
        <ele>401.49000000000001</ele>
        <time>2013-07-16T11:28:00Z</time>
      </trkpt>
      <trkpt lat="50.62152486294508" lon="6.125916950404644">
        <ele>402.93000000000001</ele>
        <time>2013-07-16T11:28:16Z</time>
      </trkpt>
      <trkpt lat="50.621404331177473" lon="6.126055335626006">
        <ele>403.88999999999999</ele>
        <time>2013-07-16T11:28:29Z</time>
      </trkpt>
      <trkpt lat="50.621206685900688" lon="6.126178046688438">
        <ele>405.32999999999998</ele>
        <time>2013-07-16T11:28:45Z</time>
      </trkpt>
      <trkpt lat="50.621021026745439" lon="6.126198666170239">
        <ele>406.29000000000002</ele>
        <time>2013-07-16T11:29:00Z</time>
      </trkpt>
      <trkpt lat="50.620801169425249" lon="6.126153990626335">
        <ele>407.74000000000001</ele>
        <time>2013-07-16T11:29:18Z</time>
      </trkpt>
      <trkpt lat="50.62060285359621" lon="6.126068579033017">
        <ele>408.69999999999999</ele>
        <time>2013-07-16T11:29:35Z</time>
      </trkpt>
      <trkpt lat="50.62046161852777" lon="6.125847967341542">
        <ele>410.13999999999999</ele>
        <time>2013-07-16T11:29:51Z</time>
      </trkpt>
      <trkpt lat="50.620480645447969" lon="6.125538256019354">
        <ele>411.57999999999998</ele>
        <time>2013-07-16T11:30:08Z</time>
      </trkpt>
      <trkpt lat="50.620500426739454" lon="6.125494167208672">
        <ele>412.06</ele>
        <time>2013-07-16T11:30:11Z</time>
      </trkpt>
      <trkpt lat="50.620529092848301" lon="6.125394506379962">
        <ele>412.54000000000002</ele>
        <time>2013-07-16T11:30:17Z</time>
      </trkpt>
      <trkpt lat="50.620617102831602" lon="6.125225191935897">
        <ele>413.01999999999998</ele>
        <time>2013-07-16T11:30:29Z</time>
      </trkpt>
      <trkpt lat="50.620662281289697" lon="6.125017320737243">
        <ele>413.5</ele>
        <time>2013-07-16T11:30:39Z</time>
      </trkpt>
      <trkpt lat="50.620675692334771" lon="6.1249815300107">
        <ele>413.5</ele>
        <time>2013-07-16T11:30:41Z</time>
      </trkpt>
      <trkpt lat="50.62068834900856" lon="6.124898297712207">
        <ele>413.5</ele>
        <time>2013-07-16T11:30:45Z</time>
      </trkpt>
      <trkpt lat="50.62071131542325" lon="6.124600740149617">
        <ele>414.94999999999999</ele>
        <time>2013-07-16T11:31:01Z</time>
      </trkpt>
      <trkpt lat="50.620709136128426" lon="6.124323634430766">
        <ele>415.91000000000003</ele>
        <time>2013-07-16T11:31:16Z</time>
      </trkpt>
      <trkpt lat="50.620665634050965" lon="6.123996237292886">
        <ele>416.87</ele>
        <time>2013-07-16T11:31:32Z</time>
      </trkpt>
      <trkpt lat="50.620500091463327" lon="6.123844273388386">
        <ele>418.79000000000002</ele>
        <time>2013-07-16T11:31:49Z</time>
      </trkpt>
      <trkpt lat="50.620464300736785" lon="6.123844860121608">
        <ele>419.26999999999998</ele>
        <time>2013-07-16T11:31:52Z</time>
      </trkpt>
      <trkpt lat="50.620293729007244" lon="6.123976958915591">
        <ele>420.23000000000002</ele>
        <time>2013-07-16T11:32:08Z</time>
      </trkpt>
      <trkpt lat="50.620109578594565" lon="6.12412448041141">
        <ele>421.68000000000001</ele>
        <time>2013-07-16T11:32:25Z</time>
      </trkpt>
      <trkpt lat="50.619914196431637" lon="6.124199749901891">
        <ele>423.12</ele>
        <time>2013-07-16T11:32:40Z</time>
      </trkpt>
      <trkpt lat="50.619707331061363" lon="6.124263787642121">
        <ele>423.60000000000002</ele>
        <time>2013-07-16T11:32:55Z</time>
      </trkpt>
      <trkpt lat="50.619479846209288" lon="6.124332854524255">
        <ele>424.07999999999998</ele>
        <time>2013-07-16T11:33:13Z</time>
      </trkpt>
      <trkpt lat="50.61922344379127" lon="6.124357497319579">
        <ele>426</ele>
        <time>2013-07-16T11:33:33Z</time>
      </trkpt>
      <trkpt lat="50.619079610332847" lon="6.124331681057811">
        <ele>426.95999999999998</ele>
        <time>2013-07-16T11:33:47Z</time>
      </trkpt>
      <trkpt lat="50.618953043594956" lon="6.124299746006727">
        <ele>427.44</ele>
        <time>2013-07-16T11:33:59Z</time>
      </trkpt>
      <trkpt lat="50.618776939809322" lon="6.124259177595377">
        <ele>428.39999999999998</ele>
        <time>2013-07-16T11:34:14Z</time>
      </trkpt>
      <trkpt lat="50.618607206270099" lon="6.124202013015747">
        <ele>428.88999999999999</ele>
        <time>2013-07-16T11:34:26Z</time>
      </trkpt>
      <trkpt lat="50.618505701422691" lon="6.124155158177018">
        <ele>429.37</ele>
        <time>2013-07-16T11:34:33Z</time>
      </trkpt>
      <trkpt lat="50.618487931787968" lon="6.124136215075851">
        <ele>429.37</ele>
        <time>2013-07-16T11:34:35Z</time>
      </trkpt>
      <trkpt lat="50.618281653150916" lon="6.124071003869176">
        <ele>430.32999999999998</ele>
        <time>2013-07-16T11:34:53Z</time>
      </trkpt>
      <trkpt lat="50.618218705058098" lon="6.12402674742043">
        <ele>430.81</ele>
        <time>2013-07-16T11:34:59Z</time>
      </trkpt>
      <trkpt lat="50.617975546047091" lon="6.123866653069854">
        <ele>431.76999999999998</ele>
        <time>2013-07-16T11:35:20Z</time>
      </trkpt>
      <trkpt lat="50.61771989800036" lon="6.1237174551934">
        <ele>432.25</ele>
        <time>2013-07-16T11:35:41Z</time>
      </trkpt>
      <trkpt lat="50.617504315450788" lon="6.123598767444491">
        <ele>433.20999999999998</ele>
        <time>2013-07-16T11:36:00Z</time>
      </trkpt>
      <trkpt lat="50.617420244961977" lon="6.123524252325296">
        <ele>433.69</ele>
        <time>2013-07-16T11:36:15Z</time>
      </trkpt>
      <trkpt lat="50.617417311295867" lon="6.123503213748336">
        <ele>433.69</ele>
        <time>2013-07-16T11:36:30Z</time>
      </trkpt>
      <trkpt lat="50.617383448407054" lon="6.123506147414446">
        <ele>433.69</ele>
        <time>2013-07-16T11:36:58Z</time>
      </trkpt>
      <trkpt lat="50.617355452850461" lon="6.123480750247836">
        <ele>433.69</ele>
        <time>2013-07-16T11:37:04Z</time>
      </trkpt>
      <trkpt lat="50.617330390959978" lon="6.123438337817788">
        <ele>433.69</ele>
        <time>2013-07-16T11:37:16Z</time>
      </trkpt>
      <trkpt lat="50.617311364039779" lon="6.123415790498257">
        <ele>433.69</ele>
        <time>2013-07-16T11:37:30Z</time>
      </trkpt>
      <trkpt lat="50.617300970479846" lon="6.123426603153348">
        <ele>433.69</ele>
        <time>2013-07-16T11:37:50Z</time>
      </trkpt>
      <trkpt lat="50.617313291877508" lon="6.123411767184734">
        <ele>433.69</ele>
        <time>2013-07-16T11:38:12Z</time>
      </trkpt>
      <trkpt lat="50.617299797013402" lon="6.12342962063849">
        <ele>433.69</ele>
        <time>2013-07-16T11:38:37Z</time>
      </trkpt>
      <trkpt lat="50.617286553606391" lon="6.123413862660527">
        <ele>433.69</ele>
        <time>2013-07-16T11:38:58Z</time>
      </trkpt>
      <trkpt lat="50.617269119247794" lon="6.123432302847505">
        <ele>434.17000000000002</ele>
        <time>2013-07-16T11:39:20Z</time>
      </trkpt>
      <trkpt lat="50.617334330454469" lon="6.123434146866202">
        <ele>434.17000000000002</ele>
        <time>2013-07-16T11:39:40Z</time>
      </trkpt>
      <trkpt lat="50.617365930229425" lon="6.123422244563699">
        <ele>434.17000000000002</ele>
        <time>2013-07-16T11:39:57Z</time>
      </trkpt>
      <trkpt lat="50.617385124787688" lon="6.123441187664866">
        <ele>434.17000000000002</ele>
        <time>2013-07-16T11:39:59Z</time>
      </trkpt>
      <trkpt lat="50.617354782298207" lon="6.123431129381061">
        <ele>434.17000000000002</ele>
        <time>2013-07-16T11:40:10Z</time>
      </trkpt>
      <trkpt lat="50.617336509749293" lon="6.123411599546671">
        <ele>434.17000000000002</ele>
        <time>2013-07-16T11:40:28Z</time>
      </trkpt>
      <trkpt lat="50.61731874011457" lon="6.123395506292582">
        <ele>434.17000000000002</ele>
        <time>2013-07-16T11:40:46Z</time>
      </trkpt>
      <trkpt lat="50.617322428151965" lon="6.123381927609444">
        <ele>434.17000000000002</ele>
        <time>2013-07-16T11:41:05Z</time>
      </trkpt>
      <trkpt lat="50.617318237200379" lon="6.123378574848175">
        <ele>434.17000000000002</ele>
        <time>2013-07-16T11:41:19Z</time>
      </trkpt>
      <trkpt lat="50.61730801127851" lon="6.123368684202433">
        <ele>434.17000000000002</ele>
        <time>2013-07-16T11:41:35Z</time>
      </trkpt>
      <trkpt lat="50.617287727072835" lon="6.123292241245508">
        <ele>434.17000000000002</ele>
        <time>2013-07-16T11:41:41Z</time>
      </trkpt>
      <trkpt lat="50.617251098155975" lon="6.123246140778065">
        <ele>434.64999999999998</ele>
        <time>2013-07-16T11:41:45Z</time>
      </trkpt>
      <trkpt lat="50.617181360721588" lon="6.12305679358542">
        <ele>435.13</ele>
        <time>2013-07-16T11:41:58Z</time>
      </trkpt>
      <trkpt lat="50.617136433720589" lon="6.122716320678592">
        <ele>436.10000000000002</ele>
        <time>2013-07-16T11:42:16Z</time>
      </trkpt>
      <trkpt lat="50.617088153958321" lon="6.122457822784782">
        <ele>437.54000000000002</ele>
        <time>2013-07-16T11:42:30Z</time>
      </trkpt>
      <trkpt lat="50.617040963843465" lon="6.122156828641892">
        <ele>438.5</ele>
        <time>2013-07-16T11:42:47Z</time>
      </trkpt>
      <trkpt lat="50.61700944788754" lon="6.121883830055594">
        <ele>439.45999999999998</ele>
        <time>2013-07-16T11:43:02Z</time>
      </trkpt>
      <trkpt lat="50.616976004093885" lon="6.121590714901686">
        <ele>439.94</ele>
        <time>2013-07-16T11:43:18Z</time>
      </trkpt>
      <trkpt lat="50.616927305236459" lon="6.121290223672986">
        <ele>440.89999999999998</ele>
        <time>2013-07-16T11:43:35Z</time>
      </trkpt>
      <trkpt lat="50.616879109293222" lon="6.121021080762148">
        <ele>442.33999999999997</ele>
        <time>2013-07-16T11:43:51Z</time>
      </trkpt>
      <trkpt lat="50.616816077381372" lon="6.120666023343802">
        <ele>442.81999999999999</ele>
        <time>2013-07-16T11:44:10Z</time>
      </trkpt>
      <trkpt lat="50.616753967478871" lon="6.120351450517774">
        <ele>444.26999999999998</ele>
        <time>2013-07-16T11:44:28Z</time>
      </trkpt>
      <trkpt lat="50.616744495928288" lon="6.120271738618612">
        <ele>444.75</ele>
        <time>2013-07-16T11:44:33Z</time>
      </trkpt>
      <trkpt lat="50.616696635261178" lon="6.120004272088409">
        <ele>445.70999999999998</ele>
        <time>2013-07-16T11:44:48Z</time>
      </trkpt>
      <trkpt lat="50.616637961938977" lon="6.119713671505451">
        <ele>446.19</ele>
        <time>2013-07-16T11:45:04Z</time>
      </trkpt>
      <trkpt lat="50.616594711318612" lon="6.119486605748534">
        <ele>447.14999999999998</ele>
        <time>2013-07-16T11:45:17Z</time>
      </trkpt>
      <trkpt lat="50.616556657478213" lon="6.119208829477429">
        <ele>448.11000000000001</ele>
        <time>2013-07-16T11:45:31Z</time>
      </trkpt>
      <trkpt lat="50.616530422121286" lon="6.119077149778605">
        <ele>448.58999999999997</ele>
        <time>2013-07-16T11:45:39Z</time>
      </trkpt>
      <trkpt lat="50.616465378552675" lon="6.118739191442728">
        <ele>450.02999999999997</ele>
        <time>2013-07-16T11:45:58Z</time>
      </trkpt>
      <trkpt lat="50.616391366347671" lon="6.118313893675804">
        <ele>451</ele>
        <time>2013-07-16T11:46:19Z</time>
      </trkpt>
      <trkpt lat="50.616389187052846" lon="6.118297129869461">
        <ele>451</ele>
        <time>2013-07-16T11:46:20Z</time>
      </trkpt>
      <trkpt lat="50.616350630298257" lon="6.118082217872143">
        <ele>451.95999999999998</ele>
        <time>2013-07-16T11:46:32Z</time>
      </trkpt>
      <trkpt lat="50.616312827914953" lon="6.117846602573991">
        <ele>452.92000000000002</ele>
        <time>2013-07-16T11:46:43Z</time>
      </trkpt>
      <trkpt lat="50.616195732727647" lon="6.117385094985366">
        <ele>454.36000000000001</ele>
        <time>2013-07-16T11:46:54Z</time>
      </trkpt>
      <trkpt lat="50.615976294502616" lon="6.116865836083889">
        <ele>456.27999999999997</ele>
        <time>2013-07-16T11:47:07Z</time>
      </trkpt>
      <trkpt lat="50.615767333656549" lon="6.116307014599443">
        <ele>457.24000000000001</ele>
        <time>2013-07-16T11:47:21Z</time>
      </trkpt>
      <trkpt lat="50.615587709471583" lon="6.115731094032526">
        <ele>458.20999999999998</ele>
        <time>2013-07-16T11:47:33Z</time>
      </trkpt>
      <trkpt lat="50.615370450541377" lon="6.115118796005845">
        <ele>459.17000000000002</ele>
        <time>2013-07-16T11:47:49Z</time>
      </trkpt>
      <trkpt lat="50.615298114717007" lon="6.114904638379812">
        <ele>459.17000000000002</ele>
        <time>2013-07-16T11:48:01Z</time>
      </trkpt>
      <trkpt lat="50.615209937095642" lon="6.114603560417891">
        <ele>459.64999999999998</ele>
        <time>2013-07-16T11:48:17Z</time>
      </trkpt>
      <trkpt lat="50.615120502188802" lon="6.114299884065986">
        <ele>460.13</ele>
        <time>2013-07-16T11:48:33Z</time>
      </trkpt>
      <trkpt lat="50.615012207999825" lon="6.113954968750477">
        <ele>460.13</ele>
        <time>2013-07-16T11:48:52Z</time>
      </trkpt>
      <trkpt lat="50.614904081448913" lon="6.113652717322111">
        <ele>460.13</ele>
        <time>2013-07-16T11:49:09Z</time>
      </trkpt>
      <trkpt lat="50.614826381206512" lon="6.1134098097682">
        <ele>460.13</ele>
        <time>2013-07-16T11:49:22Z</time>
      </trkpt>
      <trkpt lat="50.614668382331729" lon="6.113120634108782">
        <ele>460.13</ele>
        <time>2013-07-16T11:49:41Z</time>
      </trkpt>
      <trkpt lat="50.614554304629564" lon="6.112883677706122">
        <ele>460.13</ele>
        <time>2013-07-16T11:49:57Z</time>
      </trkpt>
      <trkpt lat="50.614530248567462" lon="6.112855598330498">
        <ele>459.17000000000002</ele>
        <time>2013-07-16T11:50:00Z</time>
      </trkpt>
      <trkpt lat="50.614350121468306" lon="6.11270472407341">
        <ele>458.20999999999998</ele>
        <time>2013-07-16T11:50:16Z</time>
      </trkpt>
      <trkpt lat="50.614208467304707" lon="6.112561896443367">
        <ele>457.72000000000003</ele>
        <time>2013-07-16T11:50:30Z</time>
      </trkpt>
      <trkpt lat="50.614032363519073" lon="6.112451674416661">
        <ele>456.75999999999999</ele>
        <time>2013-07-16T11:50:46Z</time>
      </trkpt>
      <trkpt lat="50.61389934271574" lon="6.112275989726186">
        <ele>456.75999999999999</ele>
        <time>2013-07-16T11:51:00Z</time>
      </trkpt>
      <trkpt lat="50.613743187859654" lon="6.112137855961919">
        <ele>455.80000000000001</ele>
        <time>2013-07-16T11:51:15Z</time>
      </trkpt>
      <trkpt lat="50.613581081852317" lon="6.112017491832376">
        <ele>454.83999999999997</ele>
        <time>2013-07-16T11:51:31Z</time>
      </trkpt>
      <trkpt lat="50.613360553979874" lon="6.111826552078128">
        <ele>453.39999999999998</ele>
        <time>2013-07-16T11:51:48Z</time>
      </trkpt>
      <trkpt lat="50.613219570368528" lon="6.111700152978301">
        <ele>452.44</ele>
        <time>2013-07-16T11:52:03Z</time>
      </trkpt>
      <trkpt lat="50.613196771591902" lon="6.11167274415493">
        <ele>452.44</ele>
        <time>2013-07-16T11:52:04Z</time>
      </trkpt>
      <trkpt lat="50.613035336136818" lon="6.111531928181648">
        <ele>451.48000000000002</ele>
        <time>2013-07-16T11:52:18Z</time>
      </trkpt>
      <trkpt lat="50.612890748307109" lon="6.111408546566963">
        <ele>450.02999999999997</ele>
        <time>2013-07-16T11:52:32Z</time>
      </trkpt>
      <trkpt lat="50.612769797444344" lon="6.111272089183331">
        <ele>449.06999999999999</ele>
        <time>2013-07-16T11:52:43Z</time>
      </trkpt>
      <trkpt lat="50.612593609839678" lon="6.111115934327245">
        <ele>447.63</ele>
        <time>2013-07-16T11:52:59Z</time>
      </trkpt>
      <trkpt lat="50.612417841330171" lon="6.110959528014064">
        <ele>445.70999999999998</ele>
        <time>2013-07-16T11:53:12Z</time>
      </trkpt>
      <trkpt lat="50.612219776958227" lon="6.110786776989698">
        <ele>445.23000000000002</ele>
        <time>2013-07-16T11:53:30Z</time>
      </trkpt>
      <trkpt lat="50.612060604617" lon="6.110606482252479">
        <ele>444.26999999999998</ele>
        <time>2013-07-16T11:53:41Z</time>
      </trkpt>
      <trkpt lat="50.611934289336205" lon="6.110484274104238">
        <ele>443.79000000000002</ele>
        <time>2013-07-16T11:53:53Z</time>
      </trkpt>
      <trkpt lat="50.611774194985628" lon="6.110352510586381">
        <ele>441.86000000000001</ele>
        <time>2013-07-16T11:54:09Z</time>
      </trkpt>
      <trkpt lat="50.611723819747567" lon="6.11030406318605">
        <ele>441.38</ele>
        <time>2013-07-16T11:54:14Z</time>
      </trkpt>
      <trkpt lat="50.611555343493819" lon="6.110107759013772">
        <ele>439.94</ele>
        <time>2013-07-16T11:54:31Z</time>
      </trkpt>
      <trkpt lat="50.611463561654091" lon="6.109953531995416">
        <ele>438.98000000000002</ele>
        <time>2013-07-16T11:54:40Z</time>
      </trkpt>
      <trkpt lat="50.611329199746251" lon="6.109846075996757">
        <ele>438.01999999999998</ele>
        <time>2013-07-16T11:54:51Z</time>
      </trkpt>
      <trkpt lat="50.611058212816715" lon="6.109606772661209">
        <ele>435.61000000000001</ele>
        <time>2013-07-16T11:55:10Z</time>
      </trkpt>
      <trkpt lat="50.610947487875819" lon="6.109487330541015">
        <ele>434.17000000000002</ele>
        <time>2013-07-16T11:55:20Z</time>
      </trkpt>
      <trkpt lat="50.610795607790351" lon="6.109518678858876">
        <ele>433.20999999999998</ele>
        <time>2013-07-16T11:55:35Z</time>
      </trkpt>
      <trkpt lat="50.610663928091526" lon="6.109612639993429">
        <ele>433.20999999999998</ele>
        <time>2013-07-16T11:55:47Z</time>
      </trkpt>
      <trkpt lat="50.610610619187355" lon="6.109642311930656">
        <ele>433.20999999999998</ele>
        <time>2013-07-16T11:55:52Z</time>
      </trkpt>
      <trkpt lat="50.610374417155981" lon="6.109730154275894">
        <ele>433.20999999999998</ele>
        <time>2013-07-16T11:56:11Z</time>
      </trkpt>
      <trkpt lat="50.610171910375357" lon="6.109807100147009">
        <ele>433.20999999999998</ele>
        <time>2013-07-16T11:56:26Z</time>
      </trkpt>
      <trkpt lat="50.609996393322945" lon="6.109882537275553">
        <ele>432.73000000000002</ele>
        <time>2013-07-16T11:56:40Z</time>
      </trkpt>
      <trkpt lat="50.609834203496575" lon="6.109951520338655">
        <ele>432.73000000000002</ele>
        <time>2013-07-16T11:56:53Z</time>
      </trkpt>
      <trkpt lat="50.609804531559348" lon="6.109967697411776">
        <ele>432.73000000000002</ele>
        <time>2013-07-16T11:56:55Z</time>
      </trkpt>
      <trkpt lat="50.609777122735977" lon="6.10998697578907">
        <ele>432.73000000000002</ele>
        <time>2013-07-16T11:56:57Z</time>
      </trkpt>
      <trkpt lat="50.60961795039475" lon="6.110065933316946">
        <ele>432.73000000000002</ele>
        <time>2013-07-16T11:57:12Z</time>
      </trkpt>
      <trkpt lat="50.60951242223382" lon="6.110119493678212">
        <ele>432.73000000000002</ele>
        <time>2013-07-16T11:57:21Z</time>
      </trkpt>
      <trkpt lat="50.609445115551353" lon="6.110151680186391">
        <ele>432.73000000000002</ele>
        <time>2013-07-16T11:57:26Z</time>
      </trkpt>
      <trkpt lat="50.609421143308282" lon="6.11015897244215">
        <ele>432.73000000000002</ele>
        <time>2013-07-16T11:57:28Z</time>
      </trkpt>
      <trkpt lat="50.609194496646523" lon="6.11022686585784">
        <ele>432.73000000000002</ele>
        <time>2013-07-16T11:57:44Z</time>
      </trkpt>
      <trkpt lat="50.608997102826834" lon="6.11024740152061">
        <ele>432.73000000000002</ele>
        <time>2013-07-16T11:57:59Z</time>
      </trkpt>
      <trkpt lat="50.608845390379429" lon="6.110256034880877">
        <ele>434.17000000000002</ele>
        <time>2013-07-16T11:58:11Z</time>
      </trkpt>
      <trkpt lat="50.608625113964081" lon="6.11028746701777">
        <ele>434.64999999999998</ele>
        <time>2013-07-16T11:58:27Z</time>
      </trkpt>
      <trkpt lat="50.608430318534374" lon="6.110462984070182">
        <ele>435.13</ele>
        <time>2013-07-16T11:58:43Z</time>
      </trkpt>
      <trkpt lat="50.608263099566102" lon="6.110603548586369">
        <ele>435.61000000000001</ele>
        <time>2013-07-16T11:58:58Z</time>
      </trkpt>
      <trkpt lat="50.608105938881636" lon="6.110759032890201">
        <ele>436.10000000000002</ele>
        <time>2013-07-16T11:59:13Z</time>
      </trkpt>
      <trkpt lat="50.607909467071295" lon="6.110989367589355">
        <ele>437.06</ele>
        <time>2013-07-16T11:59:30Z</time>
      </trkpt>
      <trkpt lat="50.607706792652607" lon="6.1111596878618">
        <ele>438.01999999999998</ele>
        <time>2013-07-16T11:59:47Z</time>
      </trkpt>
      <trkpt lat="50.607540495693684" lon="6.111383568495512">
        <ele>439.45999999999998</ele>
        <time>2013-07-16T12:00:05Z</time>
      </trkpt>
      <trkpt lat="50.607424154877663" lon="6.111657908186317">
        <ele>439.94</ele>
        <time>2013-07-16T12:00:22Z</time>
      </trkpt>
      <trkpt lat="50.607301276177168" lon="6.111887488514185">
        <ele>440.89999999999998</ele>
        <time>2013-07-16T12:00:38Z</time>
      </trkpt>
      <trkpt lat="50.60716507025063" lon="6.112115643918514">
        <ele>441.86000000000001</ele>
        <time>2013-07-16T12:00:54Z</time>
      </trkpt>
      <trkpt lat="50.607050405815244" lon="6.112360060214996">
        <ele>442.33999999999997</ele>
        <time>2013-07-16T12:01:07Z</time>
      </trkpt>
      <trkpt lat="50.606923000887036" lon="6.112612942233682">
        <ele>443.79000000000002</ele>
        <time>2013-07-16T12:01:24Z</time>
      </trkpt>
      <trkpt lat="50.606793919578195" lon="6.11291728913784">
        <ele>444.75</ele>
        <time>2013-07-16T12:01:40Z</time>
      </trkpt>
      <trkpt lat="50.606773886829615" lon="6.112949224188924">
        <ele>444.75</ele>
        <time>2013-07-16T12:01:42Z</time>
      </trkpt>
      <trkpt lat="50.606627287343144" lon="6.113165309652686">
        <ele>445.23000000000002</ele>
        <time>2013-07-16T12:01:59Z</time>
      </trkpt>
      <trkpt lat="50.606604740023613" lon="6.113194646313787">
        <ele>445.23000000000002</ele>
        <time>2013-07-16T12:02:02Z</time>
      </trkpt>
      <trkpt lat="50.606452440842986" lon="6.113326493650675">
        <ele>446.19</ele>
        <time>2013-07-16T12:02:16Z</time>
      </trkpt>
      <trkpt lat="50.606245491653681" lon="6.113524809479713">
        <ele>446.67000000000002</ele>
        <time>2013-07-16T12:02:32Z</time>
      </trkpt>
      <trkpt lat="50.606135940179229" lon="6.113673755899072">
        <ele>447.63</ele>
        <time>2013-07-16T12:02:43Z</time>
      </trkpt>
      <trkpt lat="50.605995710939169" lon="6.113888919353485">
        <ele>448.11000000000001</ele>
        <time>2013-07-16T12:02:59Z</time>
      </trkpt>
      <trkpt lat="50.605962602421641" lon="6.113947173580527">
        <ele>448.58999999999997</ele>
        <time>2013-07-16T12:03:03Z</time>
      </trkpt>
      <trkpt lat="50.605907365679741" lon="6.11403526738286">
        <ele>448.58999999999997</ele>
        <time>2013-07-16T12:03:09Z</time>
      </trkpt>
      <trkpt lat="50.605870233848691" lon="6.114100813865662">
        <ele>449.06999999999999</ele>
        <time>2013-07-16T12:03:13Z</time>
      </trkpt>
      <trkpt lat="50.605758335441351" lon="6.114397449418902">
        <ele>449.55000000000001</ele>
        <time>2013-07-16T12:03:29Z</time>
      </trkpt>
      <trkpt lat="50.605626069009304" lon="6.114657456055284">
        <ele>450.51999999999998</ele>
        <time>2013-07-16T12:03:46Z</time>
      </trkpt>
      <trkpt lat="50.605457928031683" lon="6.114860717207193">
        <ele>451.48000000000002</ele>
        <time>2013-07-16T12:04:00Z</time>
      </trkpt>
      <trkpt lat="50.605369918048382" lon="6.11501008272171">
        <ele>451.95999999999998</ele>
        <time>2013-07-16T12:04:10Z</time>
      </trkpt>
      <trkpt lat="50.605213176459074" lon="6.115258103236556">
        <ele>452.92000000000002</ele>
        <time>2013-07-16T12:04:28Z</time>
      </trkpt>
      <trkpt lat="50.605066241696477" lon="6.11551090143621">
        <ele>453.39999999999998</ele>
        <time>2013-07-16T12:04:45Z</time>
      </trkpt>
      <trkpt lat="50.604992900043726" lon="6.115636378526688">
        <ele>453.88</ele>
        <time>2013-07-16T12:04:53Z</time>
      </trkpt>
      <trkpt lat="50.604937914758921" lon="6.11583000048995">
        <ele>454.36000000000001</ele>
        <time>2013-07-16T12:05:07Z</time>
      </trkpt>
      <trkpt lat="50.604787543416023" lon="6.11607282422483">
        <ele>455.31999999999999</ele>
        <time>2013-07-16T12:05:23Z</time>
      </trkpt>
      <trkpt lat="50.604649828746915" lon="6.116296034306288">
        <ele>456.27999999999997</ele>
        <time>2013-07-16T12:05:38Z</time>
      </trkpt>
      <trkpt lat="50.604638094082475" lon="6.116322604939342">
        <ele>456.75999999999999</ele>
        <time>2013-07-16T12:05:40Z</time>
      </trkpt>
      <trkpt lat="50.604490153491497" lon="6.116583030670881">
        <ele>457.24000000000001</ele>
        <time>2013-07-16T12:05:56Z</time>
      </trkpt>
      <trkpt lat="50.604408346116543" lon="6.116720912978053">
        <ele>457.72000000000003</ele>
        <time>2013-07-16T12:06:05Z</time>
      </trkpt>
      <trkpt lat="50.604355959221721" lon="6.116804899647832">
        <ele>457.72000000000003</ele>
        <time>2013-07-16T12:06:11Z</time>
      </trkpt>
      <trkpt lat="50.604239953681827" lon="6.11707161180675">
        <ele>459.17000000000002</ele>
        <time>2013-07-16T12:06:27Z</time>
      </trkpt>
      <trkpt lat="50.60421958565712" lon="6.117129363119602">
        <ele>459.17000000000002</ele>
        <time>2013-07-16T12:06:30Z</time>
      </trkpt>
      <trkpt lat="50.604129061102867" lon="6.117376210168004">
        <ele>460.13</ele>
        <time>2013-07-16T12:06:45Z</time>
      </trkpt>
      <trkpt lat="50.604044236242771" lon="6.117657506838441">
        <ele>460.61000000000001</ele>
        <time>2013-07-16T12:07:01Z</time>
      </trkpt>
      <trkpt lat="50.604016073048115" lon="6.117939557880163">
        <ele>461.08999999999997</ele>
        <time>2013-07-16T12:07:17Z</time>
      </trkpt>
      <trkpt lat="50.604029232636094" lon="6.11810895614326">
        <ele>461.56999999999999</ele>
        <time>2013-07-16T12:07:28Z</time>
      </trkpt>
      <trkpt lat="50.604067537933588" lon="6.118379775434732">
        <ele>462.05000000000001</ele>
        <time>2013-07-16T12:07:43Z</time>
      </trkpt>
      <trkpt lat="50.604073908179998" lon="6.118513466790319">
        <ele>462.52999999999997</ele>
        <time>2013-07-16T12:07:57Z</time>
      </trkpt>
      <trkpt lat="50.604107603430748" lon="6.118582952767611">
        <ele>461.56999999999999</ele>
        <time>2013-07-16T12:08:10Z</time>
      </trkpt>
      <trkpt lat="50.604102574288845" lon="6.118552861735225">
        <ele>461.56999999999999</ele>
        <time>2013-07-16T12:08:27Z</time>
      </trkpt>
      <trkpt lat="50.60406569391489" lon="6.118542468175292">
        <ele>461.56999999999999</ele>
        <time>2013-07-16T12:08:43Z</time>
      </trkpt>
      <trkpt lat="50.604080278426409" lon="6.118538109585643">
        <ele>461.56999999999999</ele>
        <time>2013-07-16T12:09:02Z</time>
      </trkpt>
      <trkpt lat="50.604089163243771" lon="6.118568368256092">
        <ele>461.56999999999999</ele>
        <time>2013-07-16T12:09:27Z</time>
      </trkpt>
      <trkpt lat="50.604090420529246" lon="6.118621258065105">
        <ele>461.08999999999997</ele>
        <time>2013-07-16T12:09:41Z</time>
      </trkpt>
      <trkpt lat="50.604042895138264" lon="6.118681943044066">
        <ele>461.08999999999997</ele>
        <time>2013-07-16T12:09:59Z</time>
      </trkpt>
      <trkpt lat="50.604058234021068" lon="6.118706585839391">
        <ele>461.08999999999997</ele>
        <time>2013-07-16T12:10:06Z</time>
      </trkpt>
      <trkpt lat="50.604077344760299" lon="6.11868797801435">
        <ele>461.08999999999997</ele>
        <time>2013-07-16T12:10:19Z</time>
      </trkpt>
      <trkpt lat="50.6040876545012" lon="6.118747154250741">
        <ele>461.08999999999997</ele>
        <time>2013-07-16T12:10:38Z</time>
      </trkpt>
      <trkpt lat="50.604107938706875" lon="6.118906829506159">
        <ele>462.52999999999997</ele>
        <time>2013-07-16T12:10:52Z</time>
      </trkpt>
      <trkpt lat="50.604067118838429" lon="6.118958126753569">
        <ele>462.52999999999997</ele>
        <time>2013-07-16T12:11:06Z</time>
      </trkpt>
      <trkpt lat="50.604063849896193" lon="6.119018476456404">
        <ele>463.00999999999999</ele>
        <time>2013-07-16T12:11:18Z</time>
      </trkpt>
      <trkpt lat="50.604074662551284" lon="6.119165997952223">
        <ele>463.00999999999999</ele>
        <time>2013-07-16T12:11:28Z</time>
      </trkpt>
      <trkpt lat="50.604127803817391" lon="6.119341598823667">
        <ele>463.97000000000003</ele>
        <time>2013-07-16T12:11:38Z</time>
      </trkpt>
      <trkpt lat="50.604127300903201" lon="6.119469841942191">
        <ele>464.93000000000001</ele>
        <time>2013-07-16T12:11:44Z</time>
      </trkpt>
      <trkpt lat="50.604122104123235" lon="6.119527677074075">
        <ele>464.93000000000001</ele>
        <time>2013-07-16T12:11:47Z</time>
      </trkpt>
      <trkpt lat="50.604098299518228" lon="6.119577381759882">
        <ele>464.93000000000001</ele>
        <time>2013-07-16T12:11:58Z</time>
      </trkpt>
      <trkpt lat="50.604087319225073" lon="6.119685927405953">
        <ele>465.42000000000002</ele>
        <time>2013-07-16T12:12:08Z</time>
      </trkpt>
      <trkpt lat="50.604068040847778" lon="6.119857169687748">
        <ele>465.89999999999998</ele>
        <time>2013-07-16T12:12:16Z</time>
      </trkpt>
      <trkpt lat="50.604079021140933" lon="6.120058754459024">
        <ele>467.33999999999997</ele>
        <time>2013-07-16T12:12:29Z</time>
      </trkpt>
      <trkpt lat="50.604067789390683" lon="6.12025111913681">
        <ele>468.30000000000001</ele>
        <time>2013-07-16T12:12:41Z</time>
      </trkpt>
      <trkpt lat="50.604055384173989" lon="6.120381038635969">
        <ele>468.77999999999997</ele>
        <time>2013-07-16T12:12:49Z</time>
      </trkpt>
      <trkpt lat="50.604050774127245" lon="6.120499726384878">
        <ele>469.25999999999999</ele>
        <time>2013-07-16T12:12:56Z</time>
      </trkpt>
      <trkpt lat="50.604022359475493" lon="6.120703741908073">
        <ele>470.69999999999999</ele>
        <time>2013-07-16T12:13:07Z</time>
      </trkpt>
      <trkpt lat="50.604014312848449" lon="6.120761660858989">
        <ele>470.69999999999999</ele>
        <time>2013-07-16T12:13:10Z</time>
      </trkpt>
      <trkpt lat="50.604015989229083" lon="6.120977997779846">
        <ele>470.69999999999999</ele>
        <time>2013-07-16T12:13:21Z</time>
      </trkpt>
      <trkpt lat="50.604023616760969" lon="6.121160555630922">
        <ele>471.66000000000003</ele>
        <time>2013-07-16T12:13:30Z</time>
      </trkpt>
      <trkpt lat="50.60403392650187" lon="6.121216714382172">
        <ele>471.66000000000003</ele>
        <time>2013-07-16T12:13:34Z</time>
      </trkpt>
      <trkpt lat="50.604046499356627" lon="6.121455263346434">
        <ele>473.11000000000001</ele>
        <time>2013-07-16T12:13:46Z</time>
      </trkpt>
      <trkpt lat="50.604027891531587" lon="6.12165299244225">
        <ele>473.58999999999997</ele>
        <time>2013-07-16T12:13:57Z</time>
      </trkpt>
      <trkpt lat="50.604023449122906" lon="6.121693309396505">
        <ele>474.06999999999999</ele>
        <time>2013-07-16T12:14:01Z</time>
      </trkpt>
      <trkpt lat="50.604002410545945" lon="6.121839573606849">
        <ele>474.55000000000001</ele>
        <time>2013-07-16T12:14:11Z</time>
      </trkpt>
      <trkpt lat="50.603972906246781" lon="6.122067645192146">
        <ele>475.50999999999999</ele>
        <time>2013-07-16T12:14:23Z</time>
      </trkpt>
      <trkpt lat="50.6039615906775" lon="6.122213071212173">
        <ele>475.99000000000001</ele>
        <time>2013-07-16T12:14:30Z</time>
      </trkpt>
      <trkpt lat="50.603937534615397" lon="6.122454134747386">
        <ele>476.94999999999999</ele>
        <time>2013-07-16T12:14:42Z</time>
      </trkpt>
      <trkpt lat="50.603905851021409" lon="6.122629316523671">
        <ele>477.43000000000001</ele>
        <time>2013-07-16T12:14:50Z</time>
      </trkpt>
      <trkpt lat="50.603867713361979" lon="6.122861662879586">
        <ele>477.91000000000003</ele>
        <time>2013-07-16T12:15:01Z</time>
      </trkpt>
      <trkpt lat="50.603877101093531" lon="6.122976075857878">
        <ele>478.38999999999999</ele>
        <time>2013-07-16T12:15:07Z</time>
      </trkpt>
      <trkpt lat="50.603864779695868" lon="6.12326349131763">
        <ele>479.35000000000002</ele>
        <time>2013-07-16T12:15:21Z</time>
      </trkpt>
      <trkpt lat="50.60386779718101" lon="6.12331822514534">
        <ele>479.35000000000002</ele>
        <time>2013-07-16T12:15:24Z</time>
      </trkpt>
      <trkpt lat="50.603791186586022" lon="6.123422496020794">
        <ele>480.31999999999999</ele>
        <time>2013-07-16T12:15:36Z</time>
      </trkpt>
      <trkpt lat="50.603766543790698" lon="6.123411599546671">
        <ele>480.31999999999999</ele>
        <time>2013-07-16T12:15:39Z</time>
      </trkpt>
      <trkpt lat="50.603708792477846" lon="6.123391231521964">
        <ele>479.35000000000002</ele>
        <time>2013-07-16T12:15:44Z</time>
      </trkpt>
      <trkpt lat="50.60368993319571" lon="6.123391734436154">
        <ele>479.35000000000002</ele>
        <time>2013-07-16T12:15:45Z</time>
      </trkpt>
      <trkpt lat="50.603617429733276" lon="6.12339885905385">
        <ele>479.35000000000002</ele>
        <time>2013-07-16T12:15:51Z</time>
      </trkpt>
      <trkpt lat="50.603584321215749" lon="6.123414617031813">
        <ele>478.87</ele>
        <time>2013-07-16T12:15:54Z</time>
      </trkpt>
      <trkpt lat="50.603540735319257" lon="6.123468345031142">
        <ele>478.38999999999999</ele>
        <time>2013-07-16T12:15:59Z</time>
      </trkpt>
      <trkpt lat="50.603544842451811" lon="6.123461471870542">
        <ele>477.91000000000003</ele>
        <time>2013-07-16T12:16:10Z</time>
      </trkpt>
      <trkpt lat="50.603529419749975" lon="6.123468847945333">
        <ele>477.91000000000003</ele>
        <time>2013-07-16T12:16:19Z</time>
      </trkpt>
      <trkpt lat="50.603468818590045" lon="6.123528862372041">
        <ele>477.91000000000003</ele>
        <time>2013-07-16T12:16:32Z</time>
      </trkpt>
      <trkpt lat="50.603437889367342" lon="6.123642604798079">
        <ele>477.43000000000001</ele>
        <time>2013-07-16T12:16:40Z</time>
      </trkpt>
      <trkpt lat="50.603350717574358" lon="6.123844273388386">
        <ele>476.47000000000003</ele>
        <time>2013-07-16T12:16:54Z</time>
      </trkpt>
      <trkpt lat="50.603287601843476" lon="6.124107800424099">
        <ele>475.50999999999999</ele>
        <time>2013-07-16T12:17:09Z</time>
      </trkpt>
      <trkpt lat="50.603284919634461" lon="6.124145602807403">
        <ele>475.02999999999997</ele>
        <time>2013-07-16T12:17:11Z</time>
      </trkpt>
      <trkpt lat="50.603275112807751" lon="6.124209221452475">
        <ele>475.02999999999997</ele>
        <time>2013-07-16T12:17:14Z</time>
      </trkpt>
      <trkpt lat="50.603268407285213" lon="6.124253142625094">
        <ele>474.55000000000001</ele>
        <time>2013-07-16T12:17:16Z</time>
      </trkpt>
      <trkpt lat="50.603227168321609" lon="6.124420948326588">
        <ele>473.58999999999997</ele>
        <time>2013-07-16T12:17:27Z</time>
      </trkpt>
      <trkpt lat="50.603103283792734" lon="6.124650025740266">
        <ele>472.63</ele>
        <time>2013-07-16T12:17:42Z</time>
      </trkpt>
      <trkpt lat="50.602960120886564" lon="6.124822441488504">
        <ele>471.66000000000003</ele>
        <time>2013-07-16T12:17:56Z</time>
      </trkpt>
      <trkpt lat="50.602897759526968" lon="6.124868206679821">
        <ele>471.18000000000001</ele>
        <time>2013-07-16T12:18:00Z</time>
      </trkpt>
      <trkpt lat="50.602796673774719" lon="6.124965688213706">
        <ele>470.22000000000003</ele>
        <time>2013-07-16T12:18:08Z</time>
      </trkpt>
      <trkpt lat="50.602636579424143" lon="6.12521898932755">
        <ele>468.77999999999997</ele>
        <time>2013-07-16T12:18:24Z</time>
      </trkpt>
      <trkpt lat="50.602610260248184" lon="6.125272130593658">
        <ele>468.77999999999997</ele>
        <time>2013-07-16T12:18:27Z</time>
      </trkpt>
      <trkpt lat="50.602532560005784" lon="6.125430380925536">
        <ele>467.81999999999999</ele>
        <time>2013-07-16T12:18:41Z</time>
      </trkpt>
      <trkpt lat="50.602527447044849" lon="6.125439517199993">
        <ele>467.81999999999999</ele>
        <time>2013-07-16T12:18:42Z</time>
      </trkpt>
      <trkpt lat="50.602387469261885" lon="6.125654177740216">
        <ele>466.86000000000001</ele>
        <time>2013-07-16T12:18:57Z</time>
      </trkpt>
      <trkpt lat="50.602361485362053" lon="6.125696925446391">
        <ele>466.38</ele>
        <time>2013-07-16T12:19:01Z</time>
      </trkpt>
      <trkpt lat="50.602245898917317" lon="6.125885099172592">
        <ele>464.93000000000001</ele>
        <time>2013-07-16T12:19:16Z</time>
      </trkpt>
      <trkpt lat="50.602050935849547" lon="6.126073189079762">
        <ele>464.44999999999999</ele>
        <time>2013-07-16T12:19:33Z</time>
      </trkpt>
      <trkpt lat="50.602012127637863" lon="6.126123731955886">
        <ele>463.97000000000003</ele>
        <time>2013-07-16T12:19:38Z</time>
      </trkpt>
      <trkpt lat="50.601922022178769" lon="6.126266224309802">
        <ele>463.00999999999999</ele>
        <time>2013-07-16T12:19:52Z</time>
      </trkpt>
      <trkpt lat="50.601903749629855" lon="6.126277204602957">
        <ele>463.00999999999999</ele>
        <time>2013-07-16T12:19:54Z</time>
      </trkpt>
      <trkpt lat="50.601723371073604" lon="6.126255076378584">
        <ele>462.05000000000001</ele>
        <time>2013-07-16T12:20:06Z</time>
      </trkpt>
      <trkpt lat="50.60152287594974" lon="6.126187685877085">
        <ele>461.56999999999999</ele>
        <time>2013-07-16T12:20:19Z</time>
      </trkpt>
      <trkpt lat="50.60133864171803" lon="6.126184919849038">
        <ele>461.08999999999997</ele>
        <time>2013-07-16T12:20:34Z</time>
      </trkpt>
      <trkpt lat="50.601219534873962" lon="6.126254489645362">
        <ele>460.13</ele>
        <time>2013-07-16T12:20:47Z</time>
      </trkpt>
      <trkpt lat="50.600975872948766" lon="6.126317689195275">
        <ele>459.17000000000002</ele>
        <time>2013-07-16T12:21:03Z</time>
      </trkpt>
      <trkpt lat="50.600881325080991" lon="6.126312827691436">
        <ele>458.69</ele>
        <time>2013-07-16T12:21:10Z</time>
      </trkpt>
      <trkpt lat="50.600720979273319" lon="6.126287346705794">
        <ele>457.72000000000003</ele>
        <time>2013-07-16T12:21:24Z</time>
      </trkpt>
      <trkpt lat="50.600548563525081" lon="6.126286676153541">
        <ele>457.24000000000001</ele>
        <time>2013-07-16T12:21:37Z</time>
      </trkpt>
      <trkpt lat="50.60041319578886" lon="6.12625197507441">
        <ele>456.27999999999997</ele>
        <time>2013-07-16T12:21:50Z</time>
      </trkpt>
      <trkpt lat="50.600259052589536" lon="6.126291202381253">
        <ele>455.80000000000001</ele>
        <time>2013-07-16T12:22:04Z</time>
      </trkpt>
      <trkpt lat="50.600248910486698" lon="6.126317353919148">
        <ele>455.31999999999999</ele>
        <time>2013-07-16T12:22:06Z</time>
      </trkpt>
      <trkpt lat="50.600216137245297" lon="6.126387929543853">
        <ele>455.31999999999999</ele>
        <time>2013-07-16T12:22:12Z</time>
      </trkpt>
      <trkpt lat="50.600192835554481" lon="6.12661155872047">
        <ele>454.83999999999997</ele>
        <time>2013-07-16T12:22:25Z</time>
      </trkpt>
      <trkpt lat="50.600112536922097" lon="6.126829572021961">
        <ele>453.88</ele>
        <time>2013-07-16T12:22:37Z</time>
      </trkpt>
      <trkpt lat="50.600018659606576" lon="6.12706602551043">
        <ele>452.92000000000002</ele>
        <time>2013-07-16T12:22:50Z</time>
      </trkpt>
      <trkpt lat="50.599951939657331" lon="6.127286134287715">
        <ele>452.44</ele>
        <time>2013-07-16T12:23:03Z</time>
      </trkpt>
      <trkpt lat="50.599882956594229" lon="6.127498364076018">
        <ele>451.48000000000002</ele>
        <time>2013-07-16T12:23:16Z</time>
      </trkpt>
      <trkpt lat="50.599826294928789" lon="6.12771587446332">
        <ele>450.51999999999998</ele>
        <time>2013-07-16T12:23:28Z</time>
      </trkpt>
      <trkpt lat="50.599749432876706" lon="6.127963056787849">
        <ele>449.55000000000001</ele>
        <time>2013-07-16T12:23:44Z</time>
      </trkpt>
      <trkpt lat="50.599578358232975" lon="6.12817419692874">
        <ele>448.58999999999997</ele>
        <time>2013-07-16T12:23:59Z</time>
      </trkpt>
      <trkpt lat="50.599385993555188" lon="6.128318449482322">
        <ele>447.63</ele>
        <time>2013-07-16T12:24:16Z</time>
      </trkpt>
      <trkpt lat="50.599238807335496" lon="6.128518944606185">
        <ele>446.19</ele>
        <time>2013-07-16T12:24:32Z</time>
      </trkpt>
      <trkpt lat="50.599187090992928" lon="6.128621371462941">
        <ele>446.19</ele>
        <time>2013-07-16T12:24:43Z</time>
      </trkpt>
      <trkpt lat="50.599083993583918" lon="6.128757828846574">
        <ele>444.75</ele>
        <time>2013-07-16T12:24:56Z</time>
      </trkpt>
      <trkpt lat="50.598937645554543" lon="6.128856567665935">
        <ele>444.26999999999998</ele>
        <time>2013-07-16T12:25:07Z</time>
      </trkpt>
      <trkpt lat="50.5987982545048" lon="6.129018170759082">
        <ele>442.81999999999999</ele>
        <time>2013-07-16T12:25:20Z</time>
      </trkpt>
      <trkpt lat="50.598640004172921" lon="6.129197040572763">
        <ele>441.38</ele>
        <time>2013-07-16T12:25:36Z</time>
      </trkpt>
      <trkpt lat="50.598515784367919" lon="6.129381777718663">
        <ele>439.94</ele>
        <time>2013-07-16T12:25:50Z</time>
      </trkpt>
      <trkpt lat="50.598384942859411" lon="6.129553439095616">
        <ele>439.45999999999998</ele>
        <time>2013-07-16T12:26:02Z</time>
      </trkpt>
      <trkpt lat="50.598312774673104" lon="6.12965477630496">
        <ele>438.98000000000002</ele>
        <time>2013-07-16T12:26:09Z</time>
      </trkpt>
      <trkpt lat="50.598256783559918" lon="6.12978670746088">
        <ele>438.98000000000002</ele>
        <time>2013-07-16T12:26:18Z</time>
      </trkpt>
      <trkpt lat="50.598194086924195" lon="6.129949064925313">
        <ele>438.01999999999998</ele>
        <time>2013-07-16T12:26:29Z</time>
      </trkpt>
      <trkpt lat="50.598119487985969" lon="6.13018493168056">
        <ele>437.54000000000002</ele>
        <time>2013-07-16T12:26:43Z</time>
      </trkpt>
      <trkpt lat="50.59798076748848" lon="6.130363969132304">
        <ele>436.10000000000002</ele>
        <time>2013-07-16T12:26:55Z</time>
      </trkpt>
      <trkpt lat="50.597869204357266" lon="6.13048491999507">
        <ele>435.61000000000001</ele>
        <time>2013-07-16T12:27:04Z</time>
      </trkpt>
      <trkpt lat="50.597769627347589" lon="6.130588268861175">
        <ele>435.13</ele>
        <time>2013-07-16T12:27:16Z</time>
      </trkpt>
      <trkpt lat="50.597737692296505" lon="6.130661610513926">
        <ele>434.64999999999998</ele>
        <time>2013-07-16T12:27:29Z</time>
      </trkpt>
      <trkpt lat="50.597710367292166" lon="6.130762109532952">
        <ele>434.17000000000002</ele>
        <time>2013-07-16T12:27:47Z</time>
      </trkpt>
      <trkpt lat="50.597620513290167" lon="6.130938632413745">
        <ele>432.73000000000002</ele>
        <time>2013-07-16T12:28:02Z</time>
      </trkpt>
      <trkpt lat="50.597503837198019" lon="6.130987163633108">
        <ele>432.25</ele>
        <time>2013-07-16T12:28:10Z</time>
      </trkpt>
      <trkpt lat="50.597353549674153" lon="6.131092607975006">
        <ele>431.29000000000002</ele>
        <time>2013-07-16T12:28:25Z</time>
      </trkpt>
      <trkpt lat="50.597209800034761" lon="6.131214397028089">
        <ele>430.81</ele>
        <time>2013-07-16T12:28:35Z</time>
      </trkpt>
      <trkpt lat="50.597032606601715" lon="6.131327217444778">
        <ele>429.37</ele>
        <time>2013-07-16T12:28:47Z</time>
      </trkpt>
      <trkpt lat="50.596829680725932" lon="6.131427213549614">
        <ele>428.39999999999998</ele>
        <time>2013-07-16T12:29:03Z</time>
      </trkpt>
      <trkpt lat="50.596767067909241" lon="6.131437104195356">
        <ele>427.92000000000002</ele>
        <time>2013-07-16T12:29:08Z</time>
      </trkpt>
      <trkpt lat="50.596840744838119" lon="6.131234848871827">
        <ele>426.95999999999998</ele>
        <time>2013-07-16T12:29:21Z</time>
      </trkpt>
      <trkpt lat="50.597023889422417" lon="6.131077520549297">
        <ele>426</ele>
        <time>2013-07-16T12:29:38Z</time>
      </trkpt>
      <trkpt lat="50.597193958237767" lon="6.130930501967669">
        <ele>425.51999999999998</ele>
        <time>2013-07-16T12:29:54Z</time>
      </trkpt>
      <trkpt lat="50.597362266853452" lon="6.130676781758666">
        <ele>424.56</ele>
        <time>2013-07-16T12:30:12Z</time>
      </trkpt>
      <trkpt lat="50.597409708425403" lon="6.130610145628452">
        <ele>424.07999999999998</ele>
        <time>2013-07-16T12:30:18Z</time>
      </trkpt>
      <trkpt lat="50.597569048404694" lon="6.130371429026127">
        <ele>423.12</ele>
        <time>2013-07-16T12:30:35Z</time>
      </trkpt>
      <trkpt lat="50.597717659547925" lon="6.13016095943749">
        <ele>422.16000000000003</ele>
        <time>2013-07-16T12:30:51Z</time>
      </trkpt>
      <trkpt lat="50.597832994535565" lon="6.129886619746685">
        <ele>421.19</ele>
        <time>2013-07-16T12:31:07Z</time>
      </trkpt>
      <trkpt lat="50.597948161885142" lon="6.129569699987769">
        <ele>420.23000000000002</ele>
        <time>2013-07-16T12:31:25Z</time>
      </trkpt>
      <trkpt lat="50.598087636753917" lon="6.129208523780108">
        <ele>417.82999999999998</ele>
        <time>2013-07-16T12:31:46Z</time>
      </trkpt>
      <trkpt lat="50.598157793283463" lon="6.129076257348061">
        <ele>417.35000000000002</ele>
        <time>2013-07-16T12:31:55Z</time>
      </trkpt>
      <trkpt lat="50.598234068602324" lon="6.128805270418525">
        <ele>415.91000000000003</ele>
        <time>2013-07-16T12:32:10Z</time>
      </trkpt>
      <trkpt lat="50.598122254014015" lon="6.12845859490335">
        <ele>415.91000000000003</ele>
        <time>2013-07-16T12:32:29Z</time>
      </trkpt>
      <trkpt lat="50.598106496036053" lon="6.128416014835239">
        <ele>415.43000000000001</ele>
        <time>2013-07-16T12:32:32Z</time>
      </trkpt>
      <trkpt lat="50.598089061677456" lon="6.128340074792504">
        <ele>415.43000000000001</ele>
        <time>2013-07-16T12:32:37Z</time>
      </trkpt>
      <trkpt lat="50.598059557378292" lon="6.128286262974143">
        <ele>415.43000000000001</ele>
        <time>2013-07-16T12:32:41Z</time>
      </trkpt>
      <trkpt lat="50.597958723083138" lon="6.127918045967817">
        <ele>417.35000000000002</ele>
        <time>2013-07-16T12:32:55Z</time>
      </trkpt>
      <trkpt lat="50.59792947024107" lon="6.127330726012588">
        <ele>419.75</ele>
        <time>2013-07-16T12:33:08Z</time>
      </trkpt>
      <trkpt lat="50.597996944561601" lon="6.126940045505762">
        <ele>421.19</ele>
        <time>2013-07-16T12:33:18Z</time>
      </trkpt>
      <trkpt lat="50.598097946494818" lon="6.126448949798942">
        <ele>424.07999999999998</ele>
        <time>2013-07-16T12:33:31Z</time>
      </trkpt>
      <trkpt lat="50.598143711686134" lon="6.125757526606321">
        <ele>426.48000000000002</ele>
        <time>2013-07-16T12:33:45Z</time>
      </trkpt>
      <trkpt lat="50.598091157153249" lon="6.125173475593329">
        <ele>428.39999999999998</ele>
        <time>2013-07-16T12:33:58Z</time>
      </trkpt>
      <trkpt lat="50.598054025322199" lon="6.125011285766959">
        <ele>428.88999999999999</ele>
        <time>2013-07-16T12:34:06Z</time>
      </trkpt>
      <trkpt lat="50.598038351163268" lon="6.124937944114208">
        <ele>428.88999999999999</ele>
        <time>2013-07-16T12:34:10Z</time>
      </trkpt>
      <trkpt lat="50.597969200462103" lon="6.124860662966967">
        <ele>430.32999999999998</ele>
        <time>2013-07-16T12:34:22Z</time>
      </trkpt>
      <trkpt lat="50.597963500767946" lon="6.124870050698519">
        <ele>430.32999999999998</ele>
        <time>2013-07-16T12:34:23Z</time>
      </trkpt>
      <trkpt lat="50.597900049760938" lon="6.12496979534626">
        <ele>431.29000000000002</ele>
        <time>2013-07-16T12:34:31Z</time>
      </trkpt>
      <trkpt lat="50.597872976213694" lon="6.125043639913201">
        <ele>431.76999999999998</ele>
        <time>2013-07-16T12:34:36Z</time>
      </trkpt>
      <trkpt lat="50.597807597368956" lon="6.125172469764948">
        <ele>432.25</ele>
        <time>2013-07-16T12:34:46Z</time>
      </trkpt>
      <trkpt lat="50.597752025350928" lon="6.125389477238059">
        <ele>433.20999999999998</ele>
        <time>2013-07-16T12:35:00Z</time>
      </trkpt>
      <trkpt lat="50.59765831567347" lon="6.125670690089464">
        <ele>434.17000000000002</ele>
        <time>2013-07-16T12:35:16Z</time>
      </trkpt>
      <trkpt lat="50.597653286531568" lon="6.12569441087544">
        <ele>434.17000000000002</ele>
        <time>2013-07-16T12:35:17Z</time>
      </trkpt>
      <trkpt lat="50.597603330388665" lon="6.125900940969586">
        <ele>434.64999999999998</ele>
        <time>2013-07-16T12:35:30Z</time>
      </trkpt>
      <trkpt lat="50.597559995949268" lon="6.126113086938858">
        <ele>435.61000000000001</ele>
        <time>2013-07-16T12:35:44Z</time>
      </trkpt>
      <trkpt lat="50.597456898540258" lon="6.126412320882082">
        <ele>437.06</ele>
        <time>2013-07-16T12:36:01Z</time>
      </trkpt>
      <trkpt lat="50.597435524687171" lon="6.12647233530879">
        <ele>437.06</ele>
        <time>2013-07-16T12:36:04Z</time>
      </trkpt>
      <trkpt lat="50.597301917150617" lon="6.126717422157526">
        <ele>438.5</ele>
        <time>2013-07-16T12:36:21Z</time>
      </trkpt>
      <trkpt lat="50.597167136147618" lon="6.126948930323124">
        <ele>439.45999999999998</ele>
        <time>2013-07-16T12:36:37Z</time>
      </trkpt>
      <trkpt lat="50.597011148929596" lon="6.127181360498071">
        <ele>440.42000000000002</ele>
        <time>2013-07-16T12:36:54Z</time>
      </trkpt>
      <trkpt lat="50.596846109256148" lon="6.127412365749478">
        <ele>441.86000000000001</ele>
        <time>2013-07-16T12:37:12Z</time>
      </trkpt>
      <trkpt lat="50.596761954948306" lon="6.127582099288702">
        <ele>441.86000000000001</ele>
        <time>2013-07-16T12:37:22Z</time>
      </trkpt>
      <trkpt lat="50.596718201413751" lon="6.127640185877681">
        <ele>442.33999999999997</ele>
        <time>2013-07-16T12:37:27Z</time>
      </trkpt>
      <trkpt lat="50.596586186438799" lon="6.127917375415564">
        <ele>443.79000000000002</ele>
        <time>2013-07-16T12:37:45Z</time>
      </trkpt>
      <trkpt lat="50.596492812037468" lon="6.128056347370148">
        <ele>444.26999999999998</ele>
        <time>2013-07-16T12:37:55Z</time>
      </trkpt>
      <trkpt lat="50.596456602215767" lon="6.128140417858958">
        <ele>444.26999999999998</ele>
        <time>2013-07-16T12:38:00Z</time>
      </trkpt>
      <trkpt lat="50.596443777903914" lon="6.128178304061294">
        <ele>444.75</ele>
        <time>2013-07-16T12:38:02Z</time>
      </trkpt>
      <trkpt lat="50.596335148438811" lon="6.128416517749429">
        <ele>445.23000000000002</ele>
        <time>2013-07-16T12:38:18Z</time>
      </trkpt>
      <trkpt lat="50.596236828714609" lon="6.128552556037903">
        <ele>446.19</ele>
        <time>2013-07-16T12:38:31Z</time>
      </trkpt>
      <trkpt lat="50.596176562830806" lon="6.12867602147162">
        <ele>446.19</ele>
        <time>2013-07-16T12:38:48Z</time>
      </trkpt>
      <trkpt lat="50.596038177609444" lon="6.128887329250574">
        <ele>447.14999999999998</ele>
        <time>2013-07-16T12:39:03Z</time>
      </trkpt>
      <trkpt lat="50.595946563407779" lon="6.12916468642652">
        <ele>448.11000000000001</ele>
        <time>2013-07-16T12:39:18Z</time>
      </trkpt>
      <trkpt lat="50.595810357481241" lon="6.12947691231966">
        <ele>449.55000000000001</ele>
        <time>2013-07-16T12:39:35Z</time>
      </trkpt>
      <trkpt lat="50.595767442137003" lon="6.129556205123663">
        <ele>450.02999999999997</ele>
        <time>2013-07-16T12:39:40Z</time>
      </trkpt>
      <trkpt lat="50.595711451023817" lon="6.12967430613935">
        <ele>450.02999999999997</ele>
        <time>2013-07-16T12:39:47Z</time>
      </trkpt>
      <trkpt lat="50.595547584816813" lon="6.129983849823475">
        <ele>451.48000000000002</ele>
        <time>2013-07-16T12:40:07Z</time>
      </trkpt>
      <trkpt lat="50.595417665317655" lon="6.130278557538986">
        <ele>452.44</ele>
        <time>2013-07-16T12:40:24Z</time>
      </trkpt>
      <trkpt lat="50.59528355486691" lon="6.130551807582378">
        <ele>453.39999999999998</ele>
        <time>2013-07-16T12:40:40Z</time>
      </trkpt>
      <trkpt lat="50.595161849632859" lon="6.130822626873851">
        <ele>454.83999999999997</ele>
        <time>2013-07-16T12:40:57Z</time>
      </trkpt>
      <trkpt lat="50.595073420554399" lon="6.130993198603392">
        <ele>455.31999999999999</ele>
        <time>2013-07-16T12:41:09Z</time>
      </trkpt>
      <trkpt lat="50.594971664249897" lon="6.131149353459477">
        <ele>456.27999999999997</ele>
        <time>2013-07-16T12:41:20Z</time>
      </trkpt>
      <trkpt lat="50.594866052269936" lon="6.131321853026748">
        <ele>456.75999999999999</ele>
        <time>2013-07-16T12:41:30Z</time>
      </trkpt>
      <trkpt lat="50.594704616814852" lon="6.131502063944936">
        <ele>457.24000000000001</ele>
        <time>2013-07-16T12:41:44Z</time>
      </trkpt>
      <trkpt lat="50.594559106975794" lon="6.131791491061449">
        <ele>458.20999999999998</ele>
        <time>2013-07-16T12:42:01Z</time>
      </trkpt>
      <trkpt lat="50.594428516924381" lon="6.132061807438731">
        <ele>459.17000000000002</ele>
        <time>2013-07-16T12:42:17Z</time>
      </trkpt>
      <trkpt lat="50.594316283240914" lon="6.132311085239053">
        <ele>460.13</ele>
        <time>2013-07-16T12:42:31Z</time>
      </trkpt>
      <trkpt lat="50.594196757301688" lon="6.132614007219672">
        <ele>461.08999999999997</ele>
        <time>2013-07-16T12:42:48Z</time>
      </trkpt>
      <trkpt lat="50.594073543325067" lon="6.13293687812984">
        <ele>462.05000000000001</ele>
        <time>2013-07-16T12:43:05Z</time>
      </trkpt>
      <trkpt lat="50.593960052356124" lon="6.133220102638006">
        <ele>463.00999999999999</ele>
        <time>2013-07-16T12:43:20Z</time>
      </trkpt>
      <trkpt lat="50.593883274123073" lon="6.133448928594589">
        <ele>463.97000000000003</ele>
        <time>2013-07-16T12:43:33Z</time>
      </trkpt>
      <trkpt lat="50.593764167279005" lon="6.133787641301751">
        <ele>465.42000000000002</ele>
        <time>2013-07-16T12:43:51Z</time>
      </trkpt>
      <trkpt lat="50.593639779835939" lon="6.134046725928783">
        <ele>466.38</ele>
        <time>2013-07-16T12:44:06Z</time>
      </trkpt>
      <trkpt lat="50.593517571687698" lon="6.134257530793548">
        <ele>466.86000000000001</ele>
        <time>2013-07-16T12:44:22Z</time>
      </trkpt>
      <trkpt lat="50.593488151207566" lon="6.134335063397884">
        <ele>467.33999999999997</ele>
        <time>2013-07-16T12:44:27Z</time>
      </trkpt>
      <trkpt lat="50.593409612774849" lon="6.134522063657641">
        <ele>467.81999999999999</ele>
        <time>2013-07-16T12:44:37Z</time>
      </trkpt>
      <trkpt lat="50.593314142897725" lon="6.134744603186846">
        <ele>468.30000000000001</ele>
        <time>2013-07-16T12:44:49Z</time>
      </trkpt>
      <trkpt lat="50.593275586143136" lon="6.134847365319729">
        <ele>469.25999999999999</ele>
        <time>2013-07-16T12:44:54Z</time>
      </trkpt>
      <trkpt lat="50.593209620565176" lon="6.135127739980817">
        <ele>470.22000000000003</ele>
        <time>2013-07-16T12:45:07Z</time>
      </trkpt>
      <trkpt lat="50.593150360509753" lon="6.135418005287647">
        <ele>470.69999999999999</ele>
        <time>2013-07-16T12:45:21Z</time>
      </trkpt>
      <trkpt lat="50.593106523156166" lon="6.135742804035544">
        <ele>471.18000000000001</ele>
        <time>2013-07-16T12:45:35Z</time>
      </trkpt>
      <trkpt lat="50.593070816248655" lon="6.135950507596135">
        <ele>471.66000000000003</ele>
        <time>2013-07-16T12:45:45Z</time>
      </trkpt>
      <trkpt lat="50.593063523992896" lon="6.136032314971089">
        <ele>471.66000000000003</ele>
        <time>2013-07-16T12:45:49Z</time>
      </trkpt>
      <trkpt lat="50.59297819621861" lon="6.136349653825164">
        <ele>472.63</ele>
        <time>2013-07-16T12:46:06Z</time>
      </trkpt>
      <trkpt lat="50.592925976961851" lon="6.136514022946358">
        <ele>473.11000000000001</ele>
        <time>2013-07-16T12:46:15Z</time>
      </trkpt>
      <trkpt lat="50.592841235920787" lon="6.136752488091588">
        <ele>474.55000000000001</ele>
        <time>2013-07-16T12:46:29Z</time>
      </trkpt>
      <trkpt lat="50.592773426324129" lon="6.136919287964702">
        <ele>475.02999999999997</ele>
        <time>2013-07-16T12:46:40Z</time>
      </trkpt>
      <trkpt lat="50.592671250924468" lon="6.13724609836936">
        <ele>475.99000000000001</ele>
        <time>2013-07-16T12:46:57Z</time>
      </trkpt>
      <trkpt lat="50.592569829896092" lon="6.137607777491212">
        <ele>477.43000000000001</ele>
        <time>2013-07-16T12:47:17Z</time>
      </trkpt>
      <trkpt lat="50.592442341148853" lon="6.137922937050462">
        <ele>478.38999999999999</ele>
        <time>2013-07-16T12:47:33Z</time>
      </trkpt>
      <trkpt lat="50.592329604551196" lon="6.138247484341264">
        <ele>479.35000000000002</ele>
        <time>2013-07-16T12:47:50Z</time>
      </trkpt>
      <trkpt lat="50.592219047248363" lon="6.138473879545927">
        <ele>480.31999999999999</ele>
        <time>2013-07-16T12:48:04Z</time>
      </trkpt>
      <trkpt lat="50.592145454138517" lon="6.138671021908522">
        <ele>480.80000000000001</ele>
        <time>2013-07-16T12:48:16Z</time>
      </trkpt>
      <trkpt lat="50.592074543237686" lon="6.138959610834718">
        <ele>481.75999999999999</ele>
        <time>2013-07-16T12:48:32Z</time>
      </trkpt>
      <trkpt lat="50.59204738587141" lon="6.139051644131541">
        <ele>482.24000000000001</ele>
        <time>2013-07-16T12:48:37Z</time>
      </trkpt>
      <trkpt lat="50.591992735862732" lon="6.139256749302149">
        <ele>483.19999999999999</ele>
        <time>2013-07-16T12:48:49Z</time>
      </trkpt>
      <trkpt lat="50.591913694515824" lon="6.139569394290447">
        <ele>483.68000000000001</ele>
        <time>2013-07-16T12:49:05Z</time>
      </trkpt>
      <trkpt lat="50.591801712289453" lon="6.139886062592268">
        <ele>484.63999999999999</ele>
        <time>2013-07-16T12:49:21Z</time>
      </trkpt>
      <trkpt lat="50.591730130836368" lon="6.140089994296432">
        <ele>485.12</ele>
        <time>2013-07-16T12:49:31Z</time>
      </trkpt>
      <trkpt lat="50.591633738949895" lon="6.140331476926804">
        <ele>486.56</ele>
        <time>2013-07-16T12:49:45Z</time>
      </trkpt>
      <trkpt lat="50.591506669297814" lon="6.140628699213266">
        <ele>487.05000000000001</ele>
        <time>2013-07-16T12:50:01Z</time>
      </trkpt>
      <trkpt lat="50.591377671808004" lon="6.140870517119765">
        <ele>487.52999999999997</ele>
        <time>2013-07-16T12:50:17Z</time>
      </trkpt>
      <trkpt lat="50.591364176943898" lon="6.140907313674688">
        <ele>488.00999999999999</ele>
        <time>2013-07-16T12:50:21Z</time>
      </trkpt>
      <trkpt lat="50.59127583168447" lon="6.14104276522994">
        <ele>488.49000000000001</ele>
        <time>2013-07-16T12:50:32Z</time>
      </trkpt>
      <trkpt lat="50.591154294088483" lon="6.141167487949133">
        <ele>489.44999999999999</ele>
        <time>2013-07-16T12:50:42Z</time>
      </trkpt>
      <trkpt lat="50.591088077053428" lon="6.141196740791202">
        <ele>489.44999999999999</ele>
        <time>2013-07-16T12:50:48Z</time>
      </trkpt>
      <trkpt lat="50.591053627431393" lon="6.141213672235608">
        <ele>489.93000000000001</ele>
        <time>2013-07-16T12:50:52Z</time>
      </trkpt>
      <trkpt lat="50.590917086228728" lon="6.141057768836618">
        <ele>490.41000000000003</ele>
        <time>2013-07-16T12:51:06Z</time>
      </trkpt>
      <trkpt lat="50.590861849486828" lon="6.14093380048871">
        <ele>490.88999999999999</ele>
        <time>2013-07-16T12:51:16Z</time>
      </trkpt>
      <trkpt lat="50.590817341580987" lon="6.140787703916431">
        <ele>491.85000000000002</ele>
        <time>2013-07-16T12:51:24Z</time>
      </trkpt>
      <trkpt lat="50.590732768177986" lon="6.14053943194449">
        <ele>492.32999999999998</ele>
        <time>2013-07-16T12:51:39Z</time>
      </trkpt>
      <trkpt lat="50.590711310505867" lon="6.140460893511772">
        <ele>492.32999999999998</ele>
        <time>2013-07-16T12:51:43Z</time>
      </trkpt>
      <trkpt lat="50.590697396546602" lon="6.140427365899086">
        <ele>492.32999999999998</ele>
        <time>2013-07-16T12:51:45Z</time>
      </trkpt>
      <trkpt lat="50.590666215866804" lon="6.140100220218301">
        <ele>493.29000000000002</ele>
        <time>2013-07-16T12:52:01Z</time>
      </trkpt>
      <trkpt lat="50.590652134269476" lon="6.139756562188268">
        <ele>493.76999999999998</ele>
        <time>2013-07-16T12:52:16Z</time>
      </trkpt>
      <trkpt lat="50.590649200603366" lon="6.139739044010639">
        <ele>493.76999999999998</ele>
        <time>2013-07-16T12:52:17Z</time>
      </trkpt>
      <trkpt lat="50.590626485645771" lon="6.139642484486103">
        <ele>493.76999999999998</ele>
        <time>2013-07-16T12:52:23Z</time>
      </trkpt>
      <trkpt lat="50.590671999379992" lon="6.139362864196301">
        <ele>495.22000000000003</ele>
        <time>2013-07-16T12:52:37Z</time>
      </trkpt>
      <trkpt lat="50.590639477595687" lon="6.139084836468101">
        <ele>495.69999999999999</ele>
        <time>2013-07-16T12:52:50Z</time>
      </trkpt>
      <trkpt lat="50.590620785951614" lon="6.138838827610016">
        <ele>496.18000000000001</ele>
        <time>2013-07-16T12:53:02Z</time>
      </trkpt>
      <trkpt lat="50.590596226975322" lon="6.138674290850759">
        <ele>496.66000000000003</ele>
        <time>2013-07-16T12:53:10Z</time>
      </trkpt>
      <trkpt lat="50.590576361864805" lon="6.138297105208039">
        <ele>497.62</ele>
        <time>2013-07-16T12:53:29Z</time>
      </trkpt>
      <trkpt lat="50.590605279430747" lon="6.138048330321908">
        <ele>498.10000000000002</ele>
        <time>2013-07-16T12:53:43Z</time>
      </trkpt>
      <trkpt lat="50.590605614706874" lon="6.137914136052132">
        <ele>498.10000000000002</ele>
        <time>2013-07-16T12:53:50Z</time>
      </trkpt>
      <trkpt lat="50.590618941932917" lon="6.137810871005058">
        <ele>499.06</ele>
        <time>2013-07-16T12:53:55Z</time>
      </trkpt>
      <trkpt lat="50.590678118169308" lon="6.13751633092761">
        <ele>499.54000000000002</ele>
        <time>2013-07-16T12:54:10Z</time>
      </trkpt>
      <trkpt lat="50.590741066262126" lon="6.137119363993406">
        <ele>500.5</ele>
        <time>2013-07-16T12:54:30Z</time>
      </trkpt>
      <trkpt lat="50.59077886864543" lon="6.136785596609116">
        <ele>500.5</ele>
        <time>2013-07-16T12:54:47Z</time>
      </trkpt>
      <trkpt lat="50.590798230841756" lon="6.136506730690599">
        <ele>501.45999999999998</ele>
        <time>2013-07-16T12:55:01Z</time>
      </trkpt>
      <trkpt lat="50.590797225013375" lon="6.136411763727665">
        <ele>502.43000000000001</ele>
        <time>2013-07-16T12:55:06Z</time>
      </trkpt>
      <trkpt lat="50.590786999091506" lon="6.136094005778432">
        <ele>503.38999999999999</ele>
        <time>2013-07-16T12:55:24Z</time>
      </trkpt>
      <trkpt lat="50.590788004919887" lon="6.135754287242889">
        <ele>503.38999999999999</ele>
        <time>2013-07-16T12:55:41Z</time>
      </trkpt>
      <trkpt lat="50.590783813968301" lon="6.135445749387145">
        <ele>503.38999999999999</ele>
        <time>2013-07-16T12:55:57Z</time>
      </trkpt>
      <trkpt lat="50.590742994099855" lon="6.135221114382148">
        <ele>504.35000000000002</ele>
        <time>2013-07-16T12:56:10Z</time>
      </trkpt>
      <trkpt lat="50.590723715722561" lon="6.134936045855284">
        <ele>504.82999999999998</ele>
        <time>2013-07-16T12:56:27Z</time>
      </trkpt>
      <trkpt lat="50.590681890025735" lon="6.134730186313391">
        <ele>505.79000000000002</ele>
        <time>2013-07-16T12:56:39Z</time>
      </trkpt>
      <trkpt lat="50.590638387948275" lon="6.13445358350873">
        <ele>505.79000000000002</ele>
        <time>2013-07-16T12:56:53Z</time>
      </trkpt>
      <trkpt lat="50.590561190620065" lon="6.134237917140126">
        <ele>507.23000000000002</ele>
        <time>2013-07-16T12:57:05Z</time>
      </trkpt>
      <trkpt lat="50.590525818988681" lon="6.134158205240965">
        <ele>507.70999999999998</ele>
        <time>2013-07-16T12:57:10Z</time>
      </trkpt>
      <trkpt lat="50.590481394901872" lon="6.133978832513094">
        <ele>507.70999999999998</ele>
        <time>2013-07-16T12:57:19Z</time>
      </trkpt>
      <trkpt lat="50.590475359931588" lon="6.133930636569858">
        <ele>508.19</ele>
        <time>2013-07-16T12:57:21Z</time>
      </trkpt>
      <trkpt lat="50.590349715203047" lon="6.133642131462693">
        <ele>508.67000000000002</ele>
        <time>2013-07-16T12:57:40Z</time>
      </trkpt>
      <trkpt lat="50.5902208853513" lon="6.133469715714455">
        <ele>509.16000000000003</ele>
        <time>2013-07-16T12:57:55Z</time>
      </trkpt>
      <trkpt lat="50.590208312496543" lon="6.133439624682069">
        <ele>509.63999999999999</ele>
        <time>2013-07-16T12:57:57Z</time>
      </trkpt>
      <trkpt lat="50.59013438411057" lon="6.13312404602766">
        <ele>510.60000000000002</ele>
        <time>2013-07-16T12:58:12Z</time>
      </trkpt>
      <trkpt lat="50.590052325278521" lon="6.133046932518482">
        <ele>511.07999999999998</ele>
        <time>2013-07-16T12:58:19Z</time>
      </trkpt>
      <trkpt lat="50.589860295876861" lon="6.132881976664066">
        <ele>512.03999999999996</ele>
        <time>2013-07-16T12:58:37Z</time>
      </trkpt>
      <trkpt lat="50.589675223454833" lon="6.132712662220001">
        <ele>513</ele>
        <time>2013-07-16T12:58:52Z</time>
      </trkpt>
      <trkpt lat="50.589474057778716" lon="6.132605541497469">
        <ele>513.48000000000002</ele>
        <time>2013-07-16T12:59:08Z</time>
      </trkpt>
      <trkpt lat="50.589313125237823" lon="6.132516441866756">
        <ele>513.96000000000004</ele>
        <time>2013-07-16T12:59:22Z</time>
      </trkpt>
      <trkpt lat="50.589154791086912" lon="6.132405214011669">
        <ele>513.96000000000004</ele>
        <time>2013-07-16T12:59:35Z</time>
      </trkpt>
      <trkpt lat="50.589012801647186" lon="6.132306307554245">
        <ele>513.96000000000004</ele>
        <time>2013-07-16T12:59:47Z</time>
      </trkpt>
      <trkpt lat="50.588929653167725" lon="6.132265822961927">
        <ele>513.96000000000004</ele>
        <time>2013-07-16T12:59:53Z</time>
      </trkpt>
      <trkpt lat="50.588827645406127" lon="6.132183931767941">
        <ele>514.44000000000005</ele>
        <time>2013-07-16T13:00:01Z</time>
      </trkpt>
      <trkpt lat="50.588686326518655" lon="6.132095418870449">
        <ele>514.44000000000005</ele>
        <time>2013-07-16T13:00:12Z</time>
      </trkpt>
      <trkpt lat="50.588532350957394" lon="6.131980754435062">
        <ele>514.44000000000005</ele>
        <time>2013-07-16T13:00:26Z</time>
      </trkpt>
      <trkpt lat="50.58837778866291" lon="6.131836585700512">
        <ele>514.44000000000005</ele>
        <time>2013-07-16T13:00:42Z</time>
      </trkpt>
      <trkpt lat="50.58816178701818" lon="6.13169283606112">
        <ele>514.44000000000005</ele>
        <time>2013-07-16T13:01:01Z</time>
      </trkpt>
      <trkpt lat="50.587953580543399" lon="6.131579009816051">
        <ele>513.96000000000004</ele>
        <time>2013-07-16T13:01:18Z</time>
      </trkpt>
      <trkpt lat="50.587884932756424" lon="6.131519665941596">
        <ele>513.96000000000004</ele>
        <time>2013-07-16T13:01:24Z</time>
      </trkpt>
      <trkpt lat="50.587820140644908" lon="6.131473649293184">
        <ele>513.96000000000004</ele>
        <time>2013-07-16T13:01:29Z</time>
      </trkpt>
      <trkpt lat="50.587760461494327" lon="6.131444899365306">
        <ele>513.96000000000004</ele>
        <time>2013-07-16T13:01:33Z</time>
      </trkpt>
      <trkpt lat="50.587731543928385" lon="6.131414556875825">
        <ele>513</ele>
        <time>2013-07-16T13:01:36Z</time>
      </trkpt>
      <trkpt lat="50.58767412789166" lon="6.13138253800571">
        <ele>513</ele>
        <time>2013-07-16T13:01:41Z</time>
      </trkpt>
      <trkpt lat="50.587492575868964" lon="6.131258821114898">
        <ele>512.03999999999996</ele>
        <time>2013-07-16T13:01:57Z</time>
      </trkpt>
      <trkpt lat="50.58740590699017" lon="6.131212553009391">
        <ele>512.03999999999996</ele>
        <time>2013-07-16T13:02:04Z</time>
      </trkpt>
      <trkpt lat="50.587218068540096" lon="6.131077855825424">
        <ele>511.07999999999998</ele>
        <time>2013-07-16T13:02:20Z</time>
      </trkpt>
      <trkpt lat="50.587088903412223" lon="6.131007364019752">
        <ele>510.60000000000002</ele>
        <time>2013-07-16T13:02:31Z</time>
      </trkpt>
      <trkpt lat="50.587031068280339" lon="6.130966125056148">
        <ele>510.60000000000002</ele>
        <time>2013-07-16T13:02:36Z</time>
      </trkpt>
      <trkpt lat="50.586945656687021" lon="6.130890268832445">
        <ele>509.63999999999999</ele>
        <time>2013-07-16T13:02:44Z</time>
      </trkpt>
      <trkpt lat="50.586914895102382" lon="6.130876187235117">
        <ele>509.63999999999999</ele>
        <time>2013-07-16T13:02:47Z</time>
      </trkpt>
      <trkpt lat="50.586801990866661" lon="6.130798906087875">
        <ele>509.63999999999999</ele>
        <time>2013-07-16T13:02:57Z</time>
      </trkpt>
      <trkpt lat="50.586639884859324" lon="6.130719864740968">
        <ele>508.67000000000002</ele>
        <time>2013-07-16T13:03:11Z</time>
      </trkpt>
      <trkpt lat="50.5864183511585" lon="6.130577037110925">
        <ele>507.70999999999998</ele>
        <time>2013-07-16T13:03:30Z</time>
      </trkpt>
      <trkpt lat="50.586224729195237" lon="6.130406968295574">
        <ele>506.26999999999998</ele>
        <time>2013-07-16T13:03:49Z</time>
      </trkpt>
      <trkpt lat="50.586088774725795" lon="6.130191050469875">
        <ele>505.31</ele>
        <time>2013-07-16T13:04:06Z</time>
      </trkpt>
      <trkpt lat="50.586084919050336" lon="6.130116200074554">
        <ele>505.31</ele>
        <time>2013-07-16T13:04:18Z</time>
      </trkpt>
      <trkpt lat="50.586117189377546" lon="6.13002659752965">
        <ele>505.31</ele>
        <time>2013-07-16T13:04:32Z</time>
      </trkpt>
      <trkpt lat="50.586138814687729" lon="6.130056604743004">
        <ele>505.31</ele>
        <time>2013-07-16T13:04:35Z</time>
      </trkpt>
      <trkpt lat="50.586139149963856" lon="6.130158361047506">
        <ele>505.31</ele>
        <time>2013-07-16T13:04:41Z</time>
      </trkpt>
      <trkpt lat="50.586091205477715" lon="6.13033002242446">
        <ele>514.91999999999996</ele>
        <time>2013-07-16T15:08:25Z</time>
      </trkpt>
      <trkpt lat="50.586097659543157" lon="6.130282245576382">
        <ele>513.48000000000002</ele>
        <time>2013-07-16T15:08:34Z</time>
      </trkpt>
      <trkpt lat="50.586105873808265" lon="6.130261290818453">
        <ele>513.48000000000002</ele>
        <time>2013-07-16T15:08:36Z</time>
      </trkpt>
      <trkpt lat="50.58614325709641" lon="6.130140339955688">
        <ele>513.48000000000002</ele>
        <time>2013-07-16T15:08:43Z</time>
      </trkpt>
      <trkpt lat="50.586212072521448" lon="6.129944454878569">
        <ele>513</ele>
        <time>2013-07-16T15:08:55Z</time>
      </trkpt>
      <trkpt lat="50.586313828825951" lon="6.129722921177745">
        <ele>513</ele>
        <time>2013-07-16T15:09:08Z</time>
      </trkpt>
      <trkpt lat="50.586423212662339" lon="6.129523012787104">
        <ele>512.03999999999996</ele>
        <time>2013-07-16T15:09:21Z</time>
      </trkpt>
      <trkpt lat="50.58654005639255" lon="6.129313046112657">
        <ele>512.03999999999996</ele>
        <time>2013-07-16T15:09:34Z</time>
      </trkpt>
      <trkpt lat="50.586641309782863" lon="6.129047507420182">
        <ele>512.03999999999996</ele>
        <time>2013-07-16T15:09:48Z</time>
      </trkpt>
      <trkpt lat="50.586703922599554" lon="6.128783896565437">
        <ele>512.03999999999996</ele>
        <time>2013-07-16T15:10:03Z</time>
      </trkpt>
      <trkpt lat="50.586565872654319" lon="6.128686582669616">
        <ele>510.12</ele>
        <time>2013-07-16T15:10:19Z</time>
      </trkpt>
      <trkpt lat="50.586414914578199" lon="6.12867308780551">
        <ele>509.63999999999999</ele>
        <time>2013-07-16T15:10:32Z</time>
      </trkpt>
      <trkpt lat="50.58622925542295" lon="6.128761684522033">
        <ele>508.19</ele>
        <time>2013-07-16T15:10:47Z</time>
      </trkpt>
      <trkpt lat="50.586024988442659" lon="6.128797978162766">
        <ele>507.23000000000002</ele>
        <time>2013-07-16T15:11:03Z</time>
      </trkpt>
      <trkpt lat="50.58584813028574" lon="6.128915157169104">
        <ele>506.26999999999998</ele>
        <time>2013-07-16T15:11:20Z</time>
      </trkpt>
      <trkpt lat="50.585739417001605" lon="6.129032168537378">
        <ele>506.26999999999998</ele>
        <time>2013-07-16T15:11:34Z</time>
      </trkpt>
      <trkpt lat="50.58559893630445" lon="6.129197375848889">
        <ele>505.79000000000002</ele>
        <time>2013-07-16T15:11:49Z</time>
      </trkpt>
      <trkpt lat="50.585413612425327" lon="6.129370043054223">
        <ele>505.31</ele>
        <time>2013-07-16T15:12:04Z</time>
      </trkpt>
      <trkpt lat="50.585220912471414" lon="6.129542039707303">
        <ele>504.82999999999998</ele>
        <time>2013-07-16T15:12:20Z</time>
      </trkpt>
      <trkpt lat="50.585075654089451" lon="6.129612363874912">
        <ele>504.35000000000002</ele>
        <time>2013-07-16T15:12:31Z</time>
      </trkpt>
      <trkpt lat="50.584995774552226" lon="6.129615129902959">
        <ele>504.35000000000002</ele>
        <time>2013-07-16T15:12:37Z</time>
      </trkpt>
      <trkpt lat="50.584873063489795" lon="6.129641281440854">
        <ele>504.35000000000002</ele>
        <time>2013-07-16T15:12:46Z</time>
      </trkpt>
      <trkpt lat="50.584706263616681" lon="6.129594007506967">
        <ele>503.87</ele>
        <time>2013-07-16T15:13:00Z</time>
      </trkpt>
      <trkpt lat="50.584647338837385" lon="6.129599791020155">
        <ele>503.87</ele>
        <time>2013-07-16T15:13:05Z</time>
      </trkpt>
      <trkpt lat="50.584626216441393" lon="6.129614459350705">
        <ele>503.38999999999999</ele>
        <time>2013-07-16T15:13:07Z</time>
      </trkpt>
      <trkpt lat="50.58453468605876" lon="6.129574896767736">
        <ele>502.91000000000003</ele>
        <time>2013-07-16T15:13:14Z</time>
      </trkpt>
      <trkpt lat="50.584361432120204" lon="6.129423100501299">
        <ele>501.94999999999999</ele>
        <time>2013-07-16T15:13:29Z</time>
      </trkpt>
      <trkpt lat="50.584209384396672" lon="6.129300724714994">
        <ele>501.45999999999998</ele>
        <time>2013-07-16T15:13:43Z</time>
      </trkpt>
      <trkpt lat="50.584087679162621" lon="6.129200896248221">
        <ele>500.98000000000002</ele>
        <time>2013-07-16T15:13:56Z</time>
      </trkpt>
      <trkpt lat="50.583937140181661" lon="6.129061672836542">
        <ele>500.5</ele>
        <time>2013-07-16T15:14:08Z</time>
      </trkpt>
      <trkpt lat="50.583860110491514" lon="6.129014985635877">
        <ele>500.01999999999998</ele>
        <time>2013-07-16T15:14:16Z</time>
      </trkpt>
      <trkpt lat="50.583807304501534" lon="6.128946170210838">
        <ele>500.01999999999998</ele>
        <time>2013-07-16T15:14:21Z</time>
      </trkpt>
      <trkpt lat="50.58357696980238" lon="6.12876201979816">
        <ele>499.06</ele>
        <time>2013-07-16T15:14:38Z</time>
      </trkpt>
      <trkpt lat="50.583374630659819" lon="6.128587927669287">
        <ele>498.57999999999998</ele>
        <time>2013-07-16T15:14:58Z</time>
      </trkpt>
      <trkpt lat="50.583236580714583" lon="6.128488937392831">
        <ele>498.57999999999998</ele>
        <time>2013-07-16T15:15:12Z</time>
      </trkpt>
      <trkpt lat="50.583130130544305" lon="6.128273354843259">
        <ele>498.57999999999998</ele>
        <time>2013-07-16T15:15:26Z</time>
      </trkpt>
      <trkpt lat="50.583101883530617" lon="6.128005301579833">
        <ele>498.57999999999998</ele>
        <time>2013-07-16T15:15:39Z</time>
      </trkpt>
      <trkpt lat="50.583036839962006" lon="6.127655608579516">
        <ele>498.10000000000002</ele>
        <time>2013-07-16T15:15:59Z</time>
      </trkpt>
      <trkpt lat="50.583013202995062" lon="6.127487551420927">
        <ele>498.10000000000002</ele>
        <time>2013-07-16T15:16:09Z</time>
      </trkpt>
      <trkpt lat="50.582971964031458" lon="6.127118412405253">
        <ele>497.62</ele>
        <time>2013-07-16T15:16:30Z</time>
      </trkpt>
      <trkpt lat="50.582967018708587" lon="6.126819178462029">
        <ele>497.62</ele>
        <time>2013-07-16T15:16:48Z</time>
      </trkpt>
      <trkpt lat="50.582958636805415" lon="6.126489769667387">
        <ele>496.66000000000003</ele>
        <time>2013-07-16T15:17:06Z</time>
      </trkpt>
      <trkpt lat="50.582960732281208" lon="6.126214927062392">
        <ele>496.66000000000003</ele>
        <time>2013-07-16T15:17:19Z</time>
      </trkpt>
      <trkpt lat="50.58296911418438" lon="6.125916698947549">
        <ele>495.69999999999999</ele>
        <time>2013-07-16T15:17:33Z</time>
      </trkpt>
      <trkpt lat="50.582946063950658" lon="6.125577734783292">
        <ele>495.22000000000003</ele>
        <time>2013-07-16T15:17:48Z</time>
      </trkpt>
      <trkpt lat="50.582930892705917" lon="6.125477906316519">
        <ele>495.22000000000003</ele>
        <time>2013-07-16T15:17:54Z</time>
      </trkpt>
      <trkpt lat="50.582926869392395" lon="6.125429710373282">
        <ele>495.22000000000003</ele>
        <time>2013-07-16T15:17:57Z</time>
      </trkpt>
      <trkpt lat="50.582910357043147" lon="6.125271208584309">
        <ele>495.22000000000003</ele>
        <time>2013-07-16T15:18:06Z</time>
      </trkpt>
      <trkpt lat="50.582938520237803" lon="6.12506752833724">
        <ele>494.25999999999999</ele>
        <time>2013-07-16T15:18:20Z</time>
      </trkpt>
      <trkpt lat="50.582924271002412" lon="6.124948924407363">
        <ele>493.76999999999998</ele>
        <time>2013-07-16T15:18:33Z</time>
      </trkpt>
      <trkpt lat="50.582919577136636" lon="6.124963173642755">
        <ele>493.76999999999998</ele>
        <time>2013-07-16T15:18:43Z</time>
      </trkpt>
      <trkpt lat="50.582917230203748" lon="6.124994605779648">
        <ele>493.76999999999998</ele>
        <time>2013-07-16T15:18:51Z</time>
      </trkpt>
      <trkpt lat="50.58293248526752" lon="6.12498052418232">
        <ele>493.76999999999998</ele>
        <time>2013-07-16T15:19:03Z</time>
      </trkpt>
      <trkpt lat="50.58291781693697" lon="6.124973902478814">
        <ele>493.76999999999998</ele>
        <time>2013-07-16T15:19:27Z</time>
      </trkpt>
      <trkpt lat="50.582923097535968" lon="6.124988570809364">
        <ele>493.76999999999998</ele>
        <time>2013-07-16T15:19:53Z</time>
      </trkpt>
      <trkpt lat="50.582905830815434" lon="6.124916737899184">
        <ele>493.76999999999998</ele>
        <time>2013-07-16T15:20:13Z</time>
      </trkpt>
      <trkpt lat="50.582904824987054" lon="6.124903075397015">
        <ele>493.76999999999998</ele>
        <time>2013-07-16T15:20:14Z</time>
      </trkpt>
      <trkpt lat="50.582916308194399" lon="6.124632004648447">
        <ele>492.81</ele>
        <time>2013-07-16T15:20:30Z</time>
      </trkpt>
      <trkpt lat="50.582898957654834" lon="6.124132191762328">
        <ele>491.37</ele>
        <time>2013-07-16T15:20:44Z</time>
      </trkpt>
      <trkpt lat="50.582804577425122" lon="6.123275645077229">
        <ele>488.97000000000003</ele>
        <time>2013-07-16T15:20:59Z</time>
      </trkpt>
      <trkpt lat="50.582721764221787" lon="6.122651863843203">
        <ele>486.07999999999998</ele>
        <time>2013-07-16T15:21:11Z</time>
      </trkpt>
      <trkpt lat="50.582528226077557" lon="6.12210494466126">
        <ele>484.16000000000003</ele>
        <time>2013-07-16T15:21:22Z</time>
      </trkpt>
      <trkpt lat="50.582478269934654" lon="6.122014336287975">
        <ele>483.68000000000001</ele>
        <time>2013-07-16T15:21:24Z</time>
      </trkpt>
      <trkpt lat="50.582179706543684" lon="6.121531371027231">
        <ele>481.27999999999997</ele>
        <time>2013-07-16T15:21:36Z</time>
      </trkpt>
      <trkpt lat="50.5818887706846" lon="6.12104807049036">
        <ele>478.87</ele>
        <time>2013-07-16T15:21:50Z</time>
      </trkpt>
      <trkpt lat="50.581752564758062" lon="6.120793344452977">
        <ele>477.91000000000003</ele>
        <time>2013-07-16T15:22:07Z</time>
      </trkpt>
      <trkpt lat="50.58159708045423" lon="6.120542557910085">
        <ele>476.94999999999999</ele>
        <time>2013-07-16T15:22:24Z</time>
      </trkpt>
      <trkpt lat="50.581449642777443" lon="6.1203708127141">
        <ele>475.99000000000001</ele>
        <time>2013-07-16T15:22:39Z</time>
      </trkpt>
      <trkpt lat="50.581426760181785" lon="6.120345499366522">
        <ele>475.99000000000001</ele>
        <time>2013-07-16T15:22:41Z</time>
      </trkpt>
      <trkpt lat="50.581394825130701" lon="6.120315659791231">
        <ele>475.99000000000001</ele>
        <time>2013-07-16T15:22:44Z</time>
      </trkpt>
      <trkpt lat="50.581339672207832" lon="6.120241982862353">
        <ele>475.02999999999997</ele>
        <time>2013-07-16T15:22:48Z</time>
      </trkpt>
      <trkpt lat="50.581057034432888" lon="6.120005026459694">
        <ele>473.58999999999997</ele>
        <time>2013-07-16T15:23:01Z</time>
      </trkpt>
      <trkpt lat="50.580815803259611" lon="6.119940234348178">
        <ele>472.63</ele>
        <time>2013-07-16T15:23:11Z</time>
      </trkpt>
      <trkpt lat="50.580497039481997" lon="6.11982598900795">
        <ele>470.22000000000003</ele>
        <time>2013-07-16T15:23:22Z</time>
      </trkpt>
      <trkpt lat="50.580145586282015" lon="6.119704619050026">
        <ele>468.30000000000001</ele>
        <time>2013-07-16T15:23:35Z</time>
      </trkpt>
      <trkpt lat="50.579800419509411" lon="6.119711827486754">
        <ele>466.38</ele>
        <time>2013-07-16T15:23:48Z</time>
      </trkpt>
      <trkpt lat="50.579516021534801" lon="6.119667235761881">
        <ele>463.97000000000003</ele>
        <time>2013-07-16T15:23:59Z</time>
      </trkpt>
      <trkpt lat="50.579082258045673" lon="6.119608310982585">
        <ele>462.05000000000001</ele>
        <time>2013-07-16T15:24:14Z</time>
      </trkpt>
      <trkpt lat="50.578930797055364" lon="6.119572436437011">
        <ele>461.08999999999997</ele>
        <time>2013-07-16T15:24:20Z</time>
      </trkpt>
      <trkpt lat="50.578848654404283" lon="6.119575705379248">
        <ele>460.13</ele>
        <time>2013-07-16T15:24:24Z</time>
      </trkpt>
      <trkpt lat="50.578693924471736" lon="6.1195660661906">
        <ele>459.17000000000002</ele>
        <time>2013-07-16T15:24:30Z</time>
      </trkpt>
      <trkpt lat="50.578574063256383" lon="6.119562210515142">
        <ele>458.20999999999998</ele>
        <time>2013-07-16T15:24:35Z</time>
      </trkpt>
      <trkpt lat="50.578309027478099" lon="6.119555253535509">
        <ele>457.24000000000001</ele>
        <time>2013-07-16T15:24:45Z</time>
      </trkpt>
      <trkpt lat="50.576712526381016" lon="6.119518037885428">
        <ele>446.67000000000002</ele>
        <time>2013-07-16T15:26:16Z</time>
      </trkpt>
      <trkpt lat="50.576544888317585" lon="6.119475206360221">
        <ele>445.70999999999998</ele>
        <time>2013-07-16T15:26:30Z</time>
      </trkpt>
      <trkpt lat="50.576388984918594" lon="6.119503872469068">
        <ele>444.75</ele>
        <time>2013-07-16T15:26:43Z</time>
      </trkpt>
      <trkpt lat="50.576349925249815" lon="6.119500771164894">
        <ele>444.26999999999998</ele>
        <time>2013-07-16T15:26:46Z</time>
      </trkpt>
      <trkpt lat="50.576225453987718" lon="6.11951133236289">
        <ele>443.31</ele>
        <time>2013-07-16T15:27:00Z</time>
      </trkpt>
      <trkpt lat="50.576143730431795" lon="6.119495239108801">
        <ele>442.81999999999999</ele>
        <time>2013-07-16T15:27:17Z</time>
      </trkpt>
      <trkpt lat="50.576045494526625" lon="6.119504543021321">
        <ele>442.33999999999997</ele>
        <time>2013-07-16T15:27:24Z</time>
      </trkpt>
      <trkpt lat="50.57587081566453" lon="6.119405720382929">
        <ele>440.89999999999998</ele>
        <time>2013-07-16T15:27:39Z</time>
      </trkpt>
      <trkpt lat="50.57586595416069" lon="6.119381664320827">
        <ele>440.89999999999998</ele>
        <time>2013-07-16T15:27:40Z</time>
      </trkpt>
      <trkpt lat="50.575666381046176" lon="6.119422484189272">
        <ele>439.94</ele>
        <time>2013-07-16T15:30:35Z</time>
      </trkpt>
      <trkpt lat="50.575327416881919" lon="6.119574112817645">
        <ele>440.89999999999998</ele>
        <time>2013-07-16T15:30:46Z</time>
      </trkpt>
      <trkpt lat="50.57485937140882" lon="6.119764130562544">
        <ele>442.33999999999997</ele>
        <time>2013-07-16T15:30:59Z</time>
      </trkpt>
      <trkpt lat="50.574600957334042" lon="6.119820456951857">
        <ele>442.81999999999999</ele>
        <time>2013-07-16T15:31:08Z</time>
      </trkpt>
      <trkpt lat="50.574276829138398" lon="6.119837639853358">
        <ele>442.81999999999999</ele>
        <time>2013-07-16T15:31:19Z</time>
      </trkpt>
      <trkpt lat="50.574138946831226" lon="6.119821546599269">
        <ele>443.31</ele>
        <time>2013-07-16T15:31:21Z</time>
      </trkpt>
      <trkpt lat="50.57335440069437" lon="6.119438325986266">
        <ele>444.75</ele>
        <time>2013-07-16T15:31:31Z</time>
      </trkpt>
      <trkpt lat="50.573222720995545" lon="6.11937839537859">
        <ele>446.19</ele>
        <time>2013-07-16T15:31:33Z</time>
      </trkpt>
      <trkpt lat="50.572949470952153" lon="6.119255851954222">
        <ele>447.63</ele>
        <time>2013-07-16T15:31:42Z</time>
      </trkpt>
      <trkpt lat="50.572877051308751" lon="6.119250068441033">
        <ele>448.11000000000001</ele>
        <time>2013-07-16T15:31:48Z</time>
      </trkpt>
      <trkpt lat="50.572777977213264" lon="6.119179157540202">
        <ele>448.58999999999997</ele>
        <time>2013-07-16T15:31:52Z</time>
      </trkpt>
      <trkpt lat="50.572151346132159" lon="6.119004646316171">
        <ele>450.02999999999997</ele>
        <time>2013-07-16T15:32:00Z</time>
      </trkpt>
      <trkpt lat="50.571343163028359" lon="6.119357943534851">
        <ele>451.95999999999998</ele>
        <time>2013-07-16T15:32:12Z</time>
      </trkpt>
      <trkpt lat="50.571239981800318" lon="6.119475290179253">
        <ele>453.39999999999998</ele>
        <time>2013-07-16T15:32:14Z</time>
      </trkpt>
      <trkpt lat="50.570624750107527" lon="6.120087001472712">
        <ele>456.27999999999997</ele>
        <time>2013-07-16T15:32:24Z</time>
      </trkpt>
      <trkpt lat="50.569947073236108" lon="6.12082427367568">
        <ele>459.64999999999998</ele>
        <time>2013-07-16T15:32:35Z</time>
      </trkpt>
      <trkpt lat="50.569748254492879" lon="6.12105586566031">
        <ele>461.08999999999997</ele>
        <time>2013-07-16T15:32:39Z</time>
      </trkpt>
      <trkpt lat="50.569687401875854" lon="6.121151084080339">
        <ele>461.08999999999997</ele>
        <time>2013-07-16T15:32:41Z</time>
      </trkpt>
      <trkpt lat="50.569326393306255" lon="6.121842255815864">
        <ele>462.52999999999997</ele>
        <time>2013-07-16T15:32:51Z</time>
      </trkpt>
      <trkpt lat="50.569100668653846" lon="6.122362520545721">
        <ele>463.97000000000003</ele>
        <time>2013-07-16T15:32:56Z</time>
      </trkpt>
      <trkpt lat="50.56886488571763" lon="6.122931148856878">
        <ele>465.89999999999998</ele>
        <time>2013-07-16T15:33:01Z</time>
      </trkpt>
      <trkpt lat="50.568812247365713" lon="6.123047070577741">
        <ele>466.38</ele>
        <time>2013-07-16T15:33:02Z</time>
      </trkpt>
      <trkpt lat="50.56867721490562" lon="6.123412102460861">
        <ele>468.77999999999997</ele>
        <time>2013-07-16T15:33:05Z</time>
      </trkpt>
      <trkpt lat="50.568632120266557" lon="6.123526515439153">
        <ele>468.77999999999997</ele>
        <time>2013-07-16T15:33:06Z</time>
      </trkpt>
      <trkpt lat="50.568316876888275" lon="6.124203018844128">
        <ele>470.22000000000003</ele>
        <time>2013-07-16T15:33:13Z</time>
      </trkpt>
      <trkpt lat="50.568044129759073" lon="6.124545084312558">
        <ele>471.66000000000003</ele>
        <time>2013-07-16T15:33:18Z</time>
      </trkpt>
      <trkpt lat="50.567766856402159" lon="6.124754464253783">
        <ele>473.11000000000001</ele>
        <time>2013-07-16T15:33:26Z</time>
      </trkpt>
      <trkpt lat="50.567671973258257" lon="6.124759744852781">
        <ele>473.11000000000001</ele>
        <time>2013-07-16T15:33:29Z</time>
      </trkpt>
      <trkpt lat="50.567183811217546" lon="6.125021511688829">
        <ele>472.63</ele>
        <time>2013-07-16T15:33:36Z</time>
      </trkpt>
      <trkpt lat="50.566835794597864" lon="6.125199543312192">
        <ele>473.11000000000001</ele>
        <time>2013-07-16T15:33:41Z</time>
      </trkpt>
      <trkpt lat="50.566622139886022" lon="6.12537682056427">
        <ele>473.58999999999997</ele>
        <time>2013-07-16T15:33:45Z</time>
      </trkpt>
      <trkpt lat="50.566265070810914" lon="6.125772446393967">
        <ele>473.58999999999997</ele>
        <time>2013-07-16T15:33:57Z</time>
      </trkpt>
      <trkpt lat="50.566087793558836" lon="6.12594804726541">
        <ele>473.58999999999997</ele>
        <time>2013-07-16T15:34:09Z</time>
      </trkpt>
      <trkpt lat="50.565880844369531" lon="6.126070339232683">
        <ele>474.06999999999999</ele>
        <time>2013-07-16T15:34:24Z</time>
      </trkpt>
      <trkpt lat="50.56569853797555" lon="6.126238312572241">
        <ele>474.55000000000001</ele>
        <time>2013-07-16T15:34:41Z</time>
      </trkpt>
      <trkpt lat="50.565564930438995" lon="6.126433778554201">
        <ele>475.50999999999999</ele>
        <time>2013-07-16T15:34:56Z</time>
      </trkpt>
      <trkpt lat="50.565454456955194" lon="6.12666193395853">
        <ele>475.50999999999999</ele>
        <time>2013-07-16T15:35:10Z</time>
      </trkpt>
      <trkpt lat="50.565298469737172" lon="6.126934429630637">
        <ele>475.50999999999999</ele>
        <time>2013-07-16T15:35:20Z</time>
      </trkpt>
      <trkpt lat="50.565258571878076" lon="6.127031240612268">
        <ele>475.50999999999999</ele>
        <time>2013-07-16T15:35:30Z</time>
      </trkpt>
      <trkpt lat="50.565136028453708" lon="6.127247745171189">
        <ele>475.50999999999999</ele>
        <time>2013-07-16T15:35:52Z</time>
      </trkpt>
      <trkpt lat="50.564943412318826" lon="6.127665918320417">
        <ele>475.99000000000001</ele>
        <time>2013-07-16T15:36:01Z</time>
      </trkpt>
      <trkpt lat="50.564607884734869" lon="6.128275282680988">
        <ele>476.47000000000003</ele>
        <time>2013-07-16T15:36:15Z</time>
      </trkpt>
      <trkpt lat="50.564355505630374" lon="6.128584910184145">
        <ele>476.94999999999999</ele>
        <time>2013-07-16T15:36:25Z</time>
      </trkpt>
      <trkpt lat="50.564090721309185" lon="6.128936279565096">
        <ele>477.43000000000001</ele>
        <time>2013-07-16T15:36:35Z</time>
      </trkpt>
      <trkpt lat="50.563985863700509" lon="6.129061253741384">
        <ele>478.87</ele>
        <time>2013-07-16T15:36:39Z</time>
      </trkpt>
      <trkpt lat="50.56372937746346" lon="6.129327714443207">
        <ele>479.83999999999997</ele>
        <time>2013-07-16T15:36:49Z</time>
      </trkpt>
      <trkpt lat="50.563395274803042" lon="6.129593588411808">
        <ele>482.24000000000001</ele>
        <time>2013-07-16T15:37:02Z</time>
      </trkpt>
      <trkpt lat="50.563110625371337" lon="6.129807326942682">
        <ele>483.68000000000001</ele>
        <time>2013-07-16T15:37:13Z</time>
      </trkpt>
      <trkpt lat="50.562903676182032" lon="6.130049144849181">
        <ele>485.12</ele>
        <time>2013-07-16T15:37:25Z</time>
      </trkpt>
      <trkpt lat="50.562719358131289" lon="6.13033639267087">
        <ele>486.56</ele>
        <time>2013-07-16T15:37:44Z</time>
      </trkpt>
      <trkpt lat="50.562504278495908" lon="6.130541581660509">
        <ele>488.49000000000001</ele>
        <time>2013-07-16T15:38:02Z</time>
      </trkpt>
      <trkpt lat="50.562457758933306" lon="6.130581395700574">
        <ele>488.97000000000003</ele>
        <time>2013-07-16T15:38:06Z</time>
      </trkpt>
      <trkpt lat="50.562307890504599" lon="6.13078985363245">
        <ele>490.41000000000003</ele>
        <time>2013-07-16T15:38:23Z</time>
      </trkpt>
      <trkpt lat="50.562139665707946" lon="6.131028737872839">
        <ele>492.32999999999998</ele>
        <time>2013-07-16T15:38:44Z</time>
      </trkpt>
      <trkpt lat="50.562074286863208" lon="6.131070228293538">
        <ele>492.81</ele>
        <time>2013-07-16T15:38:57Z</time>
      </trkpt>
      <trkpt lat="50.561979906633496" lon="6.131219007074833">
        <ele>493.76999999999998</ele>
        <time>2013-07-16T15:39:11Z</time>
      </trkpt>
      <trkpt lat="50.561878653243184" lon="6.131397876888514">
        <ele>494.25999999999999</ele>
        <time>2013-07-16T15:39:26Z</time>
      </trkpt>
      <trkpt lat="50.561770107597113" lon="6.131521007046104">
        <ele>495.22000000000003</ele>
        <time>2013-07-16T15:39:39Z</time>
      </trkpt>
      <trkpt lat="50.561557374894619" lon="6.131693674251437">
        <ele>496.66000000000003</ele>
        <time>2013-07-16T15:39:57Z</time>
      </trkpt>
      <trkpt lat="50.561460144817829" lon="6.131836920976639">
        <ele>498.10000000000002</ele>
        <time>2013-07-16T15:40:10Z</time>
      </trkpt>
      <trkpt lat="50.561360316351056" lon="6.13205149769783">
        <ele>500.01999999999998</ele>
        <time>2013-07-16T15:40:25Z</time>
      </trkpt>
      <trkpt lat="50.561215560883284" lon="6.132264230400324">
        <ele>501.45999999999998</ele>
        <time>2013-07-16T15:40:41Z</time>
      </trkpt>
      <trkpt lat="50.561055298894644" lon="6.132385348901153">
        <ele>503.87</ele>
        <time>2013-07-16T15:40:53Z</time>
      </trkpt>
      <trkpt lat="50.560960080474615" lon="6.132538905367255">
        <ele>504.35000000000002</ele>
        <time>2013-07-16T15:41:03Z</time>
      </trkpt>
      <trkpt lat="50.560847511515021" lon="6.132716266438365">
        <ele>504.35000000000002</ele>
        <time>2013-07-16T15:41:16Z</time>
      </trkpt>
      <trkpt lat="50.560674341395497" lon="6.13286261446774">
        <ele>504.35000000000002</ele>
        <time>2013-07-16T15:41:31Z</time>
      </trkpt>
      <trkpt lat="50.560475271195173" lon="6.133078951388598">
        <ele>504.35000000000002</ele>
        <time>2013-07-16T15:41:46Z</time>
      </trkpt>
      <trkpt lat="50.560341160744429" lon="6.13332387059927">
        <ele>504.35000000000002</ele>
        <time>2013-07-16T15:41:52Z</time>
      </trkpt>
      <trkpt lat="50.560049470514059" lon="6.133949244394898">
        <ele>504.35000000000002</ele>
        <time>2013-07-16T15:42:07Z</time>
      </trkpt>
      <trkpt lat="50.559777477756143" lon="6.13441594876349">
        <ele>505.79000000000002</ele>
        <time>2013-07-16T15:42:19Z</time>
      </trkpt>
      <trkpt lat="50.559574300423265" lon="6.134750638157129">
        <ele>506.26999999999998</ele>
        <time>2013-07-16T15:42:29Z</time>
      </trkpt>
      <trkpt lat="50.559330638498068" lon="6.135124722495675">
        <ele>505.79000000000002</ele>
        <time>2013-07-16T15:42:41Z</time>
      </trkpt>
      <trkpt lat="50.559164425358176" lon="6.135327816009522">
        <ele>506.26999999999998</ele>
        <time>2013-07-16T15:42:53Z</time>
      </trkpt>
      <trkpt lat="50.559147745370865" lon="6.135345753282309">
        <ele>506.26999999999998</ele>
        <time>2013-07-16T15:42:54Z</time>
      </trkpt>
      <trkpt lat="50.558930402621627" lon="6.135527724400163">
        <ele>507.23000000000002</ele>
        <time>2013-07-16T15:43:05Z</time>
      </trkpt>
      <trkpt lat="50.558705264702439" lon="6.135705336928368">
        <ele>508.67000000000002</ele>
        <time>2013-07-16T15:43:14Z</time>
      </trkpt>
      <trkpt lat="50.558624379336834" lon="6.135771386325359">
        <ele>508.67000000000002</ele>
        <time>2013-07-16T15:43:21Z</time>
      </trkpt>
      <trkpt lat="50.558274853974581" lon="6.135742301121354">
        <ele>509.63999999999999</ele>
        <time>2013-07-16T15:43:34Z</time>
      </trkpt>
      <trkpt lat="50.557968830689788" lon="6.135693266987801">
        <ele>510.12</ele>
        <time>2013-07-16T15:43:45Z</time>
      </trkpt>
      <trkpt lat="50.557679738849401" lon="6.135665522888303">
        <ele>510.60000000000002</ele>
        <time>2013-07-16T15:43:56Z</time>
      </trkpt>
      <trkpt lat="50.557450577616692" lon="6.135724280029535">
        <ele>511.56</ele>
        <time>2013-07-16T15:44:12Z</time>
      </trkpt>
      <trkpt lat="50.557321412488818" lon="6.135709779337049">
        <ele>512.51999999999998</ele>
        <time>2013-07-16T15:44:22Z</time>
      </trkpt>
      <trkpt lat="50.557177662849426" lon="6.135613638907671">
        <ele>512.51999999999998</ele>
        <time>2013-07-16T15:44:37Z</time>
      </trkpt>
      <trkpt lat="50.557102141901851" lon="6.135581452399492">
        <ele>513</ele>
        <time>2013-07-16T15:44:44Z</time>
      </trkpt>
      <trkpt lat="50.55692813359201" lon="6.135548930615187">
        <ele>513.48000000000002</ele>
        <time>2013-07-16T15:44:59Z</time>
      </trkpt>
      <trkpt lat="50.55684506893158" lon="6.13551783375442">
        <ele>514.44000000000005</ele>
        <time>2013-07-16T15:45:05Z</time>
      </trkpt>
      <trkpt lat="50.55667701177299" lon="6.135492771863937">
        <ele>514.44000000000005</ele>
        <time>2013-07-16T15:45:20Z</time>
      </trkpt>
      <trkpt lat="50.556509373709559" lon="6.135446839034557">
        <ele>515.39999999999998</ele>
        <time>2013-07-16T15:45:33Z</time>
      </trkpt>
      <trkpt lat="50.556343831121922" lon="6.135387076064944">
        <ele>515.88</ele>
        <time>2013-07-16T15:45:48Z</time>
      </trkpt>
      <trkpt lat="50.55616831406951" lon="6.135317673906684">
        <ele>516.37</ele>
        <time>2013-07-16T15:46:04Z</time>
      </trkpt>
      <trkpt lat="50.555997239425778" lon="6.135235028341413">
        <ele>517.33000000000004</ele>
        <time>2013-07-16T15:46:19Z</time>
      </trkpt>
      <trkpt lat="50.55585902184248" lon="6.135180043056607">
        <ele>517.33000000000004</ele>
        <time>2013-07-16T15:46:31Z</time>
      </trkpt>
      <trkpt lat="50.555685935541987" lon="6.135060768574476">
        <ele>517.80999999999995</ele>
        <time>2013-07-16T15:46:47Z</time>
      </trkpt>
      <trkpt lat="50.555538833141327" lon="6.134974099695683">
        <ele>518.76999999999998</ele>
        <time>2013-07-16T15:47:01Z</time>
      </trkpt>
      <trkpt lat="50.555399022996426" lon="6.134803695604205">
        <ele>518.76999999999998</ele>
        <time>2013-07-16T15:47:16Z</time>
      </trkpt>
      <trkpt lat="50.555232055485249" lon="6.134727504104376">
        <ele>519.25</ele>
        <time>2013-07-16T15:47:30Z</time>
      </trkpt>
      <trkpt lat="50.555066764354706" lon="6.13461485132575">
        <ele>520.21000000000004</ele>
        <time>2013-07-16T15:47:44Z</time>
      </trkpt>
      <trkpt lat="50.554919242858887" lon="6.134397592395544">
        <ele>521.16999999999996</ele>
        <time>2013-07-16T15:48:00Z</time>
      </trkpt>
      <trkpt lat="50.55479234084487" lon="6.134276473894715">
        <ele>523.09000000000003</ele>
        <time>2013-07-16T15:48:13Z</time>
      </trkpt>
      <trkpt lat="50.554668456315994" lon="6.134193073958159">
        <ele>525.01999999999998</ele>
        <time>2013-07-16T15:48:26Z</time>
      </trkpt>
      <trkpt lat="50.554589917883277" lon="6.134136496111751">
        <ele>523.58000000000004</ele>
        <time>2013-07-16T15:48:35Z</time>
      </trkpt>
      <trkpt lat="50.554574327543378" lon="6.13409886136651">
        <ele>523.09000000000003</ele>
        <time>2013-07-16T15:48:37Z</time>
      </trkpt>
      <trkpt lat="50.554448431357741" lon="6.133970785886049">
        <ele>521.64999999999998</ele>
        <time>2013-07-16T15:48:51Z</time>
      </trkpt>
      <trkpt lat="50.554307866841555" lon="6.133868610486388">
        <ele>521.64999999999998</ele>
        <time>2013-07-16T15:49:06Z</time>
      </trkpt>
      <trkpt lat="50.554132517427206" lon="6.133754029870033">
        <ele>523.09000000000003</ele>
        <time>2013-07-16T15:49:22Z</time>
      </trkpt>
      <trkpt lat="50.554006118327379" lon="6.133711785078049">
        <ele>522.61000000000001</ele>
        <time>2013-07-16T15:49:34Z</time>
      </trkpt>
      <trkpt lat="50.553816184401512" lon="6.133610866963863">
        <ele>522.61000000000001</ele>
        <time>2013-07-16T15:49:47Z</time>
      </trkpt>
      <trkpt lat="50.553757846355438" lon="6.133560659363866">
        <ele>521.64999999999998</ele>
        <time>2013-07-16T15:49:52Z</time>
      </trkpt>
      <trkpt lat="50.553595656529069" lon="6.133517660200596">
        <ele>521.16999999999996</ele>
        <time>2013-07-16T15:50:08Z</time>
      </trkpt>
      <trkpt lat="50.553425839170814" lon="6.133446916937828">
        <ele>520.21000000000004</ele>
        <time>2013-07-16T15:50:21Z</time>
      </trkpt>
      <trkpt lat="50.553212435916066" lon="6.133372401818633">
        <ele>520.21000000000004</ele>
        <time>2013-07-16T15:50:34Z</time>
      </trkpt>
      <trkpt lat="50.553129371255636" lon="6.133371647447348">
        <ele>520.21000000000004</ele>
        <time>2013-07-16T15:50:41Z</time>
      </trkpt>
      <trkpt lat="50.552951926365495" lon="6.133313477039337">
        <ele>520.21000000000004</ele>
        <time>2013-07-16T15:50:55Z</time>
      </trkpt>
      <trkpt lat="50.552885457873344" lon="6.133383046835661">
        <ele>520.21000000000004</ele>
        <time>2013-07-16T15:51:07Z</time>
      </trkpt>
      <trkpt lat="50.552770877256989" lon="6.133521851152182">
        <ele>519.73000000000002</ele>
        <time>2013-07-16T15:51:21Z</time>
      </trkpt>
      <trkpt lat="50.552625954151154" lon="6.133611872792244">
        <ele>519.25</ele>
        <time>2013-07-16T15:51:36Z</time>
      </trkpt>
      <trkpt lat="50.552499303594232" lon="6.133690914139152">
        <ele>518.28999999999996</ele>
        <time>2013-07-16T15:51:50Z</time>
      </trkpt>
      <trkpt lat="50.552394110709429" lon="6.133772218599916">
        <ele>517.80999999999995</ele>
        <time>2013-07-16T15:52:04Z</time>
      </trkpt>
      <trkpt lat="50.552277769893408" lon="6.133865173906088">
        <ele>516.85000000000002</ele>
        <time>2013-07-16T15:52:20Z</time>
      </trkpt>
      <trkpt lat="50.552126644179225" lon="6.133907753974199">
        <ele>516.37</ele>
        <time>2013-07-16T15:52:36Z</time>
      </trkpt>
      <trkpt lat="50.551992198452353" lon="6.133985118940473">
        <ele>515.39999999999998</ele>
        <time>2013-07-16T15:52:50Z</time>
      </trkpt>
      <trkpt lat="50.551887508481741" lon="6.134072123095393">
        <ele>515.39999999999998</ele>
        <time>2013-07-16T15:53:03Z</time>
      </trkpt>
      <trkpt lat="50.551829673349857" lon="6.13411788828671">
        <ele>514.91999999999996</ele>
        <time>2013-07-16T15:53:14Z</time>
      </trkpt>
      <trkpt lat="50.551764713600278" lon="6.13420438952744">
        <ele>514.91999999999996</ele>
        <time>2013-07-16T15:53:27Z</time>
      </trkpt>
      <trkpt lat="50.551735628396273" lon="6.134254680946469">
        <ele>516.37</ele>
        <time>2013-07-16T15:53:32Z</time>
      </trkpt>
      <trkpt lat="50.551656167954206" lon="6.134392730891705">
        <ele>516.85000000000002</ele>
        <time>2013-07-16T15:53:47Z</time>
      </trkpt>
      <trkpt lat="50.55155080743134" lon="6.13448241725564">
        <ele>516.85000000000002</ele>
        <time>2013-07-16T15:54:00Z</time>
      </trkpt>
      <trkpt lat="50.551449721679091" lon="6.134546371176839">
        <ele>514.44000000000005</ele>
        <time>2013-07-16T15:54:11Z</time>
      </trkpt>
      <trkpt lat="50.551346372812986" lon="6.134735215455294">
        <ele>514.44000000000005</ele>
        <time>2013-07-16T15:54:28Z</time>
      </trkpt>
      <trkpt lat="50.551342684775591" lon="6.134754410013557">
        <ele>513.96000000000004</ele>
        <time>2013-07-16T15:54:32Z</time>
      </trkpt>
      <trkpt lat="50.551350396126509" lon="6.134831104427576">
        <ele>515.39999999999998</ele>
        <time>2013-07-16T15:54:39Z</time>
      </trkpt>
      <trkpt lat="50.551273114979267" lon="6.134848203510046">
        <ele>516.37</ele>
        <time>2013-07-16T15:54:57Z</time>
      </trkpt>
      <trkpt lat="50.551279149949551" lon="6.134823057800531">
        <ele>516.85000000000002</ele>
        <time>2013-07-16T15:55:16Z</time>
      </trkpt>
      <trkpt lat="50.551257943734527" lon="6.1349490378052">
        <ele>517.33000000000004</ele>
        <time>2013-07-16T15:55:34Z</time>
      </trkpt>
      <trkpt lat="50.551263811066747" lon="6.13497007638216">
        <ele>517.80999999999995</ele>
        <time>2013-07-16T15:55:40Z</time>
      </trkpt>
      <trkpt lat="50.551233217120171" lon="6.134976195171475">
        <ele>517.80999999999995</ele>
        <time>2013-07-16T15:55:52Z</time>
      </trkpt>
      <trkpt lat="50.551239168271422" lon="6.135043082758784">
        <ele>517.80999999999995</ele>
        <time>2013-07-16T15:56:05Z</time>
      </trkpt>
      <trkpt lat="50.551243023946881" lon="6.135214744135737">
        <ele>520.69000000000005</ele>
        <time>2013-07-16T15:56:21Z</time>
      </trkpt>
      <trkpt lat="50.551247717812657" lon="6.135404007509351">
        <ele>522.61000000000001</ele>
        <time>2013-07-16T15:56:36Z</time>
      </trkpt>
      <trkpt lat="50.551235396414995" lon="6.135529987514019">
        <ele>525.01999999999998</ele>
        <time>2013-07-16T15:56:50Z</time>
      </trkpt>
      <trkpt lat="50.551239503547549" lon="6.135662002488971">
        <ele>526.94000000000005</ele>
        <time>2013-07-16T15:57:07Z</time>
      </trkpt>
      <trkpt lat="50.55124880746007" lon="6.135802734643221">
        <ele>530.29999999999995</ele>
        <time>2013-07-16T15:57:19Z</time>
      </trkpt>
      <trkpt lat="50.551257189363241" lon="6.135910358279944">
        <ele>533.66999999999996</ele>
        <time>2013-07-16T15:57:34Z</time>
      </trkpt>
      <trkpt lat="50.55125861428678" lon="6.135993674397469">
        <ele>536.07000000000005</ele>
        <time>2013-07-16T15:57:47Z</time>
      </trkpt>
      <trkpt lat="50.551253417506814" lon="6.136037679389119">
        <ele>536.07000000000005</ele>
        <time>2013-07-16T15:57:58Z</time>
      </trkpt>
      <trkpt lat="50.551249226555228" lon="6.136036003008485">
        <ele>536.07000000000005</ele>
        <time>2013-07-16T15:58:10Z</time>
      </trkpt>
      <trkpt lat="50.55124344304204" lon="6.136165838688612">
        <ele>536.07000000000005</ele>
        <time>2013-07-16T15:58:24Z</time>
      </trkpt>
      <trkpt lat="50.551206143572927" lon="6.136112362146378">
        <ele>536.07000000000005</ele>
        <time>2013-07-16T15:58:31Z</time>
      </trkpt>
      <trkpt lat="50.551210753619671" lon="6.136113032698631">
        <ele>536.07000000000005</ele>
        <time>2013-07-16T15:58:35Z</time>
      </trkpt>
      <trkpt lat="50.551159121096134" lon="6.136233899742365">
        <ele>534.63</ele>
        <time>2013-07-16T15:58:44Z</time>
      </trkpt>
      <trkpt lat="50.551094161346555" lon="6.136346301063895">
        <ele>534.63</ele>
        <time>2013-07-16T15:58:55Z</time>
      </trkpt>
      <trkpt lat="50.55100061930716" lon="6.136529613286257">
        <ele>533.66999999999996</ele>
        <time>2013-07-16T15:59:07Z</time>
      </trkpt>
      <trkpt lat="50.550961308181286" lon="6.136597590520978">
        <ele>533.19000000000005</ele>
        <time>2013-07-16T15:59:13Z</time>
      </trkpt>
      <trkpt lat="50.550915794447064" lon="6.136688282713294">
        <ele>532.71000000000004</ele>
        <time>2013-07-16T15:59:18Z</time>
      </trkpt>
      <trkpt lat="50.550815546885133" lon="6.136834463104606">
        <ele>531.75</ele>
        <time>2013-07-16T15:59:31Z</time>
      </trkpt>
      <trkpt lat="50.550767602398992" lon="6.136817112565041">
        <ele>531.75</ele>
        <time>2013-07-16T15:59:43Z</time>
      </trkpt>
      <trkpt lat="50.55069912225008" lon="6.136956587433815">
        <ele>531.26999999999998</ele>
        <time>2013-07-16T15:59:54Z</time>
      </trkpt>
      <trkpt lat="50.550625193864107" lon="6.13711173646152">
        <ele>530.29999999999995</ele>
        <time>2013-07-16T16:00:07Z</time>
      </trkpt>
      <trkpt lat="50.550505919381976" lon="6.137323630973697">
        <ele>528.86000000000001</ele>
        <time>2013-07-16T16:00:22Z</time>
      </trkpt>
      <trkpt lat="50.550426878035069" lon="6.137505350634456">
        <ele>528.38</ele>
        <time>2013-07-16T16:00:34Z</time>
      </trkpt>
      <trkpt lat="50.550397206097841" lon="6.137592690065503">
        <ele>527.89999999999998</ele>
        <time>2013-07-16T16:00:41Z</time>
      </trkpt>
      <trkpt lat="50.550368037074804" lon="6.137677095830441">
        <ele>527.41999999999996</ele>
        <time>2013-07-16T16:00:45Z</time>
      </trkpt>
      <trkpt lat="50.550306346267462" lon="6.137782959267497">
        <ele>527.41999999999996</ele>
        <time>2013-07-16T16:00:52Z</time>
      </trkpt>
      <trkpt lat="50.550245912745595" lon="6.137890247628093">
        <ele>526.46000000000004</ele>
        <time>2013-07-16T16:01:00Z</time>
      </trkpt>
      <trkpt lat="50.55011666379869" lon="6.13804061897099">
        <ele>525.5</ele>
        <time>2013-07-16T16:01:16Z</time>
      </trkpt>
      <trkpt lat="50.550095457583666" lon="6.13810901530087">
        <ele>525.5</ele>
        <time>2013-07-16T16:01:45Z</time>
      </trkpt>
      <trkpt lat="50.550043573603034" lon="6.138246646150947">
        <ele>525.5</ele>
        <time>2013-07-16T16:01:59Z</time>
      </trkpt>
      <trkpt lat="50.54996419698" lon="6.138383354991674">
        <ele>524.53999999999996</ele>
        <time>2013-07-16T16:02:10Z</time>
      </trkpt>
      <trkpt lat="50.549875600263476" lon="6.138532133772969">
        <ele>524.05999999999995</ele>
        <time>2013-07-16T16:02:23Z</time>
      </trkpt>
      <trkpt lat="50.549837378785014" lon="6.138597344979644">
        <ele>523.58000000000004</ele>
        <time>2013-07-16T16:02:28Z</time>
      </trkpt>
      <trkpt lat="50.549763701856136" lon="6.13870806992054">
        <ele>523.58000000000004</ele>
        <time>2013-07-16T16:02:36Z</time>
      </trkpt>
      <trkpt lat="50.549620790407062" lon="6.138956677168608">
        <ele>523.09000000000003</ele>
        <time>2013-07-16T16:02:53Z</time>
      </trkpt>
      <trkpt lat="50.549613581970334" lon="6.138985091820359">
        <ele>523.09000000000003</ele>
        <time>2013-07-16T16:03:02Z</time>
      </trkpt>
      <trkpt lat="50.549601595848799" lon="6.139006214216352">
        <ele>523.09000000000003</ele>
        <time>2013-07-16T16:03:04Z</time>
      </trkpt>
      <trkpt lat="50.549498582258821" lon="6.139173014089465">
        <ele>523.09000000000003</ele>
        <time>2013-07-16T16:03:14Z</time>
      </trkpt>
      <trkpt lat="50.549442674964666" lon="6.139281643554568">
        <ele>522.61000000000001</ele>
        <time>2013-07-16T16:03:25Z</time>
      </trkpt>
      <trkpt lat="50.549385342746973" lon="6.139277368783951">
        <ele>522.61000000000001</ele>
        <time>2013-07-16T16:03:35Z</time>
      </trkpt>
      <trkpt lat="50.549341421574354" lon="6.139324391260743">
        <ele>522.61000000000001</ele>
        <time>2013-07-16T16:03:47Z</time>
      </trkpt>
      <trkpt lat="50.549333710223436" lon="6.139330258592963">
        <ele>522.61000000000001</ele>
        <time>2013-07-16T16:03:48Z</time>
      </trkpt>
      <trkpt lat="50.549258524551988" lon="6.139358589425683">
        <ele>522.61000000000001</ele>
        <time>2013-07-16T16:03:54Z</time>
      </trkpt>
      <trkpt lat="50.549068422988057" lon="6.139367390424013">
        <ele>522.61000000000001</ele>
        <time>2013-07-16T16:04:08Z</time>
      </trkpt>
      <trkpt lat="50.553112523630261" lon="6.135395541787148">
        <ele>560.11000000000001</ele>
        <time>2013-07-16T16:13:17Z</time>
      </trkpt>
      <trkpt lat="50.552088422700763" lon="6.135654458776116">
        <ele>560.59000000000003</ele>
        <time>2013-07-16T16:13:25Z</time>
      </trkpt>
      <trkpt lat="50.5507049895823" lon="6.138070877641439">
        <ele>561.54999999999995</ele>
        <time>2013-07-16T16:13:37Z</time>
      </trkpt>
      <trkpt lat="50.550669115036726" lon="6.140717379748821">
        <ele>562.02999999999997</ele>
        <time>2013-07-16T16:13:55Z</time>
      </trkpt>
      <trkpt lat="50.54899818263948" lon="6.144083049148321">
        <ele>562.50999999999999</ele>
        <time>2013-07-16T16:14:01Z</time>
      </trkpt>
      <trkpt lat="50.548980245366693" lon="6.146067883819342">
        <ele>563.95000000000005</ele>
        <time>2013-07-16T16:14:15Z</time>
      </trkpt>
      <trkpt lat="50.55056132376194" lon="6.150584220886231">
        <ele>564.90999999999997</ele>
        <time>2013-07-16T16:14:32Z</time>
      </trkpt>
      <trkpt lat="50.547417188063264" lon="6.1485705524683">
        <ele>566.35000000000002</ele>
        <time>2013-07-16T16:14:47Z</time>
      </trkpt>
      <trkpt lat="50.547388102859259" lon="6.148546580225229">
        <ele>566.83000000000004</ele>
        <time>2013-07-16T16:14:57Z</time>
      </trkpt>
      <trkpt lat="50.547422301024199" lon="6.148895183578134">
        <ele>567.32000000000005</ele>
        <time>2013-07-16T16:15:14Z</time>
      </trkpt>
      <trkpt lat="50.547435712069273" lon="6.149127027019858">
        <ele>568.75999999999999</ele>
        <time>2013-07-16T16:15:27Z</time>
      </trkpt>
      <trkpt lat="50.547444177791476" lon="6.149284271523356">
        <ele>569.24000000000001</ele>
        <time>2013-07-16T16:15:38Z</time>
      </trkpt>
      <trkpt lat="50.547435376793146" lon="6.149356020614505">
        <ele>570.20000000000005</ele>
        <time>2013-07-16T16:15:42Z</time>
      </trkpt>
      <trkpt lat="50.547455493360758" lon="6.149619296193123">
        <ele>570.67999999999995</ele>
        <time>2013-07-16T16:15:56Z</time>
      </trkpt>
      <trkpt lat="50.547501677647233" lon="6.14985222928226">
        <ele>571.15999999999997</ele>
        <time>2013-07-16T16:16:08Z</time>
      </trkpt>
      <trkpt lat="50.547499330714345" lon="6.150118354707956">
        <ele>572.60000000000002</ele>
        <time>2013-07-16T16:16:21Z</time>
      </trkpt>
      <trkpt lat="50.547498492524028" lon="6.150346426293254">
        <ele>573.08000000000004</ele>
        <time>2013-07-16T16:16:33Z</time>
      </trkpt>
      <trkpt lat="50.547504192218184" lon="6.150684133172035">
        <ele>574.52999999999997</ele>
        <time>2013-07-16T16:16:48Z</time>
      </trkpt>
      <trkpt lat="50.547506287693977" lon="6.150974147021771">
        <ele>575.49000000000001</ele>
        <time>2013-07-16T16:17:01Z</time>
      </trkpt>
      <trkpt lat="50.547502432018518" lon="6.151015805080533">
        <ele>575.97000000000003</ele>
        <time>2013-07-16T16:17:03Z</time>
      </trkpt>
      <trkpt lat="50.547486674040556" lon="6.151283355429769">
        <ele>575.97000000000003</ele>
        <time>2013-07-16T16:17:15Z</time>
      </trkpt>
      <trkpt lat="50.547486506402493" lon="6.151306740939617">
        <ele>575.97000000000003</ele>
        <time>2013-07-16T16:17:16Z</time>
      </trkpt>
      <trkpt lat="50.547488015145063" lon="6.15135527215898">
        <ele>576.45000000000005</ele>
        <time>2013-07-16T16:17:19Z</time>
      </trkpt>
      <trkpt lat="50.547486841678619" lon="6.151390811428428">
        <ele>576.45000000000005</ele>
        <time>2013-07-16T16:17:22Z</time>
      </trkpt>
      <trkpt lat="50.547466892749071" lon="6.151674287393689">
        <ele>577.88999999999999</ele>
        <time>2013-07-16T16:17:37Z</time>
      </trkpt>
      <trkpt lat="50.547476783394814" lon="6.152013167738915">
        <ele>578.37</ele>
        <time>2013-07-16T16:17:51Z</time>
      </trkpt>
      <trkpt lat="50.547477621585131" lon="6.152323801070452">
        <ele>579.80999999999995</ele>
        <time>2013-07-16T16:18:05Z</time>
      </trkpt>
      <trkpt lat="50.547467647120357" lon="6.152405356988311">
        <ele>580.28999999999996</ele>
        <time>2013-07-16T16:18:09Z</time>
      </trkpt>
      <trkpt lat="50.5474394839257" lon="6.152513483539224">
        <ele>580.76999999999998</ele>
        <time>2013-07-16T16:18:14Z</time>
      </trkpt>
      <trkpt lat="50.54746488109231" lon="6.152824619784951">
        <ele>581.73000000000002</ele>
        <time>2013-07-16T16:18:30Z</time>
      </trkpt>
      <trkpt lat="50.547495055943727" lon="6.153035424649715">
        <ele>582.70000000000005</ele>
        <time>2013-07-16T16:18:41Z</time>
      </trkpt>
      <trkpt lat="50.547524308785796" lon="6.153276236727834">
        <ele>583.65999999999997</ele>
        <time>2013-07-16T16:18:55Z</time>
      </trkpt>
      <trkpt lat="50.547560853883624" lon="6.153436666354537">
        <ele>584.62</ele>
        <time>2013-07-16T16:19:13Z</time>
      </trkpt>
      <trkpt lat="50.547585748136044" lon="6.153679909184575">
        <ele>586.05999999999995</ele>
        <time>2013-07-16T16:19:31Z</time>
      </trkpt>
      <trkpt lat="50.547599410638213" lon="6.15377495996654">
        <ele>586.05999999999995</ele>
        <time>2013-07-16T16:19:37Z</time>
      </trkpt>
      <trkpt lat="50.547537971287966" lon="6.154350461438298">
        <ele>587.98000000000002</ele>
        <time>2013-07-16T16:19:55Z</time>
      </trkpt>
      <trkpt lat="50.547553058713675" lon="6.154542239382863">
        <ele>589.42999999999995</ele>
        <time>2013-07-16T16:20:10Z</time>
      </trkpt>
      <trkpt lat="50.547518692910671" lon="6.15474340505898">
        <ele>590.87</ele>
        <time>2013-07-16T16:20:23Z</time>
      </trkpt>
      <trkpt lat="50.54740184918046" lon="6.155300047248602">
        <ele>593.26999999999998</ele>
        <time>2013-07-16T16:20:42Z</time>
      </trkpt>
      <trkpt lat="50.547365974634886" lon="6.15542552433908">
        <ele>593.75</ele>
        <time>2013-07-16T16:20:47Z</time>
      </trkpt>
      <trkpt lat="50.547339236363769" lon="6.155456453561783">
        <ele>594.23000000000002</ele>
        <time>2013-07-16T16:20:49Z</time>
      </trkpt>
      <trkpt lat="50.547155672684312" lon="6.155580505728722">
        <ele>595.66999999999996</ele>
        <time>2013-07-16T16:21:04Z</time>
      </trkpt>
      <trkpt lat="50.546997589990497" lon="6.155664408579469">
        <ele>597.12</ele>
        <time>2013-07-16T16:21:18Z</time>
      </trkpt>
      <trkpt lat="50.546855349093676" lon="6.1557646561414">
        <ele>598.55999999999995</ele>
        <time>2013-07-16T16:21:30Z</time>
      </trkpt>
      <trkpt lat="50.546670528128743" lon="6.155771780759096">
        <ele>599.03999999999996</ele>
        <time>2013-07-16T16:21:43Z</time>
      </trkpt>
      <trkpt lat="50.54654479958117" lon="6.155750406906009">
        <ele>600.48000000000002</ele>
        <time>2013-07-16T16:21:55Z</time>
      </trkpt>
      <trkpt lat="50.54634346626699" lon="6.155644794926047">
        <ele>601.44000000000005</ele>
        <time>2013-07-16T16:22:11Z</time>
      </trkpt>
      <trkpt lat="50.546130985021591" lon="6.155514288693667">
        <ele>602.39999999999998</ele>
        <time>2013-07-16T16:22:26Z</time>
      </trkpt>
      <trkpt lat="50.54593694396317" lon="6.155476737767458">
        <ele>603.36000000000001</ele>
        <time>2013-07-16T16:22:40Z</time>
      </trkpt>
      <trkpt lat="50.545745166018605" lon="6.155512528494">
        <ele>604.80999999999995</ele>
        <time>2013-07-16T16:22:55Z</time>
      </trkpt>
      <trkpt lat="50.545692024752498" lon="6.155543457716703">
        <ele>605.28999999999996</ele>
        <time>2013-07-16T16:23:00Z</time>
      </trkpt>
      <trkpt lat="50.54554064758122" lon="6.155704222619534">
        <ele>606.73000000000002</ele>
        <time>2013-07-16T16:23:15Z</time>
      </trkpt>
      <trkpt lat="50.545370914041996" lon="6.155905639752746">
        <ele>608.16999999999996</ele>
        <time>2013-07-16T16:23:31Z</time>
      </trkpt>
      <trkpt lat="50.545201348140836" lon="6.156043522059917">
        <ele>609.61000000000001</ele>
        <time>2013-07-16T16:23:45Z</time>
      </trkpt>
      <trkpt lat="50.544965146109462" lon="6.156123988330364">
        <ele>611.05999999999995</ele>
        <time>2013-07-16T16:24:02Z</time>
      </trkpt>
      <trkpt lat="50.544913681223989" lon="6.156126754358411">
        <ele>611.05999999999995</ele>
        <time>2013-07-16T16:24:06Z</time>
      </trkpt>
      <trkpt lat="50.544715281575918" lon="6.156084258109331">
        <ele>612.01999999999998</ele>
        <time>2013-07-16T16:24:23Z</time>
      </trkpt>
      <trkpt lat="50.544534651562572" lon="6.156000941991806">
        <ele>612.5</ele>
        <time>2013-07-16T16:24:38Z</time>
      </trkpt>
      <trkpt lat="50.544521743431687" lon="6.155994152650237">
        <ele>612.5</ele>
        <time>2013-07-16T16:24:39Z</time>
      </trkpt>
      <trkpt lat="50.544345220550895" lon="6.156038995832205">
        <ele>613.46000000000004</ele>
        <time>2013-07-16T16:24:56Z</time>
      </trkpt>
      <trkpt lat="50.544211529195309" lon="6.156093897297978">
        <ele>614.89999999999998</ele>
        <time>2013-07-16T16:25:09Z</time>
      </trkpt>
      <trkpt lat="50.54409678094089" lon="6.15616774186492">
        <ele>615.38</ele>
        <time>2013-07-16T16:25:19Z</time>
      </trkpt>
      <trkpt lat="50.543925119563937" lon="6.156266732141376">
        <ele>615.86000000000001</ele>
        <time>2013-07-16T16:25:33Z</time>
      </trkpt>
      <trkpt lat="50.543764857575297" lon="6.156379887834191">
        <ele>616.82000000000005</ele>
        <time>2013-07-16T16:25:48Z</time>
      </trkpt>
      <trkpt lat="50.543600656092167" lon="6.156491534784436">
        <ele>618.25999999999999</ele>
        <time>2013-07-16T16:26:03Z</time>
      </trkpt>
      <trkpt lat="50.543506359681487" lon="6.156561188399792">
        <ele>618.25999999999999</ele>
        <time>2013-07-16T16:26:17Z</time>
      </trkpt>
      <trkpt lat="50.543324975296855" lon="6.156684570014477">
        <ele>618.75</ele>
        <time>2013-07-16T16:26:34Z</time>
      </trkpt>
      <trkpt lat="50.543275689706206" lon="6.156682390719652">
        <ele>618.75</ele>
        <time>2013-07-16T16:26:52Z</time>
      </trkpt>
      <trkpt lat="50.543232355266809" lon="6.156696975231171">
        <ele>618.75</ele>
        <time>2013-07-16T16:27:12Z</time>
      </trkpt>
      <trkpt lat="50.543223805725574" lon="6.156681468710303">
        <ele>618.75</ele>
        <time>2013-07-16T16:27:31Z</time>
      </trkpt>
      <trkpt lat="50.543260602280498" lon="6.156767467036843">
        <ele>619.23000000000002</ele>
        <time>2013-07-16T16:27:53Z</time>
      </trkpt>
      <trkpt lat="50.543218608945608" lon="6.15681616589427">
        <ele>619.23000000000002</ele>
        <time>2013-07-16T16:28:11Z</time>
      </trkpt>
      <trkpt lat="50.543079301714897" lon="6.156899398192763">
        <ele>620.66999999999996</ele>
        <time>2013-07-16T16:28:29Z</time>
      </trkpt>
      <trkpt lat="50.542870257049799" lon="6.157021773979068">
        <ele>621.14999999999998</ele>
        <time>2013-07-16T16:28:44Z</time>
      </trkpt>
      <trkpt lat="50.542678646743298" lon="6.157174156978726">
        <ele>621.63</ele>
        <time>2013-07-16T16:28:57Z</time>
      </trkpt>
      <trkpt lat="50.54248133674264" lon="6.157388314604759">
        <ele>622.11000000000001</ele>
        <time>2013-07-16T16:29:07Z</time>
      </trkpt>
      <trkpt lat="50.542171793058515" lon="6.15766977891326">
        <ele>622.59000000000003</ele>
        <time>2013-07-16T16:29:18Z</time>
      </trkpt>
      <trkpt lat="50.541857806965709" lon="6.157985022291541">
        <ele>623.54999999999995</ele>
        <time>2013-07-16T16:29:30Z</time>
      </trkpt>
      <trkpt lat="50.541580365970731" lon="6.158220721408725">
        <ele>624.50999999999999</ele>
        <time>2013-07-16T16:29:42Z</time>
      </trkpt>
      <trkpt lat="50.541313234716654" lon="6.158381151035428">
        <ele>625.47000000000003</ele>
        <time>2013-07-16T16:29:58Z</time>
      </trkpt>
      <trkpt lat="50.541156157851219" lon="6.158435130491853">
        <ele>625.96000000000004</ele>
        <time>2013-07-16T16:30:13Z</time>
      </trkpt>
      <trkpt lat="50.540949711576104" lon="6.158530181273818">
        <ele>626.44000000000005</ele>
        <time>2013-07-16T16:30:29Z</time>
      </trkpt>
      <trkpt lat="50.540926326066256" lon="6.158540993928909">
        <ele>626.44000000000005</ele>
        <time>2013-07-16T16:30:31Z</time>
      </trkpt>
      <trkpt lat="50.540748378261924" lon="6.158613497391343">
        <ele>626.91999999999996</ele>
        <time>2013-07-16T16:30:45Z</time>
      </trkpt>
      <trkpt lat="50.540606891736388" lon="6.158651551231742">
        <ele>626.91999999999996</ele>
        <time>2013-07-16T16:30:57Z</time>
      </trkpt>
      <trkpt lat="50.540345376357436" lon="6.158694718033075">
        <ele>626.91999999999996</ele>
        <time>2013-07-16T16:31:15Z</time>
      </trkpt>
      <trkpt lat="50.54020238108933" lon="6.15871206857264">
        <ele>627.39999999999998</ele>
        <time>2013-07-16T16:31:27Z</time>
      </trkpt>
      <trkpt lat="50.540014794096351" lon="6.158726988360286">
        <ele>627.39999999999998</ele>
        <time>2013-07-16T16:31:40Z</time>
      </trkpt>
      <trkpt lat="50.539760068058968" lon="6.158705865964294">
        <ele>627.39999999999998</ele>
        <time>2013-07-16T16:31:56Z</time>
      </trkpt>
      <trkpt lat="50.539585053920746" lon="6.158699495717883">
        <ele>627.88</ele>
        <time>2013-07-16T16:32:09Z</time>
      </trkpt>
      <trkpt lat="50.539386318996549" lon="6.158694215118885">
        <ele>627.88</ele>
        <time>2013-07-16T16:32:23Z</time>
      </trkpt>
      <trkpt lat="50.539183393120766" lon="6.158687509596348">
        <ele>627.88</ele>
        <time>2013-07-16T16:32:39Z</time>
      </trkpt>
      <trkpt lat="50.538951801136136" lon="6.15865046158433">
        <ele>628.36000000000001</ele>
        <time>2013-07-16T16:32:56Z</time>
      </trkpt>
      <trkpt lat="50.538721550256014" lon="6.158600337803364">
        <ele>628.36000000000001</ele>
        <time>2013-07-16T16:33:13Z</time>
      </trkpt>
      <trkpt lat="50.538530442863703" lon="6.158580640330911">
        <ele>628.36000000000001</ele>
        <time>2013-07-16T16:33:28Z</time>
      </trkpt>
      <trkpt lat="50.538370683789253" lon="6.158564630895853">
        <ele>628.36000000000001</ele>
        <time>2013-07-16T16:33:41Z</time>
      </trkpt>
      <trkpt lat="50.538129536435008" lon="6.158544346690178">
        <ele>628.36000000000001</ele>
        <time>2013-07-16T16:33:57Z</time>
      </trkpt>
      <trkpt lat="50.53796349093318" lon="6.158511908724904">
        <ele>628.84000000000003</ele>
        <time>2013-07-16T16:34:11Z</time>
      </trkpt>
      <trkpt lat="50.537694012746215" lon="6.158476369455457">
        <ele>628.84000000000003</ele>
        <time>2013-07-16T16:34:32Z</time>
      </trkpt>
      <trkpt lat="50.537436855956912" lon="6.158446026965976">
        <ele>629.32000000000005</ele>
        <time>2013-07-16T16:34:49Z</time>
      </trkpt>
      <trkpt lat="50.537205599248409" lon="6.158416774123907">
        <ele>629.32000000000005</ele>
        <time>2013-07-16T16:35:07Z</time>
      </trkpt>
      <trkpt lat="50.53708883933723" lon="6.15839347243309">
        <ele>629.32000000000005</ele>
        <time>2013-07-16T16:35:17Z</time>
      </trkpt>
      <trkpt lat="50.536844506859779" lon="6.158366734161973">
        <ele>630.27999999999997</ele>
        <time>2013-07-16T16:35:35Z</time>
      </trkpt>
      <trkpt lat="50.536552062258124" lon="6.158353239297867">
        <ele>630.75999999999999</ele>
        <time>2013-07-16T16:35:56Z</time>
      </trkpt>
      <trkpt lat="50.536253750324249" lon="6.158367237076163">
        <ele>631.24000000000001</ele>
        <time>2013-07-16T16:36:12Z</time>
      </trkpt>
      <trkpt lat="50.535749914124608" lon="6.1584413331002">
        <ele>632.67999999999995</ele>
        <time>2013-07-16T16:36:28Z</time>
      </trkpt>
      <trkpt lat="50.535331321880221" lon="6.15850830450654">
        <ele>634.13</ele>
        <time>2013-07-16T16:36:43Z</time>
      </trkpt>
      <trkpt lat="50.534928990527987" lon="6.158588770776987">
        <ele>635.09000000000003</ele>
        <time>2013-07-16T16:36:56Z</time>
      </trkpt>
      <trkpt lat="50.534486761316657" lon="6.158671835437417">
        <ele>637.00999999999999</ele>
        <time>2013-07-16T16:37:11Z</time>
      </trkpt>
      <trkpt lat="50.534052243456244" lon="6.158773424103856">
        <ele>638.92999999999995</ele>
        <time>2013-07-16T16:37:26Z</time>
      </trkpt>
      <trkpt lat="50.533649995923042" lon="6.158867301419377">
        <ele>639.88999999999999</ele>
        <time>2013-07-16T16:37:39Z</time>
      </trkpt>
      <trkpt lat="50.533252106979489" lon="6.158974170684815">
        <ele>640.86000000000001</ele>
        <time>2013-07-16T16:37:52Z</time>
      </trkpt>
      <trkpt lat="50.532935690134764" lon="6.159105179831386">
        <ele>642.29999999999995</ele>
        <time>2013-07-16T16:38:03Z</time>
      </trkpt>
      <trkpt lat="50.532614830881357" lon="6.159481778740883">
        <ele>643.25999999999999</ele>
        <time>2013-07-16T16:38:16Z</time>
      </trkpt>
      <trkpt lat="50.532368738204241" lon="6.159869525581598">
        <ele>644.70000000000005</ele>
        <time>2013-07-16T16:38:27Z</time>
      </trkpt>
      <trkpt lat="50.532082160934806" lon="6.160387694835663">
        <ele>646.13999999999999</ele>
        <time>2013-07-16T16:38:41Z</time>
      </trkpt>
      <trkpt lat="50.53184193558991" lon="6.160909384489059">
        <ele>647.59000000000003</ele>
        <time>2013-07-16T16:38:54Z</time>
      </trkpt>
      <trkpt lat="50.531612439081073" lon="6.161315320059657">
        <ele>648.07000000000005</ele>
        <time>2013-07-16T16:39:05Z</time>
      </trkpt>
      <trkpt lat="50.531352767720819" lon="6.161793256178498">
        <ele>649.02999999999997</ele>
        <time>2013-07-16T16:39:19Z</time>
      </trkpt>
      <trkpt lat="50.531234499067068" lon="6.162030715495348">
        <ele>649.02999999999997</ele>
        <time>2013-07-16T16:39:28Z</time>
      </trkpt>
      <trkpt lat="50.531098879873753" lon="6.162349982187152">
        <ele>649.02999999999997</ele>
        <time>2013-07-16T16:39:44Z</time>
      </trkpt>
      <trkpt lat="50.530938198789954" lon="6.162660447880626">
        <ele>649.02999999999997</ele>
        <time>2013-07-16T16:40:02Z</time>
      </trkpt>
      <trkpt lat="50.530797634273767" lon="6.162911485880613">
        <ele>649.02999999999997</ele>
        <time>2013-07-16T16:40:17Z</time>
      </trkpt>
      <trkpt lat="50.530608203262091" lon="6.163185741752386">
        <ele>649.02999999999997</ele>
        <time>2013-07-16T16:40:35Z</time>
      </trkpt>
      <trkpt lat="50.530453808605671" lon="6.163449604064226">
        <ele>649.02999999999997</ele>
        <time>2013-07-16T16:40:51Z</time>
      </trkpt>
      <trkpt lat="50.530290696769953" lon="6.16373660042882">
        <ele>648.07000000000005</ele>
        <time>2013-07-16T16:41:07Z</time>
      </trkpt>
      <trkpt lat="50.530140409246087" lon="6.164023512974381">
        <ele>648.07000000000005</ele>
        <time>2013-07-16T16:41:25Z</time>
      </trkpt>
      <trkpt lat="50.529992636293173" lon="6.164349904283881">
        <ele>648.07000000000005</ele>
        <time>2013-07-16T16:41:45Z</time>
      </trkpt>
      <trkpt lat="50.529799349606037" lon="6.164692640304565">
        <ele>648.07000000000005</ele>
        <time>2013-07-16T16:42:04Z</time>
      </trkpt>
      <trkpt lat="50.529660293832421" lon="6.1649498809129">
        <ele>648.07000000000005</ele>
        <time>2013-07-16T16:42:19Z</time>
      </trkpt>
      <trkpt lat="50.52960304543376" lon="6.16508818231523">
        <ele>647.59000000000003</ele>
        <time>2013-07-16T16:42:26Z</time>
      </trkpt>
      <trkpt lat="50.529602291062474" lon="6.165143670514226">
        <ele>647.59000000000003</ele>
        <time>2013-07-16T16:42:29Z</time>
      </trkpt>
      <trkpt lat="50.529631124809384" lon="6.165214497596026">
        <ele>647.59000000000003</ele>
        <time>2013-07-16T16:42:34Z</time>
      </trkpt>
      <trkpt lat="50.529814269393682" lon="6.165628060698509">
        <ele>649.02999999999997</ele>
        <time>2013-07-16T16:42:47Z</time>
      </trkpt>
      <trkpt lat="50.529834302142262" lon="6.16566963493824">
        <ele>649.02999999999997</ele>
        <time>2013-07-16T16:42:48Z</time>
      </trkpt>
      <trkpt lat="50.530110066756606" lon="6.166066769510508">
        <ele>649.02999999999997</ele>
        <time>2013-07-16T16:42:59Z</time>
      </trkpt>
      <trkpt lat="50.530428495258093" lon="6.166409840807319">
        <ele>649.99000000000001</ele>
        <time>2013-07-16T16:43:10Z</time>
      </trkpt>
      <trkpt lat="50.530838705599308" lon="6.166924573481083">
        <ele>647.59000000000003</ele>
        <time>2013-07-16T16:43:25Z</time>
      </trkpt>
      <trkpt lat="50.531250424683094" lon="6.167387841269374">
        <ele>646.62</ele>
        <time>2013-07-16T16:43:40Z</time>
      </trkpt>
      <trkpt lat="50.531520657241344" lon="6.167654888704419">
        <ele>645.65999999999997</ele>
        <time>2013-07-16T16:43:51Z</time>
      </trkpt>
      <trkpt lat="50.531736072152853" lon="6.167881786823273">
        <ele>644.70000000000005</ele>
        <time>2013-07-16T16:44:02Z</time>
      </trkpt>
      <trkpt lat="50.531860794872046" lon="6.168072056025267">
        <ele>644.22000000000003</ele>
        <time>2013-07-16T16:44:16Z</time>
      </trkpt>
      <trkpt lat="50.531966155394912" lon="6.168274311348796">
        <ele>644.22000000000003</ele>
        <time>2013-07-16T16:44:29Z</time>
      </trkpt>
      <trkpt lat="50.532117364928126" lon="6.168480254709721">
        <ele>643.74000000000001</ele>
        <time>2013-07-16T16:44:44Z</time>
      </trkpt>
      <trkpt lat="50.532325906679034" lon="6.168703883886337">
        <ele>643.74000000000001</ele>
        <time>2013-07-16T16:45:02Z</time>
      </trkpt>
      <trkpt lat="50.532511314377189" lon="6.16895173676312">
        <ele>643.74000000000001</ele>
        <time>2013-07-16T16:45:19Z</time>
      </trkpt>
      <trkpt lat="50.532586248591542" lon="6.169116524979472">
        <ele>643.25999999999999</ele>
        <time>2013-07-16T16:45:28Z</time>
      </trkpt>
      <trkpt lat="50.532698063179851" lon="6.169381644576788">
        <ele>642.29999999999995</ele>
        <time>2013-07-16T16:45:43Z</time>
      </trkpt>
      <trkpt lat="50.53271365351975" lon="6.169413747265935">
        <ele>642.29999999999995</ele>
        <time>2013-07-16T16:45:45Z</time>
      </trkpt>
      <trkpt lat="50.532792946323752" lon="6.169591946527362">
        <ele>641.82000000000005</ele>
        <time>2013-07-16T16:45:55Z</time>
      </trkpt>
      <trkpt lat="50.532846255227923" lon="6.169735863804817">
        <ele>640.86000000000001</ele>
        <time>2013-07-16T16:46:03Z</time>
      </trkpt>
      <trkpt lat="50.532874166965485" lon="6.169803338125348">
        <ele>640.38</ele>
        <time>2013-07-16T16:46:07Z</time>
      </trkpt>
      <trkpt lat="50.532905934378505" lon="6.170156886801124">
        <ele>638.92999999999995</ele>
        <time>2013-07-16T16:46:23Z</time>
      </trkpt>
      <trkpt lat="50.532919596880674" lon="6.17019142024219">
        <ele>638.92999999999995</ele>
        <time>2013-07-16T16:46:25Z</time>
      </trkpt>
      <trkpt lat="50.53296871483326" lon="6.170281860977411">
        <ele>638.92999999999995</ele>
        <time>2013-07-16T16:46:31Z</time>
      </trkpt>
      <trkpt lat="50.533072734251618" lon="6.170497359707952">
        <ele>637.97000000000003</ele>
        <time>2013-07-16T16:46:43Z</time>
      </trkpt>
      <trkpt lat="50.533139118924737" lon="6.170763485133648">
        <ele>637.49000000000001</ele>
        <time>2013-07-16T16:46:59Z</time>
      </trkpt>
      <trkpt lat="50.533170131966472" lon="6.1708764731884">
        <ele>637.00999999999999</ele>
        <time>2013-07-16T16:47:05Z</time>
      </trkpt>
      <trkpt lat="50.533305248245597" lon="6.171152321621776">
        <ele>635.57000000000005</ele>
        <time>2013-07-16T16:47:21Z</time>
      </trkpt>
      <trkpt lat="50.533355791121721" lon="6.171239074319601">
        <ele>635.57000000000005</ele>
        <time>2013-07-16T16:47:26Z</time>
      </trkpt>
      <trkpt lat="50.533491158857942" lon="6.171515844762325">
        <ele>634.13</ele>
        <time>2013-07-16T16:47:42Z</time>
      </trkpt>
      <trkpt lat="50.533556872978806" lon="6.171680632978678">
        <ele>633.64999999999998</ele>
        <time>2013-07-16T16:47:52Z</time>
      </trkpt>
      <trkpt lat="50.533559555187821" lon="6.171828405931592">
        <ele>633.64999999999998</ele>
        <time>2013-07-16T16:47:58Z</time>
      </trkpt>
      <trkpt lat="50.533580929040909" lon="6.171887246891856">
        <ele>633.16999999999996</ele>
        <time>2013-07-16T16:48:01Z</time>
      </trkpt>
      <trkpt lat="50.533637423068285" lon="6.172150438651443">
        <ele>631.72000000000003</ele>
        <time>2013-07-16T16:48:13Z</time>
      </trkpt>
      <trkpt lat="50.533688887953758" lon="6.172278430312872">
        <ele>630.75999999999999</ele>
        <time>2013-07-16T16:48:20Z</time>
      </trkpt>
      <trkpt lat="50.533704059198499" lon="6.172362333163619">
        <ele>630.27999999999997</ele>
        <time>2013-07-16T16:48:24Z</time>
      </trkpt>
      <trkpt lat="50.533589730039239" lon="6.172768771648407">
        <ele>628.84000000000003</ele>
        <time>2013-07-16T16:48:43Z</time>
      </trkpt>
      <trkpt lat="50.533475065603852" lon="6.173008913174272">
        <ele>627.39999999999998</ele>
        <time>2013-07-16T16:48:56Z</time>
      </trkpt>
      <trkpt lat="50.533457295969129" lon="6.173068508505821">
        <ele>627.39999999999998</ele>
        <time>2013-07-16T16:48:59Z</time>
      </trkpt>
      <trkpt lat="50.533417565748096" lon="6.173166912049055">
        <ele>626.44000000000005</ele>
        <time>2013-07-16T16:49:04Z</time>
      </trkpt>
      <trkpt lat="50.53327658213675" lon="6.173549294471741">
        <ele>624.50999999999999</ele>
        <time>2013-07-16T16:49:23Z</time>
      </trkpt>
      <trkpt lat="50.533188069239259" lon="6.173873674124479">
        <ele>622.59000000000003</ele>
        <time>2013-07-16T16:49:40Z</time>
      </trkpt>
      <trkpt lat="50.533183207735419" lon="6.174192856997252">
        <ele>621.14999999999998</ele>
        <time>2013-07-16T16:49:56Z</time>
      </trkpt>
      <trkpt lat="50.533152613788843" lon="6.174463173374534">
        <ele>620.19000000000005</ele>
        <time>2013-07-16T16:50:08Z</time>
      </trkpt>
      <trkpt lat="50.533087821677327" lon="6.174802808091044">
        <ele>618.25999999999999</ele>
        <time>2013-07-16T16:50:24Z</time>
      </trkpt>
      <trkpt lat="50.533044654875994" lon="6.175334053114057">
        <ele>615.86000000000001</ele>
        <time>2013-07-16T16:50:48Z</time>
      </trkpt>
      <trkpt lat="50.533021604642272" lon="6.175466738641262">
        <ele>615.38</ele>
        <time>2013-07-16T16:50:54Z</time>
      </trkpt>
      <trkpt lat="50.532995872199535" lon="6.175838308408856">
        <ele>613.46000000000004</ele>
        <time>2013-07-16T16:51:11Z</time>
      </trkpt>
      <trkpt lat="50.533013306558132" lon="6.176249105483294">
        <ele>612.01999999999998</ele>
        <time>2013-07-16T16:51:30Z</time>
      </trkpt>
      <trkpt lat="50.53305278532207" lon="6.176663171499968">
        <ele>610.57000000000005</ele>
        <time>2013-07-16T16:51:49Z</time>
      </trkpt>
      <trkpt lat="50.533168707042933" lon="6.177036250010133">
        <ele>608.64999999999998</ele>
        <time>2013-07-16T16:52:06Z</time>
      </trkpt>
      <trkpt lat="50.533244144171476" lon="6.177436569705606">
        <ele>607.21000000000004</ele>
        <time>2013-07-16T16:52:25Z</time>
      </trkpt>
      <trkpt lat="50.533234169706702" lon="6.177772516384721">
        <ele>605.28999999999996</ele>
        <time>2013-07-16T16:52:41Z</time>
      </trkpt>
      <trkpt lat="50.533339781686664" lon="6.178131178021431">
        <ele>602.88</ele>
        <time>2013-07-16T16:52:59Z</time>
      </trkpt>
      <trkpt lat="50.533476155251265" lon="6.178424963727593">
        <ele>601.44000000000005</ele>
        <time>2013-07-16T16:53:16Z</time>
      </trkpt>
      <trkpt lat="50.533528961241245" lon="6.178718665614724">
        <ele>600</ele>
        <time>2013-07-16T16:53:31Z</time>
      </trkpt>
      <trkpt lat="50.533617474138737" lon="6.179085206240416">
        <ele>598.08000000000004</ele>
        <time>2013-07-16T16:53:48Z</time>
      </trkpt>
      <trkpt lat="50.533639434725046" lon="6.179218478500843">
        <ele>597.60000000000002</ele>
        <time>2013-07-16T16:53:54Z</time>
      </trkpt>
      <trkpt lat="50.533664915710688" lon="6.179366586729884">
        <ele>596.63999999999999</ele>
        <time>2013-07-16T16:54:01Z</time>
      </trkpt>
      <trkpt lat="50.533671202138066" lon="6.179478904232383">
        <ele>595.66999999999996</ele>
        <time>2013-07-16T16:54:06Z</time>
      </trkpt>
      <trkpt lat="50.533698694780469" lon="6.179748633876443">
        <ele>594.71000000000004</ele>
        <time>2013-07-16T16:54:19Z</time>
      </trkpt>
      <trkpt lat="50.533799864351749" lon="6.180071756243706">
        <ele>592.78999999999996</ele>
        <time>2013-07-16T16:54:33Z</time>
      </trkpt>
      <trkpt lat="50.533879743888974" lon="6.180245261639357">
        <ele>592.30999999999995</ele>
        <time>2013-07-16T16:54:41Z</time>
      </trkpt>
      <trkpt lat="50.533908242359757" lon="6.18041692301631">
        <ele>591.35000000000002</ele>
        <time>2013-07-16T16:54:50Z</time>
      </trkpt>
      <trkpt lat="50.533845713362098" lon="6.180887231603265">
        <ele>589.90999999999997</ele>
        <time>2013-07-16T16:55:10Z</time>
      </trkpt>
      <trkpt lat="50.533699030056596" lon="6.181225776672363">
        <ele>589.42999999999995</ele>
        <time>2013-07-16T16:55:27Z</time>
      </trkpt>
      <trkpt lat="50.533555867150426" lon="6.181549485772848">
        <ele>588.95000000000005</ele>
        <time>2013-07-16T16:55:45Z</time>
      </trkpt>
      <trkpt lat="50.533503983169794" lon="6.181674376130104">
        <ele>588.95000000000005</ele>
        <time>2013-07-16T16:55:50Z</time>
      </trkpt>
      <trkpt lat="50.53340801037848" lon="6.181900016963482">
        <ele>588.46000000000004</ele>
        <time>2013-07-16T16:56:01Z</time>
      </trkpt>
      <trkpt lat="50.53327415138483" lon="6.182176535949111">
        <ele>587.5</ele>
        <time>2013-07-16T16:56:15Z</time>
      </trkpt>
      <trkpt lat="50.533143980428576" lon="6.182494293898344">
        <ele>586.53999999999996</ele>
        <time>2013-07-16T16:56:32Z</time>
      </trkpt>
      <trkpt lat="50.533056389540434" lon="6.182706607505679">
        <ele>586.05999999999995</ele>
        <time>2013-07-16T16:56:44Z</time>
      </trkpt>
      <trkpt lat="50.532927894964814" lon="6.183004584163427">
        <ele>585.10000000000002</ele>
        <time>2013-07-16T16:56:59Z</time>
      </trkpt>
      <trkpt lat="50.532799148932099" lon="6.183320665732026">
        <ele>584.13999999999999</ele>
        <time>2013-07-16T16:57:15Z</time>
      </trkpt>
      <trkpt lat="50.532686496153474" lon="6.183561393991113">
        <ele>583.65999999999997</ele>
        <time>2013-07-16T16:57:29Z</time>
      </trkpt>
      <trkpt lat="50.532548697665334" lon="6.183862807229161">
        <ele>582.70000000000005</ele>
        <time>2013-07-16T16:57:46Z</time>
      </trkpt>
      <trkpt lat="50.532364631071687" lon="6.184185929596424">
        <ele>581.73000000000002</ele>
        <time>2013-07-16T16:58:04Z</time>
      </trkpt>
      <trkpt lat="50.532231023535132" lon="6.1844911146909">
        <ele>581.25</ele>
        <time>2013-07-16T16:58:19Z</time>
      </trkpt>
      <trkpt lat="50.532081574201584" lon="6.184794371947646">
        <ele>580.76999999999998</ele>
        <time>2013-07-16T16:58:35Z</time>
      </trkpt>
      <trkpt lat="50.531938578933477" lon="6.185134928673506">
        <ele>579.80999999999995</ele>
        <time>2013-07-16T16:58:52Z</time>
      </trkpt>
      <trkpt lat="50.531793236732483" lon="6.185483615845442">
        <ele>579.33000000000004</ele>
        <time>2013-07-16T16:59:11Z</time>
      </trkpt>
      <trkpt lat="50.531668346375227" lon="6.185783771798015">
        <ele>577.88999999999999</ele>
        <time>2013-07-16T16:59:28Z</time>
      </trkpt>
      <trkpt lat="50.531514789909124" lon="6.186046879738569">
        <ele>577.88999999999999</ele>
        <time>2013-07-16T16:59:45Z</time>
      </trkpt>
      <trkpt lat="50.531403897330165" lon="6.186285512521863">
        <ele>577.40999999999997</ele>
        <time>2013-07-16T16:59:59Z</time>
      </trkpt>
      <trkpt lat="50.53126584738493" lon="6.18650134652853">
        <ele>576.45000000000005</ele>
        <time>2013-07-16T17:00:12Z</time>
      </trkpt>
      <trkpt lat="50.53109678439796" lon="6.18681114166975">
        <ele>575.49000000000001</ele>
        <time>2013-07-16T17:00:29Z</time>
      </trkpt>
      <trkpt lat="50.530937947332859" lon="6.187042146921158">
        <ele>575.49000000000001</ele>
        <time>2013-07-16T17:00:44Z</time>
      </trkpt>
      <trkpt lat="50.530766369774938" lon="6.187279103323817">
        <ele>574.52999999999997</ele>
        <time>2013-07-16T17:01:00Z</time>
      </trkpt>
      <trkpt lat="50.530623206868768" lon="6.187522010877729">
        <ele>574.52999999999997</ele>
        <time>2013-07-16T17:01:15Z</time>
      </trkpt>
      <trkpt lat="50.530470907688141" lon="6.187718901783228">
        <ele>574.03999999999996</ele>
        <time>2013-07-16T17:01:31Z</time>
      </trkpt>
      <trkpt lat="50.530266808345914" lon="6.187911350280047">
        <ele>574.03999999999996</ele>
        <time>2013-07-16T17:01:45Z</time>
      </trkpt>
      <trkpt lat="50.530033875256777" lon="6.188134979456663">
        <ele>573.55999999999995</ele>
        <time>2013-07-16T17:02:02Z</time>
      </trkpt>
      <trkpt lat="50.529878558591008" lon="6.1883385758847">
        <ele>573.08000000000004</ele>
        <time>2013-07-16T17:02:16Z</time>
      </trkpt>
      <trkpt lat="50.529784094542265" lon="6.188457095995545">
        <ele>573.08000000000004</ele>
        <time>2013-07-16T17:02:24Z</time>
      </trkpt>
      <trkpt lat="50.529622910544276" lon="6.188693298026919">
        <ele>573.08000000000004</ele>
        <time>2013-07-16T17:02:40Z</time>
      </trkpt>
      <trkpt lat="50.529466336593032" lon="6.18889270350337">
        <ele>572.60000000000002</ele>
        <time>2013-07-16T17:02:54Z</time>
      </trkpt>
      <trkpt lat="50.529263913631439" lon="6.189109040424228">
        <ele>572.60000000000002</ele>
        <time>2013-07-16T17:03:10Z</time>
      </trkpt>
      <trkpt lat="50.529047911986709" lon="6.189307859167457">
        <ele>572.60000000000002</ele>
        <time>2013-07-16T17:03:25Z</time>
      </trkpt>
      <trkpt lat="50.528925368562341" lon="6.189360665157437">
        <ele>572.60000000000002</ele>
        <time>2013-07-16T17:03:34Z</time>
      </trkpt>
      <trkpt lat="50.528861917555332" lon="6.189434174448252">
        <ele>572.60000000000002</ele>
        <time>2013-07-16T17:03:40Z</time>
      </trkpt>
      <trkpt lat="50.528627224266529" lon="6.189564261585474">
        <ele>574.03999999999996</ele>
        <time>2013-07-16T17:03:55Z</time>
      </trkpt>
      <trkpt lat="50.528371576219797" lon="6.189758973196149">
        <ele>574.03999999999996</ele>
        <time>2013-07-16T17:04:11Z</time>
      </trkpt>
      <trkpt lat="50.5282021779567" lon="6.189884366467595">
        <ele>574.03999999999996</ele>
        <time>2013-07-16T17:04:24Z</time>
      </trkpt>
      <trkpt lat="50.528172422200441" lon="6.189926778897643">
        <ele>572.60000000000002</ele>
        <time>2013-07-16T17:04:27Z</time>
      </trkpt>
      <trkpt lat="50.528064211830497" lon="6.190072791650891">
        <ele>571.15999999999997</ele>
        <time>2013-07-16T17:04:38Z</time>
      </trkpt>
      <trkpt lat="50.527888610959053" lon="6.190373618155718">
        <ele>569.72000000000003</ele>
        <time>2013-07-16T17:04:55Z</time>
      </trkpt>
      <trkpt lat="50.52773647941649" lon="6.19064150378108">
        <ele>568.75999999999999</ele>
        <time>2013-07-16T17:05:10Z</time>
      </trkpt>
      <trkpt lat="50.527557274326682" lon="6.191030088812113">
        <ele>565.87</ele>
        <time>2013-07-16T17:05:32Z</time>
      </trkpt>
      <trkpt lat="50.527461133897305" lon="6.191222118213773">
        <ele>564.42999999999995</ele>
        <time>2013-07-16T17:05:44Z</time>
      </trkpt>
      <trkpt lat="50.527308834716678" lon="6.19151858612895">
        <ele>562.50999999999999</ele>
        <time>2013-07-16T17:06:00Z</time>
      </trkpt>
      <trkpt lat="50.527138514444232" lon="6.191834080964327">
        <ele>561.07000000000005</ele>
        <time>2013-07-16T17:06:18Z</time>
      </trkpt>
      <trkpt lat="50.526977917179465" lon="6.19217723608017">
        <ele>559.62</ele>
        <time>2013-07-16T17:06:36Z</time>
      </trkpt>
      <trkpt lat="50.526766274124384" lon="6.192558193579316">
        <ele>557.70000000000005</ele>
        <time>2013-07-16T17:06:59Z</time>
      </trkpt>
      <trkpt lat="50.526637360453606" lon="6.192838065326214">
        <ele>556.74000000000001</ele>
        <time>2013-07-16T17:07:14Z</time>
      </trkpt>
      <trkpt lat="50.526463519781828" lon="6.193084744736552">
        <ele>555.29999999999995</ele>
        <time>2013-07-16T17:07:30Z</time>
      </trkpt>
      <trkpt lat="50.526323709636927" lon="6.193244084715843">
        <ele>553.86000000000001</ele>
        <time>2013-07-16T17:07:44Z</time>
      </trkpt>
      <trkpt lat="50.526170320808887" lon="6.193341733887792">
        <ele>553.38</ele>
        <time>2013-07-16T17:07:57Z</time>
      </trkpt>
      <trkpt lat="50.525993211194873" lon="6.193431587889791">
        <ele>553.38</ele>
        <time>2013-07-16T17:08:09Z</time>
      </trkpt>
      <trkpt lat="50.525738820433617" lon="6.193538289517164">
        <ele>552.40999999999997</ele>
        <time>2013-07-16T17:08:27Z</time>
      </trkpt>
      <trkpt lat="50.525500606745481" lon="6.193642811849713">
        <ele>552.40999999999997</ele>
        <time>2013-07-16T17:08:45Z</time>
      </trkpt>
      <trkpt lat="50.525229284539819" lon="6.193781364709139">
        <ele>551.92999999999995</ele>
        <time>2013-07-16T17:09:03Z</time>
      </trkpt>
      <trkpt lat="50.525020826607943" lon="6.193859148770571">
        <ele>551.92999999999995</ele>
        <time>2013-07-16T17:09:19Z</time>
      </trkpt>
      <trkpt lat="50.524764843285084" lon="6.193985044956207">
        <ele>551.92999999999995</ele>
        <time>2013-07-16T17:09:39Z</time>
      </trkpt>
      <trkpt lat="50.52454280667007" lon="6.194112366065383">
        <ele>552.89999999999998</ele>
        <time>2013-07-16T17:09:56Z</time>
      </trkpt>
      <trkpt lat="50.524413054808974" lon="6.19430523365736">
        <ele>552.89999999999998</ele>
        <time>2013-07-16T17:10:09Z</time>
      </trkpt>
      <trkpt lat="50.524303670972586" lon="6.194762047380209">
        <ele>553.38</ele>
        <time>2013-07-16T17:10:31Z</time>
      </trkpt>
      <trkpt lat="50.524261426180601" lon="6.194918118417263">
        <ele>553.38</ele>
        <time>2013-07-16T17:10:38Z</time>
      </trkpt>
      <trkpt lat="50.524241058155894" lon="6.194998836144805">
        <ele>553.38</ele>
        <time>2013-07-16T17:10:42Z</time>
      </trkpt>
      <trkpt lat="50.524202333763242" lon="6.195352133363485">
        <ele>553.38</ele>
        <time>2013-07-16T17:10:58Z</time>
      </trkpt>
      <trkpt lat="50.524133266881108" lon="6.195835433900356">
        <ele>553.38</ele>
        <time>2013-07-16T17:11:19Z</time>
      </trkpt>
      <trkpt lat="50.524108037352562" lon="6.196040874347091">
        <ele>551.92999999999995</ele>
        <time>2013-07-16T17:11:29Z</time>
      </trkpt>
      <trkpt lat="50.524076018482447" lon="6.196352764964104">
        <ele>551.45000000000005</ele>
        <time>2013-07-16T17:11:44Z</time>
      </trkpt>
      <trkpt lat="50.524047017097473" lon="6.196754761040211">
        <ele>551.45000000000005</ele>
        <time>2013-07-16T17:12:01Z</time>
      </trkpt>
      <trkpt lat="50.524027151986957" lon="6.196861295029521">
        <ele>551.45000000000005</ele>
        <time>2013-07-16T17:12:06Z</time>
      </trkpt>
      <trkpt lat="50.524020614102483" lon="6.19714074768126">
        <ele>550.49000000000001</ele>
        <time>2013-07-16T17:12:20Z</time>
      </trkpt>
      <trkpt lat="50.52398381754756" lon="6.197301847860217">
        <ele>550.49000000000001</ele>
        <time>2013-07-16T17:12:34Z</time>
      </trkpt>
      <trkpt lat="50.523979291319847" lon="6.197399161756039">
        <ele>550.49000000000001</ele>
        <time>2013-07-16T17:12:40Z</time>
      </trkpt>
      <trkpt lat="50.523990942165256" lon="6.197611894458532">
        <ele>550.00999999999999</ele>
        <time>2013-07-16T17:12:52Z</time>
      </trkpt>
      <trkpt lat="50.523971999064088" lon="6.197786992415786">
        <ele>549.52999999999997</ele>
        <time>2013-07-16T17:13:01Z</time>
      </trkpt>
      <trkpt lat="50.523977614939213" lon="6.198138948529959">
        <ele>549.52999999999997</ele>
        <time>2013-07-16T17:13:17Z</time>
      </trkpt>
      <trkpt lat="50.52397065795958" lon="6.198189575225115">
        <ele>549.52999999999997</ele>
        <time>2013-07-16T17:13:19Z</time>
      </trkpt>
      <trkpt lat="50.523965461179614" lon="6.198481936007738">
        <ele>549.04999999999995</ele>
        <time>2013-07-16T17:13:32Z</time>
      </trkpt>
      <trkpt lat="50.523965796455741" lon="6.198599198833108">
        <ele>549.04999999999995</ele>
        <time>2013-07-16T17:13:37Z</time>
      </trkpt>
      <trkpt lat="50.523944925516844" lon="6.198804974555969">
        <ele>548.57000000000005</ele>
        <time>2013-07-16T17:13:46Z</time>
      </trkpt>
      <trkpt lat="50.523931179195642" lon="6.198878902941942">
        <ele>548.57000000000005</ele>
        <time>2013-07-16T17:13:49Z</time>
      </trkpt>
      <trkpt lat="50.523927323520184" lon="6.198900025337935">
        <ele>548.57000000000005</ele>
        <time>2013-07-16T17:13:50Z</time>
      </trkpt>
      <trkpt lat="50.523863872513175" lon="6.199281150475144">
        <ele>547.61000000000001</ele>
        <time>2013-07-16T17:14:09Z</time>
      </trkpt>
      <trkpt lat="50.523856831714511" lon="6.199376955628395">
        <ele>547.61000000000001</ele>
        <time>2013-07-16T17:14:14Z</time>
      </trkpt>
      <trkpt lat="50.523856244981289" lon="6.199401849880815">
        <ele>547.61000000000001</ele>
        <time>2013-07-16T17:14:15Z</time>
      </trkpt>
      <trkpt lat="50.523815676569939" lon="6.199579378589988">
        <ele>546.16999999999996</ele>
        <time>2013-07-16T17:14:23Z</time>
      </trkpt>
      <trkpt lat="50.523813497275114" lon="6.199598992243409">
        <ele>545.69000000000005</ele>
        <time>2013-07-16T17:14:24Z</time>
      </trkpt>
      <trkpt lat="50.523808300495148" lon="6.199617683887482">
        <ele>545.69000000000005</ele>
        <time>2013-07-16T17:14:25Z</time>
      </trkpt>
      <trkpt lat="50.523799750953913" lon="6.199637297540903">
        <ele>545.69000000000005</ele>
        <time>2013-07-16T17:14:26Z</time>
      </trkpt>
      <trkpt lat="50.523762032389641" lon="6.199846006929874">
        <ele>545.20000000000005</ele>
        <time>2013-07-16T17:14:36Z</time>
      </trkpt>
      <trkpt lat="50.523656420409679" lon="6.200193939730525">
        <ele>543.75999999999999</ele>
        <time>2013-07-16T17:14:54Z</time>
      </trkpt>
      <trkpt lat="50.523544354364276" lon="6.200522594153881">
        <ele>541.36000000000001</ele>
        <time>2013-07-16T17:15:11Z</time>
      </trkpt>
      <trkpt lat="50.523478975519538" lon="6.200708756223321">
        <ele>540.88</ele>
        <time>2013-07-16T17:15:21Z</time>
      </trkpt>
      <trkpt lat="50.523470342159271" lon="6.200725939124823">
        <ele>540.88</ele>
        <time>2013-07-16T17:15:22Z</time>
      </trkpt>
      <trkpt lat="50.523466486483812" lon="6.200743038207293">
        <ele>540.39999999999998</ele>
        <time>2013-07-16T17:15:23Z</time>
      </trkpt>
      <trkpt lat="50.523460367694497" lon="6.200761897489429">
        <ele>540.39999999999998</ele>
        <time>2013-07-16T17:15:24Z</time>
      </trkpt>
      <trkpt lat="50.523486938327551" lon="6.200776398181915">
        <ele>540.39999999999998</ele>
        <time>2013-07-16T17:15:37Z</time>
      </trkpt>
      <trkpt lat="50.523511245846748" lon="6.200751084834337">
        <ele>540.39999999999998</ele>
        <time>2013-07-16T17:15:40Z</time>
      </trkpt>
      <trkpt lat="50.52353136241436" lon="6.200737506151199">
        <ele>540.39999999999998</ele>
        <time>2013-07-16T17:15:42Z</time>
      </trkpt>
      <trkpt lat="50.523553742095828" lon="6.200744714587927">
        <ele>540.39999999999998</ele>
        <time>2013-07-16T17:15:44Z</time>
      </trkpt>
      <trkpt lat="50.523627083748579" lon="6.200785450637341">
        <ele>539.91999999999996</ele>
        <time>2013-07-16T17:15:49Z</time>
      </trkpt>
      <trkpt lat="50.523779131472111" lon="6.20093297213316">
        <ele>538.48000000000002</ele>
        <time>2013-07-16T17:16:04Z</time>
      </trkpt>
      <trkpt lat="50.523875271901488" lon="6.201081750914455">
        <ele>537.50999999999999</ele>
        <time>2013-07-16T17:16:16Z</time>
      </trkpt>
    </trkseg>
  </trk>

</gpx>